<?xml version="1.0" encoding="UTF-8" standalone="no" ?>
<gpx xmlns="http://www.topografix.com/GPX/1/1" xmlns:xsi="http://www.w3.org/2001/XMLSchema-instance" xsi:schemaLocation="http://www.topografix.com/GPX/1/1 http://www.topografix.com/GPX/1/1/gpx.xsd" version="1.1" creator="VisuGPX - https://www.visugpx.com">
  <metadata>
    <name>Paulliac Villeréal 35 km</name>
  </metadata>
  <trk>
    <name><![CDATA[Villeréal bois de Paulhiac vtt]]></name>
    <extensions>
      <line xmlns="http://www.topografix.com/GPX/gpx_style/0/2">
        <color>0000FF</color>
        <width>4</width>
      </line>
    </extensions>
    <trkseg>
      <trkpt lat="44.62346" lon="0.84343">
        <ele>142.98677062988</ele>
        <time>2020-08-16T17:23:33.330Z</time>
      </trkpt>
      <trkpt lat="44.62336" lon="0.84354">
        <ele>143.13330078125</ele>
        <time>2020-08-16T17:23:27.711Z</time>
      </trkpt>
      <trkpt lat="44.62332" lon="0.84359">
        <ele>143.33712768555</ele>
        <time>2020-08-16T17:23:22.095Z</time>
      </trkpt>
      <trkpt lat="44.62325" lon="0.84375">
        <ele>144.12396240234</ele>
        <time>2020-08-16T17:23:16.480Z</time>
      </trkpt>
      <trkpt lat="44.62322" lon="0.84385">
        <ele>144.61401367188</ele>
        <time>2020-08-16T17:23:10.869Z</time>
      </trkpt>
      <trkpt lat="44.62315" lon="0.84406">
        <ele>145.3186340332</ele>
        <time>2020-08-16T17:23:05.260Z</time>
      </trkpt>
      <trkpt lat="44.62313" lon="0.84443">
        <ele>147.21322631836</ele>
        <time>2020-08-16T17:22:59.655Z</time>
      </trkpt>
      <trkpt lat="44.62299" lon="0.84491">
        <ele>149.71040344238</ele>
        <time>2020-08-16T17:22:54.056Z</time>
      </trkpt>
      <trkpt lat="44.62291" lon="0.84527">
        <ele>149.8480682373</ele>
        <time>2020-08-16T17:22:48.466Z</time>
      </trkpt>
      <trkpt lat="44.62289" lon="0.84535">
        <ele>149.88236999512</ele>
        <time>2020-08-16T17:22:42.883Z</time>
      </trkpt>
      <trkpt lat="44.62287" lon="0.84544">
        <ele>149.9248046875</ele>
        <time>2020-08-16T17:22:37.301Z</time>
      </trkpt>
      <trkpt lat="44.62286" lon="0.84562">
        <ele>150.06292724609</ele>
        <time>2020-08-16T17:22:31.721Z</time>
      </trkpt>
      <trkpt lat="44.62289" lon="0.8458">
        <ele>150.18812561035</ele>
        <time>2020-08-16T17:22:26.144Z</time>
      </trkpt>
      <trkpt lat="44.6229" lon="0.84589">
        <ele>150.28215026855</ele>
        <time>2020-08-16T17:22:20.570Z</time>
      </trkpt>
      <trkpt lat="44.62305" lon="0.84634">
        <ele>151.18675231934</ele>
        <time>2020-08-16T17:22:14.998Z</time>
      </trkpt>
      <trkpt lat="44.6232" lon="0.84679">
        <ele>153.07179260254</ele>
        <time>2020-08-16T17:22:09.435Z</time>
      </trkpt>
      <trkpt lat="44.62332" lon="0.84723">
        <ele>155.26947021484</ele>
        <time>2020-08-16T17:22:03.880Z</time>
      </trkpt>
      <trkpt lat="44.62349" lon="0.8478">
        <ele>156.76620483398</ele>
        <time>2020-08-16T17:21:58.334Z</time>
      </trkpt>
      <trkpt lat="44.62365" lon="0.84831">
        <ele>158.49722290039</ele>
        <time>2020-08-16T17:21:52.799Z</time>
      </trkpt>
      <trkpt lat="44.62368" lon="0.8484">
        <ele>158.79571533203</ele>
        <time>2020-08-16T17:21:47.273Z</time>
      </trkpt>
      <trkpt lat="44.62372" lon="0.84859">
        <ele>159.51371765137</ele>
        <time>2020-08-16T17:21:41.749Z</time>
      </trkpt>
      <trkpt lat="44.62375" lon="0.84868">
        <ele>159.95259094238</ele>
        <time>2020-08-16T17:21:36.228Z</time>
      </trkpt>
      <trkpt lat="44.62395" lon="0.84923">
        <ele>161.57106018066</ele>
        <time>2020-08-16T17:21:30.709Z</time>
      </trkpt>
      <trkpt lat="44.62412" lon="0.84968">
        <ele>162.57470703125</ele>
        <time>2020-08-16T17:21:25.201Z</time>
      </trkpt>
      <trkpt lat="44.62414" lon="0.84975">
        <ele>162.67401123047</ele>
        <time>2020-08-16T17:21:19.702Z</time>
      </trkpt>
      <trkpt lat="44.62419" lon="0.84989">
        <ele>162.59979248047</ele>
        <time>2020-08-16T17:21:14.204Z</time>
      </trkpt>
      <trkpt lat="44.62422" lon="0.85001">
        <ele>162.53964233398</ele>
        <time>2020-08-16T17:21:08.709Z</time>
      </trkpt>
      <trkpt lat="44.62427" lon="0.85011">
        <ele>162.59696960449</ele>
        <time>2020-08-16T17:21:03.216Z</time>
      </trkpt>
      <trkpt lat="44.62435" lon="0.85021">
        <ele>162.79699707031</ele>
        <time>2020-08-16T17:20:57.725Z</time>
      </trkpt>
      <trkpt lat="44.62446" lon="0.85027">
        <ele>163.30213928223</ele>
        <time>2020-08-16T17:20:52.237Z</time>
      </trkpt>
      <trkpt lat="44.62457" lon="0.85029">
        <ele>164.02589416504</ele>
        <time>2020-08-16T17:20:46.752Z</time>
      </trkpt>
      <trkpt lat="44.62469" lon="0.85031">
        <ele>164.78114318848</ele>
        <time>2020-08-16T17:20:41.270Z</time>
      </trkpt>
      <trkpt lat="44.62486" lon="0.85037">
        <ele>165.87892150879</ele>
        <time>2020-08-16T17:20:35.790Z</time>
      </trkpt>
      <trkpt lat="44.6252" lon="0.85043">
        <ele>168.20622253418</ele>
        <time>2020-08-16T17:20:30.315Z</time>
      </trkpt>
      <trkpt lat="44.62536" lon="0.85046">
        <ele>169.38569641113</ele>
        <time>2020-08-16T17:20:24.848Z</time>
      </trkpt>
      <trkpt lat="44.62545" lon="0.85049">
        <ele>169.84568786621</ele>
        <time>2020-08-16T17:20:19.385Z</time>
      </trkpt>
      <trkpt lat="44.62561" lon="0.85057">
        <ele>170.45793151855</ele>
        <time>2020-08-16T17:20:13.925Z</time>
      </trkpt>
      <trkpt lat="44.62569" lon="0.85064">
        <ele>170.73609924316</ele>
        <time>2020-08-16T17:20:08.469Z</time>
      </trkpt>
      <trkpt lat="44.62577" lon="0.85069">
        <ele>171.05448913574</ele>
        <time>2020-08-16T17:20:03.015Z</time>
      </trkpt>
      <trkpt lat="44.6259" lon="0.85072">
        <ele>171.69812011719</ele>
        <time>2020-08-16T17:19:57.563Z</time>
      </trkpt>
      <trkpt lat="44.62594" lon="0.85074">
        <ele>171.87944030762</ele>
        <time>2020-08-16T17:19:52.114Z</time>
      </trkpt>
      <trkpt lat="44.62609" lon="0.85083">
        <ele>172.41827392578</ele>
        <time>2020-08-16T17:19:46.666Z</time>
      </trkpt>
      <trkpt lat="44.62619" lon="0.85087">
        <ele>172.90417480469</ele>
        <time>2020-08-16T17:19:41.222Z</time>
      </trkpt>
      <trkpt lat="44.62628" lon="0.85091">
        <ele>173.18133544922</ele>
        <time>2020-08-16T17:19:35.781Z</time>
      </trkpt>
      <trkpt lat="44.62631" lon="0.85094">
        <ele>173.22589111328</ele>
        <time>2020-08-16T17:19:30.342Z</time>
      </trkpt>
      <trkpt lat="44.62636" lon="0.85094">
        <ele>173.45306396484</ele>
        <time>2020-08-16T17:19:24.904Z</time>
      </trkpt>
      <trkpt lat="44.62638" lon="0.85097">
        <ele>173.45709228516</ele>
        <time>2020-08-16T17:19:19.467Z</time>
      </trkpt>
      <trkpt lat="44.62635" lon="0.85103">
        <ele>173.107421875</ele>
        <time>2020-08-16T17:19:14.031Z</time>
      </trkpt>
      <trkpt lat="44.62634" lon="0.85105">
        <ele>172.96380615234</ele>
        <time>2020-08-16T17:19:08.596Z</time>
      </trkpt>
      <trkpt lat="44.62629" lon="0.85118">
        <ele>172.24415588379</ele>
        <time>2020-08-16T17:19:03.162Z</time>
      </trkpt>
      <trkpt lat="44.62622" lon="0.85145">
        <ele>171.00520324707</ele>
        <time>2020-08-16T17:18:57.730Z</time>
      </trkpt>
      <trkpt lat="44.62622" lon="0.85153">
        <ele>170.91680908203</ele>
        <time>2020-08-16T17:18:52.303Z</time>
      </trkpt>
      <trkpt lat="44.62621" lon="0.85157">
        <ele>170.8464050293</ele>
        <time>2020-08-16T17:18:46.878Z</time>
      </trkpt>
      <trkpt lat="44.6262" lon="0.85159">
        <ele>170.79643249512</ele>
        <time>2020-08-16T17:18:41.454Z</time>
      </trkpt>
      <trkpt lat="44.62616" lon="0.85168">
        <ele>170.55982971191</ele>
        <time>2020-08-16T17:18:36.030Z</time>
      </trkpt>
      <trkpt lat="44.62616" lon="0.8517">
        <ele>170.50752258301</ele>
        <time>2020-08-16T17:18:30.608Z</time>
      </trkpt>
      <trkpt lat="44.62611" lon="0.85181">
        <ele>170.23449707031</ele>
        <time>2020-08-16T17:18:25.186Z</time>
      </trkpt>
      <trkpt lat="44.62611" lon="0.85182">
        <ele>170.19697570801</ele>
        <time>2020-08-16T17:18:19.766Z</time>
      </trkpt>
      <trkpt lat="44.62609" lon="0.85184">
        <ele>170.13171386719</ele>
        <time>2020-08-16T17:18:14.347Z</time>
      </trkpt>
      <trkpt lat="44.62604" lon="0.85197">
        <ele>169.77822875977</ele>
        <time>2020-08-16T17:18:08.928Z</time>
      </trkpt>
      <trkpt lat="44.62594" lon="0.85217">
        <ele>169.40087890625</ele>
        <time>2020-08-16T17:18:03.512Z</time>
      </trkpt>
      <trkpt lat="44.62582" lon="0.85241">
        <ele>168.24209594727</ele>
        <time>2020-08-16T17:17:58.100Z</time>
      </trkpt>
      <trkpt lat="44.6258" lon="0.85244">
        <ele>168.0311126709</ele>
        <time>2020-08-16T17:17:52.693Z</time>
      </trkpt>
      <trkpt lat="44.62572" lon="0.85253">
        <ele>167.42831420898</ele>
        <time>2020-08-16T17:17:47.287Z</time>
      </trkpt>
      <trkpt lat="44.62557" lon="0.85257">
        <ele>167.00816345215</ele>
        <time>2020-08-16T17:17:41.884Z</time>
      </trkpt>
      <trkpt lat="44.62539" lon="0.8526">
        <ele>166.69842529297</ele>
        <time>2020-08-16T17:17:36.484Z</time>
      </trkpt>
      <trkpt lat="44.62532" lon="0.85261">
        <ele>166.39944458008</ele>
        <time>2020-08-16T17:17:31.089Z</time>
      </trkpt>
      <trkpt lat="44.62528" lon="0.85269">
        <ele>165.888671875</ele>
        <time>2020-08-16T17:17:25.695Z</time>
      </trkpt>
      <trkpt lat="44.6252" lon="0.85285">
        <ele>164.81422424316</ele>
        <time>2020-08-16T17:17:20.303Z</time>
      </trkpt>
      <trkpt lat="44.62513" lon="0.85302">
        <ele>163.30271911621</ele>
        <time>2020-08-16T17:17:14.915Z</time>
      </trkpt>
      <trkpt lat="44.6251" lon="0.85319">
        <ele>161.77201843262</ele>
        <time>2020-08-16T17:17:09.530Z</time>
      </trkpt>
      <trkpt lat="44.6251" lon="0.85335">
        <ele>160.42604064941</ele>
        <time>2020-08-16T17:17:04.148Z</time>
      </trkpt>
      <trkpt lat="44.6251" lon="0.85349">
        <ele>159.23916625977</ele>
        <time>2020-08-16T17:16:58.769Z</time>
      </trkpt>
      <trkpt lat="44.6251" lon="0.85353">
        <ele>158.91041564941</ele>
        <time>2020-08-16T17:16:53.392Z</time>
      </trkpt>
      <trkpt lat="44.62512" lon="0.85362">
        <ele>158.34089660645</ele>
        <time>2020-08-16T17:16:48.016Z</time>
      </trkpt>
      <trkpt lat="44.62516" lon="0.85371">
        <ele>157.92874145508</ele>
        <time>2020-08-16T17:16:42.642Z</time>
      </trkpt>
      <trkpt lat="44.62518" lon="0.85373">
        <ele>157.86447143555</ele>
        <time>2020-08-16T17:16:37.270Z</time>
      </trkpt>
      <trkpt lat="44.6252" lon="0.85375">
        <ele>157.88438415527</ele>
        <time>2020-08-16T17:16:31.898Z</time>
      </trkpt>
      <trkpt lat="44.62522" lon="0.85377">
        <ele>157.80654907227</ele>
        <time>2020-08-16T17:16:26.527Z</time>
      </trkpt>
      <trkpt lat="44.62528" lon="0.85384">
        <ele>157.72509765625</ele>
        <time>2020-08-16T17:16:21.156Z</time>
      </trkpt>
      <trkpt lat="44.62529" lon="0.85386">
        <ele>157.70246887207</ele>
        <time>2020-08-16T17:16:15.787Z</time>
      </trkpt>
      <trkpt lat="44.62531" lon="0.85388">
        <ele>157.62915039062</ele>
        <time>2020-08-16T17:16:10.419Z</time>
      </trkpt>
      <trkpt lat="44.62532" lon="0.85391">
        <ele>157.52062988281</ele>
        <time>2020-08-16T17:16:05.051Z</time>
      </trkpt>
      <trkpt lat="44.62537" lon="0.85396">
        <ele>157.70617675781</ele>
        <time>2020-08-16T17:15:59.684Z</time>
      </trkpt>
      <trkpt lat="44.62538" lon="0.85396">
        <ele>157.79125976562</ele>
        <time>2020-08-16T17:15:54.318Z</time>
      </trkpt>
      <trkpt lat="44.62539" lon="0.85395">
        <ele>157.93435668945</ele>
        <time>2020-08-16T17:15:48.952Z</time>
      </trkpt>
      <trkpt lat="44.62544" lon="0.85398">
        <ele>158.07836914062</ele>
        <time>2020-08-16T17:15:43.587Z</time>
      </trkpt>
      <trkpt lat="44.62549" lon="0.85404">
        <ele>158.12231445312</ele>
        <time>2020-08-16T17:15:38.223Z</time>
      </trkpt>
      <trkpt lat="44.6255" lon="0.85405">
        <ele>158.06550598145</ele>
        <time>2020-08-16T17:15:32.861Z</time>
      </trkpt>
      <trkpt lat="44.62547" lon="0.85415">
        <ele>157.25704956055</ele>
        <time>2020-08-16T17:15:27.499Z</time>
      </trkpt>
      <trkpt lat="44.62539" lon="0.85423">
        <ele>156.2463684082</ele>
        <time>2020-08-16T17:15:22.139Z</time>
      </trkpt>
      <trkpt lat="44.62538" lon="0.85426">
        <ele>155.97512817383</ele>
        <time>2020-08-16T17:15:16.781Z</time>
      </trkpt>
      <trkpt lat="44.62533" lon="0.85435">
        <ele>154.98968505859</ele>
        <time>2020-08-16T17:15:11.424Z</time>
      </trkpt>
      <trkpt lat="44.6253" lon="0.85438">
        <ele>154.52165222168</ele>
        <time>2020-08-16T17:15:06.069Z</time>
      </trkpt>
      <trkpt lat="44.62523" lon="0.8545">
        <ele>153.01396179199</ele>
        <time>2020-08-16T17:15:00.715Z</time>
      </trkpt>
      <trkpt lat="44.6252" lon="0.85454">
        <ele>152.46276855469</ele>
        <time>2020-08-16T17:14:55.363Z</time>
      </trkpt>
      <trkpt lat="44.6252" lon="0.85457">
        <ele>152.24897766113</ele>
        <time>2020-08-16T17:14:50.012Z</time>
      </trkpt>
      <trkpt lat="44.62518" lon="0.85461">
        <ele>152.23590087891</ele>
        <time>2020-08-16T17:14:44.662Z</time>
      </trkpt>
      <trkpt lat="44.62514" lon="0.85468">
        <ele>152.15756225586</ele>
        <time>2020-08-16T17:14:39.313Z</time>
      </trkpt>
      <trkpt lat="44.62509" lon="0.85477">
        <ele>152.15596008301</ele>
        <time>2020-08-16T17:14:33.965Z</time>
      </trkpt>
      <trkpt lat="44.62501" lon="0.85488">
        <ele>152.11552429199</ele>
        <time>2020-08-16T17:14:28.619Z</time>
      </trkpt>
      <trkpt lat="44.62488" lon="0.85497">
        <ele>151.8547668457</ele>
        <time>2020-08-16T17:14:23.276Z</time>
      </trkpt>
      <trkpt lat="44.62477" lon="0.85503">
        <ele>151.62074279785</ele>
        <time>2020-08-16T17:14:17.937Z</time>
      </trkpt>
      <trkpt lat="44.62471" lon="0.85506">
        <ele>151.47894287109</ele>
        <time>2020-08-16T17:14:12.601Z</time>
      </trkpt>
      <trkpt lat="44.62461" lon="0.85514">
        <ele>151.3056640625</ele>
        <time>2020-08-16T17:14:07.266Z</time>
      </trkpt>
      <trkpt lat="44.62457" lon="0.85516">
        <ele>151.22431945801</ele>
        <time>2020-08-16T17:14:01.934Z</time>
      </trkpt>
      <trkpt lat="44.62451" lon="0.8553">
        <ele>151.40409851074</ele>
        <time>2020-08-16T17:13:56.603Z</time>
      </trkpt>
      <trkpt lat="44.62454" lon="0.85544">
        <ele>151.76455688477</ele>
        <time>2020-08-16T17:13:51.275Z</time>
      </trkpt>
      <trkpt lat="44.62451" lon="0.85548">
        <ele>151.83241271973</ele>
        <time>2020-08-16T17:13:45.949Z</time>
      </trkpt>
      <trkpt lat="44.62448" lon="0.85557">
        <ele>152.13883972168</ele>
        <time>2020-08-16T17:13:40.624Z</time>
      </trkpt>
      <trkpt lat="44.6245" lon="0.85561">
        <ele>152.23316955566</ele>
        <time>2020-08-16T17:13:35.301Z</time>
      </trkpt>
      <trkpt lat="44.62453" lon="0.85565">
        <ele>152.39392089844</ele>
        <time>2020-08-16T17:13:29.979Z</time>
      </trkpt>
      <trkpt lat="44.6245" lon="0.85567">
        <ele>152.45440673828</ele>
        <time>2020-08-16T17:13:24.658Z</time>
      </trkpt>
      <trkpt lat="44.62448" lon="0.8557">
        <ele>152.62023925781</ele>
        <time>2020-08-16T17:13:19.337Z</time>
      </trkpt>
      <trkpt lat="44.62442" lon="0.85577">
        <ele>153.02673339844</ele>
        <time>2020-08-16T17:13:14.017Z</time>
      </trkpt>
      <trkpt lat="44.62439" lon="0.85585">
        <ele>153.3515625</ele>
        <time>2020-08-16T17:13:08.699Z</time>
      </trkpt>
      <trkpt lat="44.62435" lon="0.85594">
        <ele>153.76246643066</ele>
        <time>2020-08-16T17:13:03.383Z</time>
      </trkpt>
      <trkpt lat="44.62435" lon="0.85594">
        <ele>153.80662536621</ele>
        <time>2020-08-16T17:12:58.069Z</time>
      </trkpt>
      <trkpt lat="44.62428" lon="0.85597">
        <ele>154.05049133301</ele>
        <time>2020-08-16T17:12:52.755Z</time>
      </trkpt>
      <trkpt lat="44.62425" lon="0.85599">
        <ele>154.21914672852</ele>
        <time>2020-08-16T17:12:47.442Z</time>
      </trkpt>
      <trkpt lat="44.62422" lon="0.85603">
        <ele>154.42178344727</ele>
        <time>2020-08-16T17:12:42.130Z</time>
      </trkpt>
      <trkpt lat="44.62417" lon="0.85615">
        <ele>155.09114074707</ele>
        <time>2020-08-16T17:12:36.819Z</time>
      </trkpt>
      <trkpt lat="44.62415" lon="0.85621">
        <ele>155.47067260742</ele>
        <time>2020-08-16T17:12:31.511Z</time>
      </trkpt>
      <trkpt lat="44.62404" lon="0.85639">
        <ele>156.69114685059</ele>
        <time>2020-08-16T17:12:26.204Z</time>
      </trkpt>
      <trkpt lat="44.62394" lon="0.85656">
        <ele>157.86767578125</ele>
        <time>2020-08-16T17:12:20.901Z</time>
      </trkpt>
      <trkpt lat="44.62392" lon="0.85662">
        <ele>158.27185058594</ele>
        <time>2020-08-16T17:12:15.602Z</time>
      </trkpt>
      <trkpt lat="44.62388" lon="0.85675">
        <ele>158.42907714844</ele>
        <time>2020-08-16T17:12:10.304Z</time>
      </trkpt>
      <trkpt lat="44.62376" lon="0.85699">
        <ele>158.71226501465</ele>
        <time>2020-08-16T17:12:05.008Z</time>
      </trkpt>
      <trkpt lat="44.62371" lon="0.85704">
        <ele>158.77572631836</ele>
        <time>2020-08-16T17:11:59.717Z</time>
      </trkpt>
      <trkpt lat="44.62369" lon="0.85706">
        <ele>158.80187988281</ele>
        <time>2020-08-16T17:11:54.428Z</time>
      </trkpt>
      <trkpt lat="44.62365" lon="0.8572">
        <ele>159.20895385742</ele>
        <time>2020-08-16T17:11:49.140Z</time>
      </trkpt>
      <trkpt lat="44.62365" lon="0.85724">
        <ele>159.26792907715</ele>
        <time>2020-08-16T17:11:43.854Z</time>
      </trkpt>
      <trkpt lat="44.62366" lon="0.85726">
        <ele>159.17007446289</ele>
        <time>2020-08-16T17:11:38.569Z</time>
      </trkpt>
      <trkpt lat="44.6237" lon="0.85736">
        <ele>158.6626739502</ele>
        <time>2020-08-16T17:11:33.284Z</time>
      </trkpt>
      <trkpt lat="44.62371" lon="0.85747">
        <ele>158.39094543457</ele>
        <time>2020-08-16T17:11:28.001Z</time>
      </trkpt>
      <trkpt lat="44.62367" lon="0.85771">
        <ele>157.96710205078</ele>
        <time>2020-08-16T17:11:22.720Z</time>
      </trkpt>
      <trkpt lat="44.62364" lon="0.85777">
        <ele>158.11141967773</ele>
        <time>2020-08-16T17:11:17.444Z</time>
      </trkpt>
      <trkpt lat="44.62356" lon="0.85782">
        <ele>158.6372833252</ele>
        <time>2020-08-16T17:11:12.169Z</time>
      </trkpt>
      <trkpt lat="44.62346" lon="0.85781">
        <ele>159.48725891113</ele>
        <time>2020-08-16T17:11:06.896Z</time>
      </trkpt>
      <trkpt lat="44.6234" lon="0.85776">
        <ele>160.13319396973</ele>
        <time>2020-08-16T17:11:01.626Z</time>
      </trkpt>
      <trkpt lat="44.62334" lon="0.85773">
        <ele>160.63557434082</ele>
        <time>2020-08-16T17:10:56.357Z</time>
      </trkpt>
      <trkpt lat="44.62332" lon="0.85775">
        <ele>160.71844482422</ele>
        <time>2020-08-16T17:10:51.090Z</time>
      </trkpt>
      <trkpt lat="44.62328" lon="0.85786">
        <ele>160.39894104004</ele>
        <time>2020-08-16T17:10:45.823Z</time>
      </trkpt>
      <trkpt lat="44.62321" lon="0.85799">
        <ele>160.21952819824</ele>
        <time>2020-08-16T17:10:40.559Z</time>
      </trkpt>
      <trkpt lat="44.62313" lon="0.85814">
        <ele>160.73680114746</ele>
        <time>2020-08-16T17:10:35.298Z</time>
      </trkpt>
      <trkpt lat="44.62302" lon="0.85839">
        <ele>161.22662353516</ele>
        <time>2020-08-16T17:10:30.040Z</time>
      </trkpt>
      <trkpt lat="44.623" lon="0.85847">
        <ele>160.87071228027</ele>
        <time>2020-08-16T17:10:24.787Z</time>
      </trkpt>
      <trkpt lat="44.62298" lon="0.85857">
        <ele>160.49137878418</ele>
        <time>2020-08-16T17:10:19.535Z</time>
      </trkpt>
      <trkpt lat="44.62293" lon="0.85863">
        <ele>160.13507080078</ele>
        <time>2020-08-16T17:10:14.285Z</time>
      </trkpt>
      <trkpt lat="44.62284" lon="0.85858">
        <ele>160.36459350586</ele>
        <time>2020-08-16T17:10:09.037Z</time>
      </trkpt>
      <trkpt lat="44.6228" lon="0.85857">
        <ele>160.92433166504</ele>
        <time>2020-08-16T17:10:03.791Z</time>
      </trkpt>
      <trkpt lat="44.62276" lon="0.85851">
        <ele>161.56976318359</ele>
        <time>2020-08-16T17:09:58.546Z</time>
      </trkpt>
      <trkpt lat="44.62275" lon="0.85849">
        <ele>161.78146362305</ele>
        <time>2020-08-16T17:09:53.303Z</time>
      </trkpt>
      <trkpt lat="44.62274" lon="0.85844">
        <ele>162.06123352051</ele>
        <time>2020-08-16T17:09:48.060Z</time>
      </trkpt>
      <trkpt lat="44.62275" lon="0.85845">
        <ele>162.01597595215</ele>
        <time>2020-08-16T17:09:42.818Z</time>
      </trkpt>
      <trkpt lat="44.62275" lon="0.8585">
        <ele>161.76950073242</ele>
        <time>2020-08-16T17:09:37.576Z</time>
      </trkpt>
      <trkpt lat="44.62277" lon="0.85856">
        <ele>161.30628967285</ele>
        <time>2020-08-16T17:09:32.335Z</time>
      </trkpt>
      <trkpt lat="44.62279" lon="0.85859">
        <ele>160.93821716309</ele>
        <time>2020-08-16T17:09:27.095Z</time>
      </trkpt>
      <trkpt lat="44.6229" lon="0.85863">
        <ele>160.04225158691</ele>
        <time>2020-08-16T17:09:21.856Z</time>
      </trkpt>
      <trkpt lat="44.62296" lon="0.85869">
        <ele>159.97727966309</ele>
        <time>2020-08-16T17:09:16.620Z</time>
      </trkpt>
      <trkpt lat="44.62297" lon="0.8587">
        <ele>159.98030090332</ele>
        <time>2020-08-16T17:09:11.385Z</time>
      </trkpt>
      <trkpt lat="44.62294" lon="0.85866">
        <ele>160.04023742676</ele>
        <time>2020-08-16T17:09:06.151Z</time>
      </trkpt>
      <trkpt lat="44.62287" lon="0.85862">
        <ele>160.00132751465</ele>
        <time>2020-08-16T17:09:00.918Z</time>
      </trkpt>
      <trkpt lat="44.62277" lon="0.85862">
        <ele>161.0913848877</ele>
        <time>2020-08-16T17:08:55.687Z</time>
      </trkpt>
      <trkpt lat="44.62266" lon="0.85875">
        <ele>162.11749267578</ele>
        <time>2020-08-16T17:08:50.458Z</time>
      </trkpt>
      <trkpt lat="44.62251" lon="0.85899">
        <ele>164.591796875</ele>
        <time>2020-08-16T17:08:45.233Z</time>
      </trkpt>
      <trkpt lat="44.62247" lon="0.85909">
        <ele>165.95848083496</ele>
        <time>2020-08-16T17:08:40.013Z</time>
      </trkpt>
      <trkpt lat="44.62237" lon="0.85927">
        <ele>168.55006408691</ele>
        <time>2020-08-16T17:08:34.795Z</time>
      </trkpt>
      <trkpt lat="44.6223" lon="0.85935">
        <ele>169.19429016113</ele>
        <time>2020-08-16T17:08:29.581Z</time>
      </trkpt>
      <trkpt lat="44.62222" lon="0.85939">
        <ele>169.90077209473</ele>
        <time>2020-08-16T17:08:24.369Z</time>
      </trkpt>
      <trkpt lat="44.62196" lon="0.85944">
        <ele>171.95558166504</ele>
        <time>2020-08-16T17:08:19.159Z</time>
      </trkpt>
      <trkpt lat="44.62179" lon="0.85951">
        <ele>172.81553649902</ele>
        <time>2020-08-16T17:08:13.956Z</time>
      </trkpt>
      <trkpt lat="44.62173" lon="0.85956">
        <ele>173.05749511719</ele>
        <time>2020-08-16T17:08:08.757Z</time>
      </trkpt>
      <trkpt lat="44.62167" lon="0.85961">
        <ele>173.2520904541</ele>
        <time>2020-08-16T17:08:03.560Z</time>
      </trkpt>
      <trkpt lat="44.62162" lon="0.85963">
        <ele>173.42405700684</ele>
        <time>2020-08-16T17:07:58.365Z</time>
      </trkpt>
      <trkpt lat="44.62157" lon="0.85962">
        <ele>173.60809326172</ele>
        <time>2020-08-16T17:07:53.171Z</time>
      </trkpt>
      <trkpt lat="44.62147" lon="0.85952">
        <ele>173.96501159668</ele>
        <time>2020-08-16T17:07:47.978Z</time>
      </trkpt>
      <trkpt lat="44.62142" lon="0.85948">
        <ele>174.15084838867</ele>
        <time>2020-08-16T17:07:42.788Z</time>
      </trkpt>
      <trkpt lat="44.62137" lon="0.85947">
        <ele>174.3487701416</ele>
        <time>2020-08-16T17:07:37.600Z</time>
      </trkpt>
      <trkpt lat="44.62131" lon="0.8595">
        <ele>174.55151367188</ele>
        <time>2020-08-16T17:07:32.413Z</time>
      </trkpt>
      <trkpt lat="44.62125" lon="0.85956">
        <ele>174.75636291504</ele>
        <time>2020-08-16T17:07:27.227Z</time>
      </trkpt>
      <trkpt lat="44.62119" lon="0.85965">
        <ele>174.97840881348</ele>
        <time>2020-08-16T17:07:22.043Z</time>
      </trkpt>
      <trkpt lat="44.62107" lon="0.85989">
        <ele>175.25685119629</ele>
        <time>2020-08-16T17:07:16.861Z</time>
      </trkpt>
      <trkpt lat="44.62102" lon="0.86002">
        <ele>175.50566101074</ele>
        <time>2020-08-16T17:07:11.685Z</time>
      </trkpt>
      <trkpt lat="44.62089" lon="0.86042">
        <ele>175.75701904297</ele>
        <time>2020-08-16T17:07:06.511Z</time>
      </trkpt>
      <trkpt lat="44.62086" lon="0.86055">
        <ele>175.46678161621</ele>
        <time>2020-08-16T17:07:01.345Z</time>
      </trkpt>
      <trkpt lat="44.62084" lon="0.86067">
        <ele>175.75282287598</ele>
        <time>2020-08-16T17:06:56.181Z</time>
      </trkpt>
      <trkpt lat="44.62079" lon="0.86089">
        <ele>176.28833007812</ele>
        <time>2020-08-16T17:06:51.019Z</time>
      </trkpt>
      <trkpt lat="44.6207" lon="0.86106">
        <ele>176.64804077148</ele>
        <time>2020-08-16T17:06:45.861Z</time>
      </trkpt>
      <trkpt lat="44.62053" lon="0.86125">
        <ele>176.95687866211</ele>
        <time>2020-08-16T17:06:40.707Z</time>
      </trkpt>
      <trkpt lat="44.62038" lon="0.86139">
        <ele>177.06840515137</ele>
        <time>2020-08-16T17:06:35.559Z</time>
      </trkpt>
      <trkpt lat="44.6203" lon="0.8615">
        <ele>177.4422454834</ele>
        <time>2020-08-16T17:06:30.415Z</time>
      </trkpt>
      <trkpt lat="44.62027" lon="0.86155">
        <ele>177.62336730957</ele>
        <time>2020-08-16T17:06:25.274Z</time>
      </trkpt>
      <trkpt lat="44.62024" lon="0.8616">
        <ele>177.8104095459</ele>
        <time>2020-08-16T17:06:20.134Z</time>
      </trkpt>
      <trkpt lat="44.62015" lon="0.86185">
        <ele>179.03298950195</ele>
        <time>2020-08-16T17:06:14.995Z</time>
      </trkpt>
      <trkpt lat="44.62003" lon="0.86234">
        <ele>182.15284729004</ele>
        <time>2020-08-16T17:06:09.861Z</time>
      </trkpt>
      <trkpt lat="44.61991" lon="0.86281">
        <ele>184.00912475586</ele>
        <time>2020-08-16T17:06:04.736Z</time>
      </trkpt>
      <trkpt lat="44.61975" lon="0.86331">
        <ele>184.86656188965</ele>
        <time>2020-08-16T17:05:59.620Z</time>
      </trkpt>
      <trkpt lat="44.61955" lon="0.86382">
        <ele>185.85662841797</ele>
        <time>2020-08-16T17:05:54.513Z</time>
      </trkpt>
      <trkpt lat="44.61939" lon="0.86423">
        <ele>185.35005187988</ele>
        <time>2020-08-16T17:05:49.416Z</time>
      </trkpt>
      <trkpt lat="44.61892" lon="0.86477">
        <ele>182.81674194336</ele>
        <time>2020-08-16T16:58:43.078Z</time>
      </trkpt>
      <trkpt lat="44.61891" lon="0.86458">
        <ele>182.25900268555</ele>
        <time>2020-08-16T16:58:38.210Z</time>
      </trkpt>
      <trkpt lat="44.61894" lon="0.86429">
        <ele>181.81147766113</ele>
        <time>2020-08-16T16:58:33.346Z</time>
      </trkpt>
      <trkpt lat="44.61892" lon="0.86406">
        <ele>181.13934326172</ele>
        <time>2020-08-16T16:58:28.487Z</time>
      </trkpt>
      <trkpt lat="44.61887" lon="0.86377">
        <ele>180.6798248291</ele>
        <time>2020-08-16T16:58:23.632Z</time>
      </trkpt>
      <trkpt lat="44.61888" lon="0.86362">
        <ele>180.92309570312</ele>
        <time>2020-08-16T16:58:18.782Z</time>
      </trkpt>
      <trkpt lat="44.61887" lon="0.86338">
        <ele>181.13668823242</ele>
        <time>2020-08-16T16:58:13.935Z</time>
      </trkpt>
      <trkpt lat="44.61882" lon="0.86307">
        <ele>180.68229675293</ele>
        <time>2020-08-16T16:58:09.092Z</time>
      </trkpt>
      <trkpt lat="44.61878" lon="0.86297">
        <ele>180.13200378418</ele>
        <time>2020-08-16T16:58:04.254Z</time>
      </trkpt>
      <trkpt lat="44.61864" lon="0.86281">
        <ele>178.85862731934</ele>
        <time>2020-08-16T16:57:59.418Z</time>
      </trkpt>
      <trkpt lat="44.61855" lon="0.86275">
        <ele>178.21601867676</ele>
        <time>2020-08-16T16:57:54.587Z</time>
      </trkpt>
      <trkpt lat="44.61845" lon="0.8627">
        <ele>177.59652709961</ele>
        <time>2020-08-16T16:57:49.758Z</time>
      </trkpt>
      <trkpt lat="44.61832" lon="0.86265">
        <ele>176.77770996094</ele>
        <time>2020-08-16T16:57:44.932Z</time>
      </trkpt>
      <trkpt lat="44.61829" lon="0.86263">
        <ele>176.55084228516</ele>
        <time>2020-08-16T16:57:40.109Z</time>
      </trkpt>
      <trkpt lat="44.61815" lon="0.86245">
        <ele>175.21884155273</ele>
        <time>2020-08-16T16:57:35.287Z</time>
      </trkpt>
      <trkpt lat="44.61804" lon="0.86226">
        <ele>174.04804992676</ele>
        <time>2020-08-16T16:57:30.470Z</time>
      </trkpt>
      <trkpt lat="44.61796" lon="0.8621">
        <ele>173.52551269531</ele>
        <time>2020-08-16T16:57:25.657Z</time>
      </trkpt>
      <trkpt lat="44.61793" lon="0.86206">
        <ele>173.37748718262</ele>
        <time>2020-08-16T16:57:20.847Z</time>
      </trkpt>
      <trkpt lat="44.6179" lon="0.86199">
        <ele>173.23588562012</ele>
        <time>2020-08-16T16:57:16.038Z</time>
      </trkpt>
      <trkpt lat="44.61782" lon="0.86182">
        <ele>172.80409240723</ele>
        <time>2020-08-16T16:57:11.231Z</time>
      </trkpt>
      <trkpt lat="44.61775" lon="0.86166">
        <ele>172.38876342773</ele>
        <time>2020-08-16T16:57:06.427Z</time>
      </trkpt>
      <trkpt lat="44.61767" lon="0.86153">
        <ele>171.92666625977</ele>
        <time>2020-08-16T16:57:01.627Z</time>
      </trkpt>
      <trkpt lat="44.61762" lon="0.86139">
        <ele>171.57203674316</ele>
        <time>2020-08-16T16:56:56.830Z</time>
      </trkpt>
      <trkpt lat="44.61755" lon="0.86131">
        <ele>170.98603820801</ele>
        <time>2020-08-16T16:56:52.035Z</time>
      </trkpt>
      <trkpt lat="44.61754" lon="0.86125">
        <ele>170.75523376465</ele>
        <time>2020-08-16T16:56:47.243Z</time>
      </trkpt>
      <trkpt lat="44.61747" lon="0.86103">
        <ele>169.83656311035</ele>
        <time>2020-08-16T16:56:42.452Z</time>
      </trkpt>
      <trkpt lat="44.61745" lon="0.861">
        <ele>169.66067504883</ele>
        <time>2020-08-16T16:56:37.665Z</time>
      </trkpt>
      <trkpt lat="44.61738" lon="0.86095">
        <ele>169.09097290039</ele>
        <time>2020-08-16T16:56:32.878Z</time>
      </trkpt>
      <trkpt lat="44.61726" lon="0.86091">
        <ele>168.29206848145</ele>
        <time>2020-08-16T16:56:28.094Z</time>
      </trkpt>
      <trkpt lat="44.6172" lon="0.86089">
        <ele>167.86386108398</ele>
        <time>2020-08-16T16:56:23.312Z</time>
      </trkpt>
      <trkpt lat="44.61718" lon="0.86086">
        <ele>167.6625213623</ele>
        <time>2020-08-16T16:56:18.532Z</time>
      </trkpt>
      <trkpt lat="44.6171" lon="0.8608">
        <ele>167.0890045166</ele>
        <time>2020-08-16T16:56:13.753Z</time>
      </trkpt>
      <trkpt lat="44.61705" lon="0.86077">
        <ele>166.71710205078</ele>
        <time>2020-08-16T16:56:08.976Z</time>
      </trkpt>
      <trkpt lat="44.61698" lon="0.86076">
        <ele>166.56256103516</ele>
        <time>2020-08-16T16:56:04.200Z</time>
      </trkpt>
      <trkpt lat="44.61695" lon="0.86074">
        <ele>166.60298156738</ele>
        <time>2020-08-16T16:55:59.426Z</time>
      </trkpt>
      <trkpt lat="44.61686" lon="0.86071">
        <ele>166.73512268066</ele>
        <time>2020-08-16T16:55:54.653Z</time>
      </trkpt>
      <trkpt lat="44.61675" lon="0.86062">
        <ele>166.79827880859</ele>
        <time>2020-08-16T16:55:49.882Z</time>
      </trkpt>
      <trkpt lat="44.61659" lon="0.86049">
        <ele>166.58932495117</ele>
        <time>2020-08-16T16:55:45.114Z</time>
      </trkpt>
      <trkpt lat="44.61654" lon="0.86046">
        <ele>166.5407409668</ele>
        <time>2020-08-16T16:55:40.351Z</time>
      </trkpt>
      <trkpt lat="44.61646" lon="0.86043">
        <ele>166.56980895996</ele>
        <time>2020-08-16T16:55:35.589Z</time>
      </trkpt>
      <trkpt lat="44.61629" lon="0.86027">
        <ele>165.98501586914</ele>
        <time>2020-08-16T16:55:30.829Z</time>
      </trkpt>
      <trkpt lat="44.61617" lon="0.86016">
        <ele>165.60485839844</ele>
        <time>2020-08-16T16:55:26.074Z</time>
      </trkpt>
      <trkpt lat="44.61601" lon="0.86">
        <ele>164.86428833008</ele>
        <time>2020-08-16T16:55:21.323Z</time>
      </trkpt>
      <trkpt lat="44.6159" lon="0.85989">
        <ele>164.2954864502</ele>
        <time>2020-08-16T16:55:16.576Z</time>
      </trkpt>
      <trkpt lat="44.61581" lon="0.85976">
        <ele>163.67469787598</ele>
        <time>2020-08-16T16:55:11.833Z</time>
      </trkpt>
      <trkpt lat="44.61578" lon="0.85972">
        <ele>163.49234008789</ele>
        <time>2020-08-16T16:55:07.093Z</time>
      </trkpt>
      <trkpt lat="44.61568" lon="0.85955">
        <ele>164.0186920166</ele>
        <time>2020-08-16T16:55:02.354Z</time>
      </trkpt>
      <trkpt lat="44.61555" lon="0.85928">
        <ele>164.83831787109</ele>
        <time>2020-08-16T16:54:57.619Z</time>
      </trkpt>
      <trkpt lat="44.61551" lon="0.8592">
        <ele>165.08027648926</ele>
        <time>2020-08-16T16:54:52.890Z</time>
      </trkpt>
      <trkpt lat="44.6154" lon="0.85903">
        <ele>165.6128692627</ele>
        <time>2020-08-16T16:54:48.162Z</time>
      </trkpt>
      <trkpt lat="44.6153" lon="0.85882">
        <ele>166.39701843262</ele>
        <time>2020-08-16T16:54:43.438Z</time>
      </trkpt>
      <trkpt lat="44.61527" lon="0.8587">
        <ele>166.71118164062</ele>
        <time>2020-08-16T16:54:38.719Z</time>
      </trkpt>
      <trkpt lat="44.61526" lon="0.85866">
        <ele>166.84463500977</ele>
        <time>2020-08-16T16:54:34.002Z</time>
      </trkpt>
      <trkpt lat="44.61523" lon="0.85863">
        <ele>167.05281066895</ele>
        <time>2020-08-16T16:54:29.286Z</time>
      </trkpt>
      <trkpt lat="44.61513" lon="0.85858">
        <ele>167.72076416016</ele>
        <time>2020-08-16T16:54:24.571Z</time>
      </trkpt>
      <trkpt lat="44.61482" lon="0.85845">
        <ele>169.94216918945</ele>
        <time>2020-08-16T16:54:19.858Z</time>
      </trkpt>
      <trkpt lat="44.61459" lon="0.8583">
        <ele>171.69744873047</ele>
        <time>2020-08-16T16:54:15.153Z</time>
      </trkpt>
      <trkpt lat="44.61452" lon="0.85823">
        <ele>172.23127746582</ele>
        <time>2020-08-16T16:54:10.454Z</time>
      </trkpt>
      <trkpt lat="44.61423" lon="0.85793">
        <ele>174.07130432129</ele>
        <time>2020-08-16T16:54:05.757Z</time>
      </trkpt>
      <trkpt lat="44.61418" lon="0.85787">
        <ele>174.47317504883</ele>
        <time>2020-08-16T16:54:01.069Z</time>
      </trkpt>
      <trkpt lat="44.61408" lon="0.85773">
        <ele>175.12966918945</ele>
        <time>2020-08-16T16:53:56.383Z</time>
      </trkpt>
      <trkpt lat="44.61402" lon="0.85761">
        <ele>175.56954956055</ele>
        <time>2020-08-16T16:53:51.700Z</time>
      </trkpt>
      <trkpt lat="44.61398" lon="0.85745">
        <ele>175.95722961426</ele>
        <time>2020-08-16T16:53:47.020Z</time>
      </trkpt>
      <trkpt lat="44.61398" lon="0.85716">
        <ele>176.25067138672</ele>
        <time>2020-08-16T16:53:42.343Z</time>
      </trkpt>
      <trkpt lat="44.614" lon="0.85697">
        <ele>176.14105224609</ele>
        <time>2020-08-16T16:53:37.671Z</time>
      </trkpt>
      <trkpt lat="44.61399" lon="0.85689">
        <ele>176.15362548828</ele>
        <time>2020-08-16T16:53:33.002Z</time>
      </trkpt>
      <trkpt lat="44.61391" lon="0.85665">
        <ele>176.66902160645</ele>
        <time>2020-08-16T16:53:28.335Z</time>
      </trkpt>
      <trkpt lat="44.61387" lon="0.85657">
        <ele>176.90083312988</ele>
        <time>2020-08-16T16:53:23.672Z</time>
      </trkpt>
      <trkpt lat="44.61381" lon="0.85642">
        <ele>177.25030517578</ele>
        <time>2020-08-16T16:53:19.011Z</time>
      </trkpt>
      <trkpt lat="44.61379" lon="0.85635">
        <ele>176.94352722168</ele>
        <time>2020-08-16T16:53:14.353Z</time>
      </trkpt>
      <trkpt lat="44.61372" lon="0.8561">
        <ele>174.60516357422</ele>
        <time>2020-08-16T16:53:09.696Z</time>
      </trkpt>
      <trkpt lat="44.6137" lon="0.85602">
        <ele>173.91506958008</ele>
        <time>2020-08-16T16:53:05.044Z</time>
      </trkpt>
      <trkpt lat="44.61368" lon="0.85598">
        <ele>173.61991882324</ele>
        <time>2020-08-16T16:53:00.394Z</time>
      </trkpt>
      <trkpt lat="44.61366" lon="0.85595">
        <ele>173.45993041992</ele>
        <time>2020-08-16T16:52:55.744Z</time>
      </trkpt>
      <trkpt lat="44.61363" lon="0.85589">
        <ele>173.00848388672</ele>
        <time>2020-08-16T16:52:51.095Z</time>
      </trkpt>
      <trkpt lat="44.61357" lon="0.85575">
        <ele>172.1577911377</ele>
        <time>2020-08-16T16:52:46.447Z</time>
      </trkpt>
      <trkpt lat="44.61349" lon="0.8556">
        <ele>171.37579345703</ele>
        <time>2020-08-16T16:52:41.802Z</time>
      </trkpt>
      <trkpt lat="44.61343" lon="0.85548">
        <ele>171.33480834961</ele>
        <time>2020-08-16T16:52:37.161Z</time>
      </trkpt>
      <trkpt lat="44.6134" lon="0.85541">
        <ele>171.54377746582</ele>
        <time>2020-08-16T16:52:32.522Z</time>
      </trkpt>
      <trkpt lat="44.61334" lon="0.85526">
        <ele>171.98698425293</ele>
        <time>2020-08-16T16:52:27.885Z</time>
      </trkpt>
      <trkpt lat="44.61323" lon="0.85497">
        <ele>172.14779663086</ele>
        <time>2020-08-16T16:52:23.251Z</time>
      </trkpt>
      <trkpt lat="44.61305" lon="0.85448">
        <ele>173.73048400879</ele>
        <time>2020-08-16T16:52:18.622Z</time>
      </trkpt>
      <trkpt lat="44.61298" lon="0.85431">
        <ele>174.75012207031</ele>
        <time>2020-08-16T16:52:14.003Z</time>
      </trkpt>
      <trkpt lat="44.61296" lon="0.85424">
        <ele>175.16426086426</ele>
        <time>2020-08-16T16:52:09.387Z</time>
      </trkpt>
      <trkpt lat="44.61294" lon="0.85419">
        <ele>175.46766662598</ele>
        <time>2020-08-16T16:52:04.773Z</time>
      </trkpt>
      <trkpt lat="44.61292" lon="0.85411">
        <ele>175.88018798828</ele>
        <time>2020-08-16T16:52:00.160Z</time>
      </trkpt>
      <trkpt lat="44.61294" lon="0.8541">
        <ele>175.57637023926</ele>
        <time>2020-08-16T16:51:55.548Z</time>
      </trkpt>
      <trkpt lat="44.61297" lon="0.8541">
        <ele>175.2310333252</ele>
        <time>2020-08-16T16:51:50.937Z</time>
      </trkpt>
      <trkpt lat="44.61299" lon="0.85408">
        <ele>174.93074035645</ele>
        <time>2020-08-16T16:51:46.327Z</time>
      </trkpt>
      <trkpt lat="44.61306" lon="0.85392">
        <ele>174.83538818359</ele>
        <time>2020-08-16T16:51:41.717Z</time>
      </trkpt>
      <trkpt lat="44.61319" lon="0.85371">
        <ele>172.85844421387</ele>
        <time>2020-08-16T16:51:37.111Z</time>
      </trkpt>
      <trkpt lat="44.61324" lon="0.85366">
        <ele>172.22326660156</ele>
        <time>2020-08-16T16:51:32.509Z</time>
      </trkpt>
      <trkpt lat="44.61336" lon="0.85352">
        <ele>170.87387084961</ele>
        <time>2020-08-16T16:51:27.909Z</time>
      </trkpt>
      <trkpt lat="44.61343" lon="0.8534">
        <ele>171.66361999512</ele>
        <time>2020-08-16T16:51:23.313Z</time>
      </trkpt>
      <trkpt lat="44.61346" lon="0.85334">
        <ele>172.05693054199</ele>
        <time>2020-08-16T16:51:18.720Z</time>
      </trkpt>
      <trkpt lat="44.61351" lon="0.85322">
        <ele>172.82344055176</ele>
        <time>2020-08-16T16:51:14.128Z</time>
      </trkpt>
      <trkpt lat="44.61356" lon="0.85311">
        <ele>173.52127075195</ele>
        <time>2020-08-16T16:51:09.538Z</time>
      </trkpt>
      <trkpt lat="44.61364" lon="0.85292">
        <ele>174.1071472168</ele>
        <time>2020-08-16T16:51:04.950Z</time>
      </trkpt>
      <trkpt lat="44.61366" lon="0.85287">
        <ele>174.19847106934</ele>
        <time>2020-08-16T16:51:00.366Z</time>
      </trkpt>
      <trkpt lat="44.61369" lon="0.85283">
        <ele>174.26867675781</ele>
        <time>2020-08-16T16:50:55.783Z</time>
      </trkpt>
      <trkpt lat="44.61371" lon="0.8528">
        <ele>174.27450561523</ele>
        <time>2020-08-16T16:50:51.201Z</time>
      </trkpt>
      <trkpt lat="44.61379" lon="0.85268">
        <ele>174.32559204102</ele>
        <time>2020-08-16T16:50:46.620Z</time>
      </trkpt>
      <trkpt lat="44.61386" lon="0.8525">
        <ele>174.46990966797</ele>
        <time>2020-08-16T16:50:42.042Z</time>
      </trkpt>
      <trkpt lat="44.61393" lon="0.8523">
        <ele>175.42932128906</ele>
        <time>2020-08-16T16:50:37.468Z</time>
      </trkpt>
      <trkpt lat="44.61396" lon="0.85214">
        <ele>176.11102294922</ele>
        <time>2020-08-16T16:50:32.897Z</time>
      </trkpt>
      <trkpt lat="44.61398" lon="0.85199">
        <ele>176.34292602539</ele>
        <time>2020-08-16T16:50:28.329Z</time>
      </trkpt>
      <trkpt lat="44.61394" lon="0.85181">
        <ele>176.41926574707</ele>
        <time>2020-08-16T16:50:23.764Z</time>
      </trkpt>
      <trkpt lat="44.61395" lon="0.85179">
        <ele>176.4762878418</ele>
        <time>2020-08-16T16:50:19.202Z</time>
      </trkpt>
      <trkpt lat="44.61396" lon="0.85167">
        <ele>176.66775512695</ele>
        <time>2020-08-16T16:50:14.641Z</time>
      </trkpt>
      <trkpt lat="44.61401" lon="0.85144">
        <ele>176.78401184082</ele>
        <time>2020-08-16T16:50:10.082Z</time>
      </trkpt>
      <trkpt lat="44.61403" lon="0.85133">
        <ele>176.74145507812</ele>
        <time>2020-08-16T16:50:05.527Z</time>
      </trkpt>
      <trkpt lat="44.61404" lon="0.8513">
        <ele>176.73854064941</ele>
        <time>2020-08-16T16:50:00.974Z</time>
      </trkpt>
      <trkpt lat="44.61408" lon="0.85113">
        <ele>176.62559509277</ele>
        <time>2020-08-16T16:49:56.422Z</time>
      </trkpt>
      <trkpt lat="44.61408" lon="0.85092">
        <ele>176.22560119629</ele>
        <time>2020-08-16T16:49:51.873Z</time>
      </trkpt>
      <trkpt lat="44.61405" lon="0.85083">
        <ele>175.74127197266</ele>
        <time>2020-08-16T16:49:47.327Z</time>
      </trkpt>
      <trkpt lat="44.61406" lon="0.85078">
        <ele>175.44842529297</ele>
        <time>2020-08-16T16:49:42.783Z</time>
      </trkpt>
      <trkpt lat="44.61409" lon="0.85069">
        <ele>174.81948852539</ele>
        <time>2020-08-16T16:49:38.240Z</time>
      </trkpt>
      <trkpt lat="44.6141" lon="0.85064">
        <ele>174.48429870605</ele>
        <time>2020-08-16T16:49:33.699Z</time>
      </trkpt>
      <trkpt lat="44.61411" lon="0.85042">
        <ele>173.4734954834</ele>
        <time>2020-08-16T16:49:29.159Z</time>
      </trkpt>
      <trkpt lat="44.61413" lon="0.85022">
        <ele>172.72659301758</ele>
        <time>2020-08-16T16:49:24.623Z</time>
      </trkpt>
      <trkpt lat="44.6142" lon="0.85006">
        <ele>171.52729797363</ele>
        <time>2020-08-16T16:49:20.090Z</time>
      </trkpt>
      <trkpt lat="44.6142" lon="0.85001">
        <ele>171.22862243652</ele>
        <time>2020-08-16T16:49:15.560Z</time>
      </trkpt>
      <trkpt lat="44.61418" lon="0.84988">
        <ele>170.57403564453</ele>
        <time>2020-08-16T16:49:11.031Z</time>
      </trkpt>
      <trkpt lat="44.61413" lon="0.84978">
        <ele>170.22789001465</ele>
        <time>2020-08-16T16:49:06.505Z</time>
      </trkpt>
      <trkpt lat="44.61405" lon="0.84955">
        <ele>169.65440368652</ele>
        <time>2020-08-16T16:49:01.981Z</time>
      </trkpt>
      <trkpt lat="44.61397" lon="0.84934">
        <ele>169.27053833008</ele>
        <time>2020-08-16T16:48:57.461Z</time>
      </trkpt>
      <trkpt lat="44.61393" lon="0.84924">
        <ele>169.05703735352</ele>
        <time>2020-08-16T16:48:52.945Z</time>
      </trkpt>
      <trkpt lat="44.61384" lon="0.84903">
        <ele>168.74830627441</ele>
        <time>2020-08-16T16:48:48.431Z</time>
      </trkpt>
      <trkpt lat="44.61376" lon="0.84877">
        <ele>168.50161743164</ele>
        <time>2020-08-16T16:48:43.922Z</time>
      </trkpt>
      <trkpt lat="44.61373" lon="0.8486">
        <ele>168.45826721191</ele>
        <time>2020-08-16T16:48:39.418Z</time>
      </trkpt>
      <trkpt lat="44.61368" lon="0.84838">
        <ele>168.36833190918</ele>
        <time>2020-08-16T16:48:34.917Z</time>
      </trkpt>
      <trkpt lat="44.61368" lon="0.84825">
        <ele>168.22010803223</ele>
        <time>2020-08-16T16:48:30.420Z</time>
      </trkpt>
      <trkpt lat="44.61369" lon="0.84822">
        <ele>168.1919708252</ele>
        <time>2020-08-16T16:48:25.925Z</time>
      </trkpt>
      <trkpt lat="44.61369" lon="0.84816">
        <ele>168.08375549316</ele>
        <time>2020-08-16T16:48:21.431Z</time>
      </trkpt>
      <trkpt lat="44.61369" lon="0.84813">
        <ele>168.08332824707</ele>
        <time>2020-08-16T16:48:16.938Z</time>
      </trkpt>
      <trkpt lat="44.61366" lon="0.84809">
        <ele>167.97190856934</ele>
        <time>2020-08-16T16:48:12.445Z</time>
      </trkpt>
      <trkpt lat="44.61361" lon="0.84806">
        <ele>167.81964111328</ele>
        <time>2020-08-16T16:48:07.953Z</time>
      </trkpt>
      <trkpt lat="44.6135" lon="0.84797">
        <ele>167.00886535645</ele>
        <time>2020-08-16T16:48:03.462Z</time>
      </trkpt>
      <trkpt lat="44.61341" lon="0.8479">
        <ele>166.37449645996</ele>
        <time>2020-08-16T16:47:58.975Z</time>
      </trkpt>
      <trkpt lat="44.61338" lon="0.84785">
        <ele>166.03187561035</ele>
        <time>2020-08-16T16:47:54.490Z</time>
      </trkpt>
      <trkpt lat="44.61333" lon="0.84775">
        <ele>165.2855682373</ele>
        <time>2020-08-16T16:47:50.006Z</time>
      </trkpt>
      <trkpt lat="44.61322" lon="0.84755">
        <ele>163.91326904297</ele>
        <time>2020-08-16T16:47:45.524Z</time>
      </trkpt>
      <trkpt lat="44.61315" lon="0.84744">
        <ele>163.11045837402</ele>
        <time>2020-08-16T16:47:41.047Z</time>
      </trkpt>
      <trkpt lat="44.61309" lon="0.8474">
        <ele>162.68466186523</ele>
        <time>2020-08-16T16:47:36.572Z</time>
      </trkpt>
      <trkpt lat="44.61305" lon="0.84732">
        <ele>162.20083618164</ele>
        <time>2020-08-16T16:47:32.099Z</time>
      </trkpt>
      <trkpt lat="44.61304" lon="0.8473">
        <ele>162.02383422852</ele>
        <time>2020-08-16T16:47:27.628Z</time>
      </trkpt>
      <trkpt lat="44.61299" lon="0.84721">
        <ele>161.43930053711</ele>
        <time>2020-08-16T16:47:23.157Z</time>
      </trkpt>
      <trkpt lat="44.61296" lon="0.84715">
        <ele>161.14363098145</ele>
        <time>2020-08-16T16:47:18.688Z</time>
      </trkpt>
      <trkpt lat="44.61297" lon="0.8471">
        <ele>160.98313903809</ele>
        <time>2020-08-16T16:47:14.220Z</time>
      </trkpt>
      <trkpt lat="44.6129" lon="0.847">
        <ele>160.34625244141</ele>
        <time>2020-08-16T16:47:09.753Z</time>
      </trkpt>
      <trkpt lat="44.61283" lon="0.84695">
        <ele>160.05534362793</ele>
        <time>2020-08-16T16:47:05.289Z</time>
      </trkpt>
      <trkpt lat="44.61277" lon="0.84693">
        <ele>160.02870178223</ele>
        <time>2020-08-16T16:47:00.827Z</time>
      </trkpt>
      <trkpt lat="44.61274" lon="0.8469">
        <ele>159.96322631836</ele>
        <time>2020-08-16T16:46:56.366Z</time>
      </trkpt>
      <trkpt lat="44.61266" lon="0.84689">
        <ele>160.01441955566</ele>
        <time>2020-08-16T16:46:51.906Z</time>
      </trkpt>
      <trkpt lat="44.61254" lon="0.84688">
        <ele>160.1499786377</ele>
        <time>2020-08-16T16:46:47.448Z</time>
      </trkpt>
      <trkpt lat="44.61247" lon="0.84688">
        <ele>160.26832580566</ele>
        <time>2020-08-16T16:46:42.993Z</time>
      </trkpt>
      <trkpt lat="44.6124" lon="0.84689">
        <ele>160.44873046875</ele>
        <time>2020-08-16T16:46:38.540Z</time>
      </trkpt>
      <trkpt lat="44.61235" lon="0.84691">
        <ele>160.67057800293</ele>
        <time>2020-08-16T16:46:34.088Z</time>
      </trkpt>
      <trkpt lat="44.61225" lon="0.84693">
        <ele>161.0163269043</ele>
        <time>2020-08-16T16:46:29.638Z</time>
      </trkpt>
      <trkpt lat="44.6121" lon="0.84689">
        <ele>161.21624755859</ele>
        <time>2020-08-16T16:46:25.190Z</time>
      </trkpt>
      <trkpt lat="44.61198" lon="0.8469">
        <ele>161.46513366699</ele>
        <time>2020-08-16T16:46:20.746Z</time>
      </trkpt>
      <trkpt lat="44.61191" lon="0.84691">
        <ele>161.49168395996</ele>
        <time>2020-08-16T16:46:16.305Z</time>
      </trkpt>
      <trkpt lat="44.61182" lon="0.84689">
        <ele>161.38066101074</ele>
        <time>2020-08-16T16:46:11.865Z</time>
      </trkpt>
      <trkpt lat="44.61169" lon="0.84672">
        <ele>160.55480957031</ele>
        <time>2020-08-16T16:46:07.428Z</time>
      </trkpt>
      <trkpt lat="44.61167" lon="0.84667">
        <ele>160.3472442627</ele>
        <time>2020-08-16T16:46:02.995Z</time>
      </trkpt>
      <trkpt lat="44.6116" lon="0.84661">
        <ele>160.03709411621</ele>
        <time>2020-08-16T16:45:58.563Z</time>
      </trkpt>
      <trkpt lat="44.61146" lon="0.8465">
        <ele>159.52540588379</ele>
        <time>2020-08-16T16:45:54.133Z</time>
      </trkpt>
      <trkpt lat="44.61133" lon="0.84641">
        <ele>159.09901428223</ele>
        <time>2020-08-16T16:45:49.707Z</time>
      </trkpt>
      <trkpt lat="44.6113" lon="0.84635">
        <ele>158.78443908691</ele>
        <time>2020-08-16T16:45:45.284Z</time>
      </trkpt>
      <trkpt lat="44.61122" lon="0.84623">
        <ele>158.20719909668</ele>
        <time>2020-08-16T16:45:40.863Z</time>
      </trkpt>
      <trkpt lat="44.61118" lon="0.84621">
        <ele>158.1616973877</ele>
        <time>2020-08-16T16:45:36.445Z</time>
      </trkpt>
      <trkpt lat="44.61115" lon="0.8462">
        <ele>158.21199035645</ele>
        <time>2020-08-16T16:45:32.028Z</time>
      </trkpt>
      <trkpt lat="44.61114" lon="0.84617">
        <ele>158.17819213867</ele>
        <time>2020-08-16T16:45:27.612Z</time>
      </trkpt>
      <trkpt lat="44.6111" lon="0.84613">
        <ele>158.14279174805</ele>
        <time>2020-08-16T16:45:23.196Z</time>
      </trkpt>
      <trkpt lat="44.61109" lon="0.8461">
        <ele>158.0651550293</ele>
        <time>2020-08-16T16:45:18.781Z</time>
      </trkpt>
      <trkpt lat="44.61106" lon="0.84594">
        <ele>157.42073059082</ele>
        <time>2020-08-16T16:45:14.367Z</time>
      </trkpt>
      <trkpt lat="44.61107" lon="0.84576">
        <ele>156.48988342285</ele>
        <time>2020-08-16T16:45:09.956Z</time>
      </trkpt>
      <trkpt lat="44.61109" lon="0.84568">
        <ele>156.05223083496</ele>
        <time>2020-08-16T16:45:05.548Z</time>
      </trkpt>
      <trkpt lat="44.61108" lon="0.84563">
        <ele>155.88569641113</ele>
        <time>2020-08-16T16:45:01.141Z</time>
      </trkpt>
      <trkpt lat="44.611" lon="0.84541">
        <ele>155.0143737793</ele>
        <time>2020-08-16T16:44:56.735Z</time>
      </trkpt>
      <trkpt lat="44.61094" lon="0.84522">
        <ele>154.59057617188</ele>
        <time>2020-08-16T16:44:52.333Z</time>
      </trkpt>
      <trkpt lat="44.61087" lon="0.84509">
        <ele>154.43812561035</ele>
        <time>2020-08-16T16:44:47.935Z</time>
      </trkpt>
      <trkpt lat="44.61085" lon="0.84504">
        <ele>154.3752746582</ele>
        <time>2020-08-16T16:44:43.540Z</time>
      </trkpt>
      <trkpt lat="44.6108" lon="0.84494">
        <ele>154.2578125</ele>
        <time>2020-08-16T16:44:39.146Z</time>
      </trkpt>
      <trkpt lat="44.61078" lon="0.8449">
        <ele>154.21073913574</ele>
        <time>2020-08-16T16:44:34.754Z</time>
      </trkpt>
      <trkpt lat="44.61072" lon="0.84477">
        <ele>154.05123901367</ele>
        <time>2020-08-16T16:44:30.363Z</time>
      </trkpt>
      <trkpt lat="44.61065" lon="0.84468">
        <ele>153.82881164551</ele>
        <time>2020-08-16T16:44:25.975Z</time>
      </trkpt>
      <trkpt lat="44.61062" lon="0.84468">
        <ele>153.85565185547</ele>
        <time>2020-08-16T16:44:21.589Z</time>
      </trkpt>
      <trkpt lat="44.61058" lon="0.84472">
        <ele>154.00015258789</ele>
        <time>2020-08-16T16:44:17.204Z</time>
      </trkpt>
      <trkpt lat="44.61055" lon="0.8448">
        <ele>154.08493041992</ele>
        <time>2020-08-16T16:44:12.820Z</time>
      </trkpt>
      <trkpt lat="44.61047" lon="0.84508">
        <ele>155.56195068359</ele>
        <time>2020-08-16T16:44:08.438Z</time>
      </trkpt>
      <trkpt lat="44.61045" lon="0.84519">
        <ele>156.3084564209</ele>
        <time>2020-08-16T16:44:04.061Z</time>
      </trkpt>
      <trkpt lat="44.61041" lon="0.8455">
        <ele>158.41198730469</ele>
        <time>2020-08-16T16:43:59.686Z</time>
      </trkpt>
      <trkpt lat="44.61034" lon="0.84593">
        <ele>159.92704772949</ele>
        <time>2020-08-16T16:43:55.316Z</time>
      </trkpt>
      <trkpt lat="44.61026" lon="0.84642">
        <ele>161.42761230469</ele>
        <time>2020-08-16T16:43:50.954Z</time>
      </trkpt>
      <trkpt lat="44.61024" lon="0.8465">
        <ele>161.79537963867</ele>
        <time>2020-08-16T16:43:46.601Z</time>
      </trkpt>
      <trkpt lat="44.61018" lon="0.84666">
        <ele>162.56561279297</ele>
        <time>2020-08-16T16:43:42.249Z</time>
      </trkpt>
      <trkpt lat="44.61005" lon="0.84686">
        <ele>163.7470703125</ele>
        <time>2020-08-16T16:43:37.901Z</time>
      </trkpt>
      <trkpt lat="44.61001" lon="0.84692">
        <ele>164.1368560791</ele>
        <time>2020-08-16T16:43:33.557Z</time>
      </trkpt>
      <trkpt lat="44.60996" lon="0.84696">
        <ele>164.46994018555</ele>
        <time>2020-08-16T16:43:29.215Z</time>
      </trkpt>
      <trkpt lat="44.60979" lon="0.84692">
        <ele>164.90950012207</ele>
        <time>2020-08-16T16:43:24.874Z</time>
      </trkpt>
      <trkpt lat="44.6097" lon="0.8469">
        <ele>165.18435668945</ele>
        <time>2020-08-16T16:43:20.537Z</time>
      </trkpt>
      <trkpt lat="44.60963" lon="0.84686">
        <ele>165.30986022949</ele>
        <time>2020-08-16T16:43:16.203Z</time>
      </trkpt>
      <trkpt lat="44.60956" lon="0.8468">
        <ele>165.330078125</ele>
        <time>2020-08-16T16:43:11.871Z</time>
      </trkpt>
      <trkpt lat="44.60948" lon="0.84675">
        <ele>165.3914642334</ele>
        <time>2020-08-16T16:43:07.540Z</time>
      </trkpt>
      <trkpt lat="44.60938" lon="0.84677">
        <ele>165.70010375977</ele>
        <time>2020-08-16T16:43:03.212Z</time>
      </trkpt>
      <trkpt lat="44.60929" lon="0.84687">
        <ele>166.25473022461</ele>
        <time>2020-08-16T16:42:58.886Z</time>
      </trkpt>
      <trkpt lat="44.60916" lon="0.847">
        <ele>166.42422485352</ele>
        <time>2020-08-16T16:42:54.563Z</time>
      </trkpt>
      <trkpt lat="44.60907" lon="0.84705">
        <ele>166.14364624023</ele>
        <time>2020-08-16T16:42:50.244Z</time>
      </trkpt>
      <trkpt lat="44.60892" lon="0.84717">
        <ele>165.63165283203</ele>
        <time>2020-08-16T16:42:45.927Z</time>
      </trkpt>
      <trkpt lat="44.6089" lon="0.84717">
        <ele>165.56941223145</ele>
        <time>2020-08-16T16:42:41.615Z</time>
      </trkpt>
      <trkpt lat="44.60882" lon="0.84702">
        <ele>165.58540344238</ele>
        <time>2020-08-16T16:42:37.303Z</time>
      </trkpt>
      <trkpt lat="44.60876" lon="0.84684">
        <ele>165.65267944336</ele>
        <time>2020-08-16T16:42:32.994Z</time>
      </trkpt>
      <trkpt lat="44.60874" lon="0.84675">
        <ele>165.69802856445</ele>
        <time>2020-08-16T16:42:28.689Z</time>
      </trkpt>
      <trkpt lat="44.60873" lon="0.84673">
        <ele>165.6964263916</ele>
        <time>2020-08-16T16:42:24.385Z</time>
      </trkpt>
      <trkpt lat="44.60866" lon="0.84667">
        <ele>165.69715881348</ele>
        <time>2020-08-16T16:42:20.082Z</time>
      </trkpt>
      <trkpt lat="44.60864" lon="0.84665">
        <ele>165.74493408203</ele>
        <time>2020-08-16T16:42:15.781Z</time>
      </trkpt>
      <trkpt lat="44.60857" lon="0.84658">
        <ele>165.90684509277</ele>
        <time>2020-08-16T16:42:11.481Z</time>
      </trkpt>
      <trkpt lat="44.60849" lon="0.84654">
        <ele>166.06332397461</ele>
        <time>2020-08-16T16:42:07.183Z</time>
      </trkpt>
      <trkpt lat="44.60833" lon="0.84643">
        <ele>166.37446594238</ele>
        <time>2020-08-16T16:42:02.887Z</time>
      </trkpt>
      <trkpt lat="44.60831" lon="0.84641">
        <ele>166.43168640137</ele>
        <time>2020-08-16T16:41:58.595Z</time>
      </trkpt>
      <trkpt lat="44.60827" lon="0.84636">
        <ele>166.41987609863</ele>
        <time>2020-08-16T16:41:54.304Z</time>
      </trkpt>
      <trkpt lat="44.60822" lon="0.84627">
        <ele>166.27253723145</ele>
        <time>2020-08-16T16:41:50.014Z</time>
      </trkpt>
      <trkpt lat="44.60813" lon="0.84618">
        <ele>166.14924621582</ele>
        <time>2020-08-16T16:41:45.726Z</time>
      </trkpt>
      <trkpt lat="44.60808" lon="0.84612">
        <ele>166.08126831055</ele>
        <time>2020-08-16T16:41:41.441Z</time>
      </trkpt>
      <trkpt lat="44.60802" lon="0.846">
        <ele>165.87298583984</ele>
        <time>2020-08-16T16:41:37.157Z</time>
      </trkpt>
      <trkpt lat="44.60799" lon="0.84594">
        <ele>165.74305725098</ele>
        <time>2020-08-16T16:41:32.876Z</time>
      </trkpt>
      <trkpt lat="44.60784" lon="0.84555">
        <ele>164.94636535645</ele>
        <time>2020-08-16T16:41:28.596Z</time>
      </trkpt>
      <trkpt lat="44.60766" lon="0.84531">
        <ele>163.80239868164</ele>
        <time>2020-08-16T16:41:24.324Z</time>
      </trkpt>
      <trkpt lat="44.60762" lon="0.84527">
        <ele>163.6008605957</ele>
        <time>2020-08-16T16:41:20.058Z</time>
      </trkpt>
      <trkpt lat="44.60752" lon="0.8451">
        <ele>162.80438232422</ele>
        <time>2020-08-16T16:41:15.793Z</time>
      </trkpt>
      <trkpt lat="44.60741" lon="0.84497">
        <ele>162.16075134277</ele>
        <time>2020-08-16T16:41:11.532Z</time>
      </trkpt>
      <trkpt lat="44.60725" lon="0.84487">
        <ele>161.68487548828</ele>
        <time>2020-08-16T16:41:07.275Z</time>
      </trkpt>
      <trkpt lat="44.6071" lon="0.84471">
        <ele>161</ele>
        <time>2020-08-16T16:41:03.022Z</time>
      </trkpt>
      <trkpt lat="44.60698" lon="0.84455">
        <ele>160.81280517578</ele>
        <time>2020-08-16T16:40:58.774Z</time>
      </trkpt>
      <trkpt lat="44.60684" lon="0.84437">
        <ele>160.14987182617</ele>
        <time>2020-08-16T16:40:54.530Z</time>
      </trkpt>
      <trkpt lat="44.60675" lon="0.84423">
        <ele>159.73031616211</ele>
        <time>2020-08-16T16:40:50.290Z</time>
      </trkpt>
      <trkpt lat="44.60667" lon="0.84411">
        <ele>159.34976196289</ele>
        <time>2020-08-16T16:40:46.053Z</time>
      </trkpt>
      <trkpt lat="44.60665" lon="0.84406">
        <ele>159.23431396484</ele>
        <time>2020-08-16T16:40:41.819Z</time>
      </trkpt>
      <trkpt lat="44.60661" lon="0.84399">
        <ele>159.02313232422</ele>
        <time>2020-08-16T16:40:37.586Z</time>
      </trkpt>
      <trkpt lat="44.60653" lon="0.84389">
        <ele>158.67562866211</ele>
        <time>2020-08-16T16:40:33.355Z</time>
      </trkpt>
      <trkpt lat="44.60651" lon="0.84384">
        <ele>158.43910217285</ele>
        <time>2020-08-16T16:40:29.127Z</time>
      </trkpt>
      <trkpt lat="44.60649" lon="0.84381">
        <ele>158.24459838867</ele>
        <time>2020-08-16T16:40:24.900Z</time>
      </trkpt>
      <trkpt lat="44.60641" lon="0.84371">
        <ele>157.6725769043</ele>
        <time>2020-08-16T16:40:20.673Z</time>
      </trkpt>
      <trkpt lat="44.60638" lon="0.84368">
        <ele>157.44067382812</ele>
        <time>2020-08-16T16:40:16.449Z</time>
      </trkpt>
      <trkpt lat="44.60634" lon="0.84361">
        <ele>157.09091186523</ele>
        <time>2020-08-16T16:40:12.226Z</time>
      </trkpt>
      <trkpt lat="44.60633" lon="0.84357">
        <ele>156.91914367676</ele>
        <time>2020-08-16T16:40:08.004Z</time>
      </trkpt>
      <trkpt lat="44.60633" lon="0.84348">
        <ele>156.7445526123</ele>
        <time>2020-08-16T16:40:03.783Z</time>
      </trkpt>
      <trkpt lat="44.60634" lon="0.84346">
        <ele>156.70916748047</ele>
        <time>2020-08-16T16:39:59.564Z</time>
      </trkpt>
      <trkpt lat="44.60635" lon="0.8434">
        <ele>156.65043640137</ele>
        <time>2020-08-16T16:39:55.345Z</time>
      </trkpt>
      <trkpt lat="44.60636" lon="0.84338">
        <ele>156.62710571289</ele>
        <time>2020-08-16T16:39:51.127Z</time>
      </trkpt>
      <trkpt lat="44.60638" lon="0.84329">
        <ele>156.50662231445</ele>
        <time>2020-08-16T16:39:46.910Z</time>
      </trkpt>
      <trkpt lat="44.60638" lon="0.84326">
        <ele>156.44728088379</ele>
        <time>2020-08-16T16:39:42.694Z</time>
      </trkpt>
      <trkpt lat="44.60635" lon="0.84311">
        <ele>155.6364440918</ele>
        <time>2020-08-16T16:39:38.479Z</time>
      </trkpt>
      <trkpt lat="44.60632" lon="0.84305">
        <ele>155.27621459961</ele>
        <time>2020-08-16T16:39:34.267Z</time>
      </trkpt>
      <trkpt lat="44.60628" lon="0.84297">
        <ele>154.43467712402</ele>
        <time>2020-08-16T16:39:30.056Z</time>
      </trkpt>
      <trkpt lat="44.60622" lon="0.84286">
        <ele>153.20977783203</ele>
        <time>2020-08-16T16:39:25.847Z</time>
      </trkpt>
      <trkpt lat="44.60618" lon="0.84272">
        <ele>151.73937988281</ele>
        <time>2020-08-16T16:39:21.640Z</time>
      </trkpt>
      <trkpt lat="44.60614" lon="0.84252">
        <ele>149.63754272461</ele>
        <time>2020-08-16T16:39:17.436Z</time>
      </trkpt>
      <trkpt lat="44.60609" lon="0.84235">
        <ele>147.7774810791</ele>
        <time>2020-08-16T16:39:13.235Z</time>
      </trkpt>
      <trkpt lat="44.606" lon="0.84221">
        <ele>146.11408996582</ele>
        <time>2020-08-16T16:39:09.037Z</time>
      </trkpt>
      <trkpt lat="44.60588" lon="0.84213">
        <ele>145.66143798828</ele>
        <time>2020-08-16T16:39:04.843Z</time>
      </trkpt>
      <trkpt lat="44.60584" lon="0.84209">
        <ele>145.4947052002</ele>
        <time>2020-08-16T16:39:00.652Z</time>
      </trkpt>
      <trkpt lat="44.60583" lon="0.84201">
        <ele>145.53201293945</ele>
        <time>2020-08-16T16:38:56.462Z</time>
      </trkpt>
      <trkpt lat="44.60587" lon="0.84186">
        <ele>145.88291931152</ele>
        <time>2020-08-16T16:38:52.274Z</time>
      </trkpt>
      <trkpt lat="44.60595" lon="0.84166">
        <ele>146.1653137207</ele>
        <time>2020-08-16T16:38:48.089Z</time>
      </trkpt>
      <trkpt lat="44.60597" lon="0.8416">
        <ele>146.24374389648</ele>
        <time>2020-08-16T16:38:43.908Z</time>
      </trkpt>
      <trkpt lat="44.60599" lon="0.84148">
        <ele>146.31103515625</ele>
        <time>2020-08-16T16:38:39.728Z</time>
      </trkpt>
      <trkpt lat="44.60591" lon="0.84139">
        <ele>146.02049255371</ele>
        <time>2020-08-16T16:38:35.550Z</time>
      </trkpt>
      <trkpt lat="44.60585" lon="0.84135">
        <ele>146.10231018066</ele>
        <time>2020-08-16T16:38:31.374Z</time>
      </trkpt>
      <trkpt lat="44.60537" lon="0.84109">
        <ele>146.24229431152</ele>
        <time>2020-08-16T16:38:27.200Z</time>
      </trkpt>
      <trkpt lat="44.60514" lon="0.84095">
        <ele>146.38349914551</ele>
        <time>2020-08-16T16:38:23.039Z</time>
      </trkpt>
      <trkpt lat="44.60503" lon="0.84081">
        <ele>147.02038574219</ele>
        <time>2020-08-16T16:38:18.884Z</time>
      </trkpt>
      <trkpt lat="44.60498" lon="0.8407">
        <ele>147.60205078125</ele>
        <time>2020-08-16T16:38:14.733Z</time>
      </trkpt>
      <trkpt lat="44.60494" lon="0.84052">
        <ele>148.44258117676</ele>
        <time>2020-08-16T16:38:10.584Z</time>
      </trkpt>
      <trkpt lat="44.60482" lon="0.84046">
        <ele>147.8641204834</ele>
        <time>2020-08-16T16:38:06.438Z</time>
      </trkpt>
      <trkpt lat="44.60466" lon="0.84051">
        <ele>147.42384338379</ele>
        <time>2020-08-16T16:38:02.295Z</time>
      </trkpt>
      <trkpt lat="44.60442" lon="0.84065">
        <ele>146.56207275391</ele>
        <time>2020-08-16T16:37:58.156Z</time>
      </trkpt>
      <trkpt lat="44.60411" lon="0.84078">
        <ele>145.71229553223</ele>
        <time>2020-08-16T16:37:54.024Z</time>
      </trkpt>
      <trkpt lat="44.60407" lon="0.84079">
        <ele>145.6275177002</ele>
        <time>2020-08-16T16:37:49.900Z</time>
      </trkpt>
      <trkpt lat="44.60395" lon="0.84083">
        <ele>145.33128356934</ele>
        <time>2020-08-16T16:37:45.777Z</time>
      </trkpt>
      <trkpt lat="44.60391" lon="0.84084">
        <ele>145.19491577148</ele>
        <time>2020-08-16T16:37:41.657Z</time>
      </trkpt>
      <trkpt lat="44.60387" lon="0.84084">
        <ele>145.09898376465</ele>
        <time>2020-08-16T16:37:37.538Z</time>
      </trkpt>
      <trkpt lat="44.60378" lon="0.84082">
        <ele>144.99118041992</ele>
        <time>2020-08-16T16:37:33.420Z</time>
      </trkpt>
      <trkpt lat="44.60366" lon="0.84081">
        <ele>144.62184143066</ele>
        <time>2020-08-16T16:37:29.304Z</time>
      </trkpt>
      <trkpt lat="44.60348" lon="0.84087">
        <ele>143.2788848877</ele>
        <time>2020-08-16T16:37:25.191Z</time>
      </trkpt>
      <trkpt lat="44.60337" lon="0.84089">
        <ele>142.53086853027</ele>
        <time>2020-08-16T16:37:21.082Z</time>
      </trkpt>
      <trkpt lat="44.60328" lon="0.84093">
        <ele>141.78356933594</ele>
        <time>2020-08-16T16:37:16.976Z</time>
      </trkpt>
      <trkpt lat="44.60316" lon="0.84097">
        <ele>140.87294006348</ele>
        <time>2020-08-16T16:37:12.873Z</time>
      </trkpt>
      <trkpt lat="44.60302" lon="0.84102">
        <ele>139.76530456543</ele>
        <time>2020-08-16T16:37:08.773Z</time>
      </trkpt>
      <trkpt lat="44.60291" lon="0.84105">
        <ele>139.03700256348</ele>
        <time>2020-08-16T16:37:04.676Z</time>
      </trkpt>
      <trkpt lat="44.60277" lon="0.84104">
        <ele>137.75971984863</ele>
        <time>2020-08-16T16:37:00.582Z</time>
      </trkpt>
      <trkpt lat="44.60268" lon="0.84102">
        <ele>136.69692993164</ele>
        <time>2020-08-16T16:36:56.491Z</time>
      </trkpt>
      <trkpt lat="44.6026" lon="0.841">
        <ele>135.90246582031</ele>
        <time>2020-08-16T16:36:52.403Z</time>
      </trkpt>
      <trkpt lat="44.60255" lon="0.841">
        <ele>135.26387023926</ele>
        <time>2020-08-16T16:36:48.316Z</time>
      </trkpt>
      <trkpt lat="44.60246" lon="0.84099">
        <ele>134.23446655273</ele>
        <time>2020-08-16T16:36:44.231Z</time>
      </trkpt>
      <trkpt lat="44.60235" lon="0.8409">
        <ele>133.31187438965</ele>
        <time>2020-08-16T16:36:40.148Z</time>
      </trkpt>
      <trkpt lat="44.60223" lon="0.84084">
        <ele>132.25411987305</ele>
        <time>2020-08-16T16:36:36.068Z</time>
      </trkpt>
      <trkpt lat="44.60214" lon="0.84078">
        <ele>131.39991760254</ele>
        <time>2020-08-16T16:36:31.991Z</time>
      </trkpt>
      <trkpt lat="44.60211" lon="0.84078">
        <ele>131.06805419922</ele>
        <time>2020-08-16T16:36:27.917Z</time>
      </trkpt>
      <trkpt lat="44.60208" lon="0.84078">
        <ele>130.68811035156</ele>
        <time>2020-08-16T16:36:23.843Z</time>
      </trkpt>
      <trkpt lat="44.60204" lon="0.84078">
        <ele>130.26290893555</ele>
        <time>2020-08-16T16:36:19.770Z</time>
      </trkpt>
      <trkpt lat="44.602" lon="0.84082">
        <ele>129.57437133789</ele>
        <time>2020-08-16T16:36:15.698Z</time>
      </trkpt>
      <trkpt lat="44.60193" lon="0.84093">
        <ele>128.45626831055</ele>
        <time>2020-08-16T16:36:11.627Z</time>
      </trkpt>
      <trkpt lat="44.60187" lon="0.841">
        <ele>127.62539672852</ele>
        <time>2020-08-16T16:36:07.559Z</time>
      </trkpt>
      <trkpt lat="44.60182" lon="0.84102">
        <ele>127.14408874512</ele>
        <time>2020-08-16T16:36:03.493Z</time>
      </trkpt>
      <trkpt lat="44.60176" lon="0.841">
        <ele>126.73518371582</ele>
        <time>2020-08-16T16:35:59.428Z</time>
      </trkpt>
      <trkpt lat="44.60173" lon="0.84102">
        <ele>126.38290405273</ele>
        <time>2020-08-16T16:35:55.365Z</time>
      </trkpt>
      <trkpt lat="44.60171" lon="0.8411">
        <ele>125.99461364746</ele>
        <time>2020-08-16T16:35:51.302Z</time>
      </trkpt>
      <trkpt lat="44.6017" lon="0.84122">
        <ele>126.53997802734</ele>
        <time>2020-08-16T16:35:47.241Z</time>
      </trkpt>
      <trkpt lat="44.60164" lon="0.84133">
        <ele>127.16841888428</ele>
        <time>2020-08-16T16:35:43.182Z</time>
      </trkpt>
      <trkpt lat="44.60154" lon="0.84142">
        <ele>127.61521148682</ele>
        <time>2020-08-16T16:35:39.126Z</time>
      </trkpt>
      <trkpt lat="44.60143" lon="0.84146">
        <ele>127.79100036621</ele>
        <time>2020-08-16T16:35:35.072Z</time>
      </trkpt>
      <trkpt lat="44.60139" lon="0.84157">
        <ele>127.97936248779</ele>
        <time>2020-08-16T16:35:31.021Z</time>
      </trkpt>
      <trkpt lat="44.60138" lon="0.84165">
        <ele>128.2289276123</ele>
        <time>2020-08-16T16:35:26.972Z</time>
      </trkpt>
      <trkpt lat="44.60127" lon="0.84217">
        <ele>130.47959899902</ele>
        <time>2020-08-16T16:35:22.925Z</time>
      </trkpt>
      <trkpt lat="44.60113" lon="0.84263">
        <ele>133.49743652344</ele>
        <time>2020-08-16T16:35:18.887Z</time>
      </trkpt>
      <trkpt lat="44.60107" lon="0.84278">
        <ele>134.78227233887</ele>
        <time>2020-08-16T16:35:14.858Z</time>
      </trkpt>
      <trkpt lat="44.60099" lon="0.8429">
        <ele>135.85589599609</ele>
        <time>2020-08-16T16:35:10.832Z</time>
      </trkpt>
      <trkpt lat="44.6009" lon="0.84297">
        <ele>135.8941192627</ele>
        <time>2020-08-16T16:35:06.809Z</time>
      </trkpt>
      <trkpt lat="44.60087" lon="0.84298">
        <ele>135.95022583008</ele>
        <time>2020-08-16T16:35:02.788Z</time>
      </trkpt>
      <trkpt lat="44.6008" lon="0.84294">
        <ele>136.21672058105</ele>
        <time>2020-08-16T16:34:58.768Z</time>
      </trkpt>
      <trkpt lat="44.60075" lon="0.84288">
        <ele>136.45385742188</ele>
        <time>2020-08-16T16:34:54.750Z</time>
      </trkpt>
      <trkpt lat="44.60064" lon="0.84274">
        <ele>137.07536315918</ele>
        <time>2020-08-16T16:34:50.734Z</time>
      </trkpt>
      <trkpt lat="44.60056" lon="0.84267">
        <ele>137.41607666016</ele>
        <time>2020-08-16T16:34:46.721Z</time>
      </trkpt>
      <trkpt lat="44.60048" lon="0.84263">
        <ele>137.69886779785</ele>
        <time>2020-08-16T16:34:42.711Z</time>
      </trkpt>
      <trkpt lat="44.60023" lon="0.84261">
        <ele>138.94152832031</ele>
        <time>2020-08-16T16:34:38.703Z</time>
      </trkpt>
      <trkpt lat="44.59984" lon="0.84258">
        <ele>141.94111633301</ele>
        <time>2020-08-16T16:34:34.701Z</time>
      </trkpt>
      <trkpt lat="44.5997" lon="0.8425">
        <ele>143.37879943848</ele>
        <time>2020-08-16T16:34:30.708Z</time>
      </trkpt>
      <trkpt lat="44.59964" lon="0.84243">
        <ele>143.95916748047</ele>
        <time>2020-08-16T16:34:26.719Z</time>
      </trkpt>
      <trkpt lat="44.59958" lon="0.84235">
        <ele>144.46240234375</ele>
        <time>2020-08-16T16:34:22.732Z</time>
      </trkpt>
      <trkpt lat="44.5994" lon="0.84193">
        <ele>145.38386535645</ele>
        <time>2020-08-16T16:34:18.747Z</time>
      </trkpt>
      <trkpt lat="44.59921" lon="0.84148">
        <ele>146.1672668457</ele>
        <time>2020-08-16T16:34:14.771Z</time>
      </trkpt>
      <trkpt lat="44.59906" lon="0.8411">
        <ele>146.03038024902</ele>
        <time>2020-08-16T16:34:10.804Z</time>
      </trkpt>
      <trkpt lat="44.599" lon="0.84094">
        <ele>145.85258483887</ele>
        <time>2020-08-16T16:34:06.845Z</time>
      </trkpt>
      <trkpt lat="44.59898" lon="0.84089">
        <ele>145.76005554199</ele>
        <time>2020-08-16T16:34:02.889Z</time>
      </trkpt>
      <trkpt lat="44.59896" lon="0.84084">
        <ele>145.73069763184</ele>
        <time>2020-08-16T16:33:58.934Z</time>
      </trkpt>
      <trkpt lat="44.5988" lon="0.84057">
        <ele>146.80378723145</ele>
        <time>2020-08-16T16:33:54.980Z</time>
      </trkpt>
      <trkpt lat="44.59871" lon="0.84038">
        <ele>146.3391418457</ele>
        <time>2020-08-16T16:33:51.032Z</time>
      </trkpt>
      <trkpt lat="44.59866" lon="0.84028">
        <ele>146.05084228516</ele>
        <time>2020-08-16T16:33:47.088Z</time>
      </trkpt>
      <trkpt lat="44.59856" lon="0.84009">
        <ele>145.61126708984</ele>
        <time>2020-08-16T16:33:43.146Z</time>
      </trkpt>
      <trkpt lat="44.59852" lon="0.84005">
        <ele>145.58782958984</ele>
        <time>2020-08-16T16:33:39.208Z</time>
      </trkpt>
      <trkpt lat="44.59848" lon="0.84005">
        <ele>145.66738891602</ele>
        <time>2020-08-16T16:33:35.271Z</time>
      </trkpt>
      <trkpt lat="44.59835" lon="0.84022">
        <ele>146.58685302734</ele>
        <time>2020-08-16T16:33:31.335Z</time>
      </trkpt>
      <trkpt lat="44.59823" lon="0.8404">
        <ele>146.09042358398</ele>
        <time>2020-08-16T16:33:27.403Z</time>
      </trkpt>
      <trkpt lat="44.598" lon="0.84066">
        <ele>145.87184143066</ele>
        <time>2020-08-16T16:33:23.476Z</time>
      </trkpt>
      <trkpt lat="44.5979" lon="0.84084">
        <ele>146.77429199219</ele>
        <time>2020-08-16T16:33:19.556Z</time>
      </trkpt>
      <trkpt lat="44.59785" lon="0.8409">
        <ele>147.08302307129</ele>
        <time>2020-08-16T16:33:15.640Z</time>
      </trkpt>
      <trkpt lat="44.59764" lon="0.84114">
        <ele>148.49473571777</ele>
        <time>2020-08-16T16:33:11.726Z</time>
      </trkpt>
      <trkpt lat="44.5976" lon="0.8412">
        <ele>148.80267333984</ele>
        <time>2020-08-16T16:33:07.818Z</time>
      </trkpt>
      <trkpt lat="44.59755" lon="0.84128">
        <ele>149.10437011719</ele>
        <time>2020-08-16T16:33:03.912Z</time>
      </trkpt>
      <trkpt lat="44.59748" lon="0.84143">
        <ele>149.79359436035</ele>
        <time>2020-08-16T16:33:00.008Z</time>
      </trkpt>
      <trkpt lat="44.59744" lon="0.8415">
        <ele>150.14848327637</ele>
        <time>2020-08-16T16:32:56.107Z</time>
      </trkpt>
      <trkpt lat="44.59727" lon="0.84176">
        <ele>151.77348327637</ele>
        <time>2020-08-16T16:32:52.207Z</time>
      </trkpt>
      <trkpt lat="44.59718" lon="0.84189">
        <ele>152.97332763672</ele>
        <time>2020-08-16T16:32:48.313Z</time>
      </trkpt>
      <trkpt lat="44.59702" lon="0.84206">
        <ele>154.61285400391</ele>
        <time>2020-08-16T16:32:44.423Z</time>
      </trkpt>
      <trkpt lat="44.59691" lon="0.84218">
        <ele>155.03858947754</ele>
        <time>2020-08-16T16:32:40.538Z</time>
      </trkpt>
      <trkpt lat="44.59686" lon="0.84226">
        <ele>155.43437194824</ele>
        <time>2020-08-16T16:32:36.656Z</time>
      </trkpt>
      <trkpt lat="44.59678" lon="0.84241">
        <ele>155.74732971191</ele>
        <time>2020-08-16T16:32:32.776Z</time>
      </trkpt>
      <trkpt lat="44.59672" lon="0.84248">
        <ele>155.80284118652</ele>
        <time>2020-08-16T16:32:28.899Z</time>
      </trkpt>
      <trkpt lat="44.59659" lon="0.8426">
        <ele>155.75215148926</ele>
        <time>2020-08-16T16:32:25.024Z</time>
      </trkpt>
      <trkpt lat="44.59649" lon="0.84273">
        <ele>155.90783691406</ele>
        <time>2020-08-16T16:32:21.153Z</time>
      </trkpt>
      <trkpt lat="44.59643" lon="0.84286">
        <ele>156.20590209961</ele>
        <time>2020-08-16T16:32:17.285Z</time>
      </trkpt>
      <trkpt lat="44.59639" lon="0.84292">
        <ele>156.35313415527</ele>
        <time>2020-08-16T16:32:13.420Z</time>
      </trkpt>
      <trkpt lat="44.59637" lon="0.84298">
        <ele>156.5196685791</ele>
        <time>2020-08-16T16:32:09.556Z</time>
      </trkpt>
      <trkpt lat="44.59624" lon="0.84318">
        <ele>156.22315979004</ele>
        <time>2020-08-16T16:32:05.694Z</time>
      </trkpt>
      <trkpt lat="44.59616" lon="0.84326">
        <ele>156.3953704834</ele>
        <time>2020-08-16T16:32:01.836Z</time>
      </trkpt>
      <trkpt lat="44.5961" lon="0.84335">
        <ele>156.27932739258</ele>
        <time>2020-08-16T16:31:57.981Z</time>
      </trkpt>
      <trkpt lat="44.59592" lon="0.8435">
        <ele>155.81230163574</ele>
        <time>2020-08-16T16:31:54.128Z</time>
      </trkpt>
      <trkpt lat="44.59585" lon="0.84356">
        <ele>155.61331176758</ele>
        <time>2020-08-16T16:31:50.280Z</time>
      </trkpt>
      <trkpt lat="44.59555" lon="0.84383">
        <ele>155.48448181152</ele>
        <time>2020-08-16T16:26:05.720Z</time>
      </trkpt>
      <trkpt lat="44.59534" lon="0.84404">
        <ele>155.30038452148</ele>
        <time>2020-08-16T16:26:02.167Z</time>
      </trkpt>
      <trkpt lat="44.59511" lon="0.84428">
        <ele>154.76457214355</ele>
        <time>2020-08-16T16:25:58.620Z</time>
      </trkpt>
      <trkpt lat="44.59478" lon="0.84461">
        <ele>156.7281036377</ele>
        <time>2020-08-16T16:25:55.080Z</time>
      </trkpt>
      <trkpt lat="44.5946" lon="0.84481">
        <ele>158.11511230469</ele>
        <time>2020-08-16T16:25:51.550Z</time>
      </trkpt>
      <trkpt lat="44.5945" lon="0.84493">
        <ele>159.0696105957</ele>
        <time>2020-08-16T16:25:48.026Z</time>
      </trkpt>
      <trkpt lat="44.59446" lon="0.84497">
        <ele>158.86697387695</ele>
        <time>2020-08-16T16:25:44.505Z</time>
      </trkpt>
      <trkpt lat="44.59443" lon="0.84502">
        <ele>158.71310424805</ele>
        <time>2020-08-16T16:25:40.985Z</time>
      </trkpt>
      <trkpt lat="44.59433" lon="0.84514">
        <ele>158.22183227539</ele>
        <time>2020-08-16T16:25:37.467Z</time>
      </trkpt>
      <trkpt lat="44.59413" lon="0.84533">
        <ele>156.97532653809</ele>
        <time>2020-08-16T16:25:33.952Z</time>
      </trkpt>
      <trkpt lat="44.59395" lon="0.8455">
        <ele>155.85200500488</ele>
        <time>2020-08-16T16:25:30.443Z</time>
      </trkpt>
      <trkpt lat="44.59391" lon="0.84564">
        <ele>155.58862304688</ele>
        <time>2020-08-16T16:25:26.939Z</time>
      </trkpt>
      <trkpt lat="44.59392" lon="0.84571">
        <ele>155.53392028809</ele>
        <time>2020-08-16T16:25:23.438Z</time>
      </trkpt>
      <trkpt lat="44.59394" lon="0.84577">
        <ele>155.57635498047</ele>
        <time>2020-08-16T16:25:19.938Z</time>
      </trkpt>
      <trkpt lat="44.59398" lon="0.84594">
        <ele>155.77062988281</ele>
        <time>2020-08-16T16:25:16.439Z</time>
      </trkpt>
      <trkpt lat="44.594" lon="0.84599">
        <ele>155.89593505859</ele>
        <time>2020-08-16T16:25:12.943Z</time>
      </trkpt>
      <trkpt lat="44.59405" lon="0.84616">
        <ele>156.20808410645</ele>
        <time>2020-08-16T16:25:09.448Z</time>
      </trkpt>
      <trkpt lat="44.59408" lon="0.84629">
        <ele>156.40811157227</ele>
        <time>2020-08-16T16:25:05.956Z</time>
      </trkpt>
      <trkpt lat="44.59417" lon="0.8466">
        <ele>157.53659057617</ele>
        <time>2020-08-16T16:25:02.467Z</time>
      </trkpt>
      <trkpt lat="44.59431" lon="0.84713">
        <ele>159.69021606445</ele>
        <time>2020-08-16T16:24:58.984Z</time>
      </trkpt>
      <trkpt lat="44.59441" lon="0.8475">
        <ele>161.14611816406</ele>
        <time>2020-08-16T16:24:55.511Z</time>
      </trkpt>
      <trkpt lat="44.59443" lon="0.84765">
        <ele>161.57984924316</ele>
        <time>2020-08-16T16:24:52.044Z</time>
      </trkpt>
      <trkpt lat="44.59443" lon="0.8477">
        <ele>161.67156982422</ele>
        <time>2020-08-16T16:24:48.580Z</time>
      </trkpt>
      <trkpt lat="44.59443" lon="0.84775">
        <ele>161.67227172852</ele>
        <time>2020-08-16T16:24:45.117Z</time>
      </trkpt>
      <trkpt lat="44.59436" lon="0.84786">
        <ele>161.09181213379</ele>
        <time>2020-08-16T16:24:41.655Z</time>
      </trkpt>
      <trkpt lat="44.59422" lon="0.84801">
        <ele>161.20283508301</ele>
        <time>2020-08-16T16:24:38.196Z</time>
      </trkpt>
      <trkpt lat="44.59419" lon="0.84804">
        <ele>161.28952026367</ele>
        <time>2020-08-16T16:24:34.741Z</time>
      </trkpt>
      <trkpt lat="44.59412" lon="0.84817">
        <ele>161.36627197266</ele>
        <time>2020-08-16T16:24:31.287Z</time>
      </trkpt>
      <trkpt lat="44.59403" lon="0.84827">
        <ele>161.1693572998</ele>
        <time>2020-08-16T16:24:27.836Z</time>
      </trkpt>
      <trkpt lat="44.59402" lon="0.84828">
        <ele>161.13456726074</ele>
        <time>2020-08-16T16:24:24.387Z</time>
      </trkpt>
      <trkpt lat="44.59399" lon="0.84827">
        <ele>160.98472595215</ele>
        <time>2020-08-16T16:24:20.939Z</time>
      </trkpt>
      <trkpt lat="44.59398" lon="0.84826">
        <ele>160.8916015625</ele>
        <time>2020-08-16T16:24:17.491Z</time>
      </trkpt>
      <trkpt lat="44.5939" lon="0.84808">
        <ele>160.09873962402</ele>
        <time>2020-08-16T16:24:14.044Z</time>
      </trkpt>
      <trkpt lat="44.59382" lon="0.84796">
        <ele>158.9425201416</ele>
        <time>2020-08-16T16:24:10.600Z</time>
      </trkpt>
      <trkpt lat="44.59374" lon="0.84783">
        <ele>157.62670898438</ele>
        <time>2020-08-16T16:24:07.159Z</time>
      </trkpt>
      <trkpt lat="44.59372" lon="0.8478">
        <ele>157.29342651367</ele>
        <time>2020-08-16T16:24:03.721Z</time>
      </trkpt>
      <trkpt lat="44.5937" lon="0.84775">
        <ele>156.83444213867</ele>
        <time>2020-08-16T16:24:00.284Z</time>
      </trkpt>
      <trkpt lat="44.59367" lon="0.84771">
        <ele>156.47541809082</ele>
        <time>2020-08-16T16:23:56.848Z</time>
      </trkpt>
      <trkpt lat="44.59366" lon="0.8477">
        <ele>156.40612792969</ele>
        <time>2020-08-16T16:23:53.413Z</time>
      </trkpt>
      <trkpt lat="44.59364" lon="0.84769">
        <ele>156.30647277832</ele>
        <time>2020-08-16T16:23:49.978Z</time>
      </trkpt>
      <trkpt lat="44.59361" lon="0.84764">
        <ele>155.9129486084</ele>
        <time>2020-08-16T16:23:46.544Z</time>
      </trkpt>
      <trkpt lat="44.59359" lon="0.84761">
        <ele>155.67924499512</ele>
        <time>2020-08-16T16:23:43.111Z</time>
      </trkpt>
      <trkpt lat="44.59358" lon="0.8476">
        <ele>155.56579589844</ele>
        <time>2020-08-16T16:23:39.679Z</time>
      </trkpt>
      <trkpt lat="44.59355" lon="0.84753">
        <ele>155.01802062988</ele>
        <time>2020-08-16T16:23:36.247Z</time>
      </trkpt>
      <trkpt lat="44.5935" lon="0.84742">
        <ele>154.20021057129</ele>
        <time>2020-08-16T16:23:32.817Z</time>
      </trkpt>
      <trkpt lat="44.59343" lon="0.84721">
        <ele>152.69709777832</ele>
        <time>2020-08-16T16:23:29.389Z</time>
      </trkpt>
      <trkpt lat="44.59337" lon="0.84705">
        <ele>152.6257019043</ele>
        <time>2020-08-16T16:23:25.965Z</time>
      </trkpt>
      <trkpt lat="44.59336" lon="0.84699">
        <ele>152.6076965332</ele>
        <time>2020-08-16T16:23:22.544Z</time>
      </trkpt>
      <trkpt lat="44.59334" lon="0.84693">
        <ele>152.5856628418</ele>
        <time>2020-08-16T16:23:19.124Z</time>
      </trkpt>
      <trkpt lat="44.59325" lon="0.84669">
        <ele>152.35441589355</ele>
        <time>2020-08-16T16:23:15.705Z</time>
      </trkpt>
      <trkpt lat="44.59319" lon="0.84648">
        <ele>152.1070098877</ele>
        <time>2020-08-16T16:23:12.291Z</time>
      </trkpt>
      <trkpt lat="44.5931" lon="0.8462">
        <ele>151.76509094238</ele>
        <time>2020-08-16T16:23:08.881Z</time>
      </trkpt>
      <trkpt lat="44.59303" lon="0.84592">
        <ele>151.43392944336</ele>
        <time>2020-08-16T16:23:05.476Z</time>
      </trkpt>
      <trkpt lat="44.59302" lon="0.84584">
        <ele>151.3342590332</ele>
        <time>2020-08-16T16:23:02.077Z</time>
      </trkpt>
      <trkpt lat="44.59302" lon="0.84578">
        <ele>151.26417541504</ele>
        <time>2020-08-16T16:22:58.679Z</time>
      </trkpt>
      <trkpt lat="44.59303" lon="0.84553">
        <ele>151.24937438965</ele>
        <time>2020-08-16T16:22:55.282Z</time>
      </trkpt>
      <trkpt lat="44.59303" lon="0.84531">
        <ele>149.98243713379</ele>
        <time>2020-08-16T16:22:51.890Z</time>
      </trkpt>
      <trkpt lat="44.59307" lon="0.84503">
        <ele>148.38987731934</ele>
        <time>2020-08-16T16:22:48.501Z</time>
      </trkpt>
      <trkpt lat="44.59308" lon="0.84492">
        <ele>147.71176147461</ele>
        <time>2020-08-16T16:22:45.117Z</time>
      </trkpt>
      <trkpt lat="44.59306" lon="0.84473">
        <ele>146.53674316406</ele>
        <time>2020-08-16T16:22:41.735Z</time>
      </trkpt>
      <trkpt lat="44.59305" lon="0.84467">
        <ele>145.98797607422</ele>
        <time>2020-08-16T16:22:38.357Z</time>
      </trkpt>
      <trkpt lat="44.59301" lon="0.84443">
        <ele>143.87689208984</ele>
        <time>2020-08-16T16:22:34.980Z</time>
      </trkpt>
      <trkpt lat="44.59291" lon="0.84409">
        <ele>140.83215332031</ele>
        <time>2020-08-16T16:22:31.607Z</time>
      </trkpt>
      <trkpt lat="44.59288" lon="0.84403">
        <ele>140.28517150879</ele>
        <time>2020-08-16T16:22:28.240Z</time>
      </trkpt>
      <trkpt lat="44.59283" lon="0.84391">
        <ele>139.19436645508</ele>
        <time>2020-08-16T16:22:24.875Z</time>
      </trkpt>
      <trkpt lat="44.59275" lon="0.84378">
        <ele>139.32939147949</ele>
        <time>2020-08-16T16:22:21.512Z</time>
      </trkpt>
      <trkpt lat="44.59266" lon="0.84364">
        <ele>139.59759521484</ele>
        <time>2020-08-16T16:22:18.152Z</time>
      </trkpt>
      <trkpt lat="44.59253" lon="0.84352">
        <ele>140.07870483398</ele>
        <time>2020-08-16T16:22:14.795Z</time>
      </trkpt>
      <trkpt lat="44.59246" lon="0.84347">
        <ele>140.35807800293</ele>
        <time>2020-08-16T16:22:11.442Z</time>
      </trkpt>
      <trkpt lat="44.59218" lon="0.84321">
        <ele>141.41532897949</ele>
        <time>2020-08-16T16:22:08.091Z</time>
      </trkpt>
      <trkpt lat="44.5918" lon="0.84276">
        <ele>142.65370178223</ele>
        <time>2020-08-16T16:22:04.749Z</time>
      </trkpt>
      <trkpt lat="44.59166" lon="0.84253">
        <ele>143.07557678223</ele>
        <time>2020-08-16T16:22:01.419Z</time>
      </trkpt>
      <trkpt lat="44.59146" lon="0.84216">
        <ele>143.67729187012</ele>
        <time>2020-08-16T16:21:58.094Z</time>
      </trkpt>
      <trkpt lat="44.59116" lon="0.84148">
        <ele>145.11418151855</ele>
        <time>2020-08-16T16:21:54.777Z</time>
      </trkpt>
      <trkpt lat="44.59107" lon="0.84108">
        <ele>147.48652648926</ele>
        <time>2020-08-16T16:21:51.474Z</time>
      </trkpt>
      <trkpt lat="44.59106" lon="0.84065">
        <ele>150.58979797363</ele>
        <time>2020-08-16T16:21:48.178Z</time>
      </trkpt>
      <trkpt lat="44.59107" lon="0.84056">
        <ele>151.25834655762</ele>
        <time>2020-08-16T16:21:44.890Z</time>
      </trkpt>
      <trkpt lat="44.59109" lon="0.84021">
        <ele>153.0580291748</ele>
        <time>2020-08-16T16:21:41.604Z</time>
      </trkpt>
      <trkpt lat="44.5911" lon="0.84014">
        <ele>153.50553894043</ele>
        <time>2020-08-16T16:21:38.324Z</time>
      </trkpt>
      <trkpt lat="44.59112" lon="0.84002">
        <ele>154.23263549805</ele>
        <time>2020-08-16T16:21:35.045Z</time>
      </trkpt>
      <trkpt lat="44.59116" lon="0.83989">
        <ele>154.99140930176</ele>
        <time>2020-08-16T16:21:31.768Z</time>
      </trkpt>
      <trkpt lat="44.59124" lon="0.83975">
        <ele>155.69956970215</ele>
        <time>2020-08-16T16:21:28.494Z</time>
      </trkpt>
      <trkpt lat="44.59135" lon="0.83955">
        <ele>155.80006408691</ele>
        <time>2020-08-16T16:21:25.223Z</time>
      </trkpt>
      <trkpt lat="44.59153" lon="0.83921">
        <ele>155.8328704834</ele>
        <time>2020-08-16T16:21:21.956Z</time>
      </trkpt>
      <trkpt lat="44.59155" lon="0.83917">
        <ele>156.00151062012</ele>
        <time>2020-08-16T16:21:18.697Z</time>
      </trkpt>
      <trkpt lat="44.59164" lon="0.83898">
        <ele>156.66102600098</ele>
        <time>2020-08-16T16:21:15.439Z</time>
      </trkpt>
      <trkpt lat="44.59176" lon="0.83873">
        <ele>155.63539123535</ele>
        <time>2020-08-16T16:21:12.184Z</time>
      </trkpt>
      <trkpt lat="44.59189" lon="0.83833">
        <ele>153.34016418457</ele>
        <time>2020-08-16T16:21:08.935Z</time>
      </trkpt>
      <trkpt lat="44.59194" lon="0.83807">
        <ele>151.88807678223</ele>
        <time>2020-08-16T16:21:05.693Z</time>
      </trkpt>
      <trkpt lat="44.59197" lon="0.83772">
        <ele>150.70777893066</ele>
        <time>2020-08-16T16:21:02.456Z</time>
      </trkpt>
      <trkpt lat="44.59198" lon="0.83766">
        <ele>150.60670471191</ele>
        <time>2020-08-16T16:20:59.225Z</time>
      </trkpt>
      <trkpt lat="44.59196" lon="0.83742">
        <ele>149.90444946289</ele>
        <time>2020-08-16T16:20:55.996Z</time>
      </trkpt>
      <trkpt lat="44.59195" lon="0.83729">
        <ele>149.47422790527</ele>
        <time>2020-08-16T16:20:52.771Z</time>
      </trkpt>
      <trkpt lat="44.59195" lon="0.83704">
        <ele>149.12895202637</ele>
        <time>2020-08-16T16:20:49.548Z</time>
      </trkpt>
      <trkpt lat="44.59197" lon="0.83692">
        <ele>148.92018127441</ele>
        <time>2020-08-16T16:20:46.329Z</time>
      </trkpt>
      <trkpt lat="44.59201" lon="0.83677">
        <ele>148.89363098145</ele>
        <time>2020-08-16T16:20:43.112Z</time>
      </trkpt>
      <trkpt lat="44.59214" lon="0.83646">
        <ele>148.68832397461</ele>
        <time>2020-08-16T16:20:39.898Z</time>
      </trkpt>
      <trkpt lat="44.59224" lon="0.83627">
        <ele>149.24049377441</ele>
        <time>2020-08-16T16:20:36.691Z</time>
      </trkpt>
      <trkpt lat="44.59237" lon="0.83606">
        <ele>150.11289978027</ele>
        <time>2020-08-16T16:20:33.488Z</time>
      </trkpt>
      <trkpt lat="44.59245" lon="0.8359">
        <ele>150.46487426758</ele>
        <time>2020-08-16T16:20:30.290Z</time>
      </trkpt>
      <trkpt lat="44.59246" lon="0.83586">
        <ele>150.44003295898</ele>
        <time>2020-08-16T16:20:27.095Z</time>
      </trkpt>
      <trkpt lat="44.59244" lon="0.83581">
        <ele>150.3327331543</ele>
        <time>2020-08-16T16:20:23.901Z</time>
      </trkpt>
      <trkpt lat="44.59223" lon="0.83585">
        <ele>149.69404602051</ele>
        <time>2020-08-16T16:20:20.708Z</time>
      </trkpt>
      <trkpt lat="44.59209" lon="0.8359">
        <ele>148.94331359863</ele>
        <time>2020-08-16T16:20:17.520Z</time>
      </trkpt>
      <trkpt lat="44.59194" lon="0.83592">
        <ele>148.29774475098</ele>
        <time>2020-08-16T16:20:14.336Z</time>
      </trkpt>
      <trkpt lat="44.59188" lon="0.83594">
        <ele>148.06321716309</ele>
        <time>2020-08-16T16:20:11.155Z</time>
      </trkpt>
      <trkpt lat="44.59183" lon="0.83594">
        <ele>147.85595703125</ele>
        <time>2020-08-16T16:20:07.976Z</time>
      </trkpt>
      <trkpt lat="44.59166" lon="0.83597">
        <ele>147.21896362305</ele>
        <time>2020-08-16T16:20:04.798Z</time>
      </trkpt>
      <trkpt lat="44.59161" lon="0.83595">
        <ele>147.07113647461</ele>
        <time>2020-08-16T16:20:01.624Z</time>
      </trkpt>
      <trkpt lat="44.59156" lon="0.83594">
        <ele>146.85334777832</ele>
        <time>2020-08-16T16:19:58.452Z</time>
      </trkpt>
      <trkpt lat="44.59138" lon="0.83596">
        <ele>145.49670410156</ele>
        <time>2020-08-16T16:19:55.281Z</time>
      </trkpt>
      <trkpt lat="44.59131" lon="0.83597">
        <ele>144.93353271484</ele>
        <time>2020-08-16T16:19:52.114Z</time>
      </trkpt>
      <trkpt lat="44.59124" lon="0.83599">
        <ele>144.29776000977</ele>
        <time>2020-08-16T16:19:48.949Z</time>
      </trkpt>
      <trkpt lat="44.5912" lon="0.836">
        <ele>144.01094055176</ele>
        <time>2020-08-16T16:19:45.786Z</time>
      </trkpt>
      <trkpt lat="44.59108" lon="0.83603">
        <ele>142.38809204102</ele>
        <time>2020-08-16T16:19:42.624Z</time>
      </trkpt>
      <trkpt lat="44.59103" lon="0.83599">
        <ele>141.86424255371</ele>
        <time>2020-08-16T16:19:39.465Z</time>
      </trkpt>
      <trkpt lat="44.59101" lon="0.83599">
        <ele>141.64288330078</ele>
        <time>2020-08-16T16:19:36.307Z</time>
      </trkpt>
      <trkpt lat="44.59098" lon="0.83598">
        <ele>141.30679321289</ele>
        <time>2020-08-16T16:19:33.150Z</time>
      </trkpt>
      <trkpt lat="44.59092" lon="0.83598">
        <ele>140.5265045166</ele>
        <time>2020-08-16T16:19:29.993Z</time>
      </trkpt>
      <trkpt lat="44.5909" lon="0.83598">
        <ele>140.21343994141</ele>
        <time>2020-08-16T16:19:26.838Z</time>
      </trkpt>
      <trkpt lat="44.59087" lon="0.83597">
        <ele>139.92552185059</ele>
        <time>2020-08-16T16:19:23.683Z</time>
      </trkpt>
      <trkpt lat="44.5908" lon="0.83597">
        <ele>138.97125244141</ele>
        <time>2020-08-16T16:19:20.529Z</time>
      </trkpt>
      <trkpt lat="44.59075" lon="0.83598">
        <ele>138.3458404541</ele>
        <time>2020-08-16T16:19:17.377Z</time>
      </trkpt>
      <trkpt lat="44.59072" lon="0.83597">
        <ele>138.11141967773</ele>
        <time>2020-08-16T16:19:14.226Z</time>
      </trkpt>
      <trkpt lat="44.59069" lon="0.83597">
        <ele>137.89601135254</ele>
        <time>2020-08-16T16:19:11.076Z</time>
      </trkpt>
      <trkpt lat="44.59061" lon="0.83598">
        <ele>137.16317749023</ele>
        <time>2020-08-16T16:19:07.926Z</time>
      </trkpt>
      <trkpt lat="44.59049" lon="0.83598">
        <ele>136.17552185059</ele>
        <time>2020-08-16T16:19:04.779Z</time>
      </trkpt>
      <trkpt lat="44.59031" lon="0.83596">
        <ele>134.62606811523</ele>
        <time>2020-08-16T16:19:01.634Z</time>
      </trkpt>
      <trkpt lat="44.59013" lon="0.83601">
        <ele>132.64482116699</ele>
        <time>2020-08-16T16:18:58.494Z</time>
      </trkpt>
      <trkpt lat="44.58999" lon="0.83602">
        <ele>131.16046142578</ele>
        <time>2020-08-16T16:18:55.358Z</time>
      </trkpt>
      <trkpt lat="44.58984" lon="0.83603">
        <ele>130.90235900879</ele>
        <time>2020-08-16T16:18:52.226Z</time>
      </trkpt>
      <trkpt lat="44.58977" lon="0.83601">
        <ele>130.6541595459</ele>
        <time>2020-08-16T16:18:49.097Z</time>
      </trkpt>
      <trkpt lat="44.58975" lon="0.83601">
        <ele>130.63334655762</ele>
        <time>2020-08-16T16:18:45.970Z</time>
      </trkpt>
      <trkpt lat="44.58966" lon="0.83602">
        <ele>130.59201049805</ele>
        <time>2020-08-16T16:18:42.844Z</time>
      </trkpt>
      <trkpt lat="44.58947" lon="0.83601">
        <ele>130.28749084473</ele>
        <time>2020-08-16T16:18:39.720Z</time>
      </trkpt>
      <trkpt lat="44.58918" lon="0.83606">
        <ele>130.49517822266</ele>
        <time>2020-08-16T16:18:36.601Z</time>
      </trkpt>
      <trkpt lat="44.58896" lon="0.83612">
        <ele>131.09344482422</ele>
        <time>2020-08-16T16:18:33.489Z</time>
      </trkpt>
      <trkpt lat="44.58872" lon="0.83615">
        <ele>131.43827819824</ele>
        <time>2020-08-16T16:18:30.382Z</time>
      </trkpt>
      <trkpt lat="44.58852" lon="0.83619">
        <ele>132.57496643066</ele>
        <time>2020-08-16T16:18:27.281Z</time>
      </trkpt>
      <trkpt lat="44.58827" lon="0.83623">
        <ele>133.68795776367</ele>
        <time>2020-08-16T16:18:24.185Z</time>
      </trkpt>
      <trkpt lat="44.5882" lon="0.83627">
        <ele>134.13246154785</ele>
        <time>2020-08-16T16:18:21.095Z</time>
      </trkpt>
      <trkpt lat="44.58817" lon="0.83627">
        <ele>134.17691040039</ele>
        <time>2020-08-16T16:18:18.007Z</time>
      </trkpt>
      <trkpt lat="44.58814" lon="0.83623">
        <ele>133.97839355469</ele>
        <time>2020-08-16T16:18:14.920Z</time>
      </trkpt>
      <trkpt lat="44.58812" lon="0.83616">
        <ele>133.41572570801</ele>
        <time>2020-08-16T16:18:11.834Z</time>
      </trkpt>
      <trkpt lat="44.58812" lon="0.8361">
        <ele>132.94749450684</ele>
        <time>2020-08-16T16:18:08.749Z</time>
      </trkpt>
      <trkpt lat="44.58807" lon="0.83582">
        <ele>130.68083190918</ele>
        <time>2020-08-16T16:18:05.665Z</time>
      </trkpt>
      <trkpt lat="44.58797" lon="0.83537">
        <ele>128.833984375</ele>
        <time>2020-08-16T16:18:02.586Z</time>
      </trkpt>
      <trkpt lat="44.58798" lon="0.83518">
        <ele>129.28311157227</ele>
        <time>2020-08-16T16:17:59.515Z</time>
      </trkpt>
      <trkpt lat="44.58804" lon="0.83506">
        <ele>129.27447509766</ele>
        <time>2020-08-16T16:17:56.448Z</time>
      </trkpt>
      <trkpt lat="44.58806" lon="0.83497">
        <ele>129.38771057129</ele>
        <time>2020-08-16T16:17:53.384Z</time>
      </trkpt>
      <trkpt lat="44.58806" lon="0.83488">
        <ele>129.66314697266</ele>
        <time>2020-08-16T16:17:50.321Z</time>
      </trkpt>
      <trkpt lat="44.58799" lon="0.8347">
        <ele>130.63247680664</ele>
        <time>2020-08-16T16:17:47.260Z</time>
      </trkpt>
      <trkpt lat="44.58763" lon="0.83428">
        <ele>136.23159790039</ele>
        <time>2020-08-16T16:17:44.202Z</time>
      </trkpt>
      <trkpt lat="44.5875" lon="0.83414">
        <ele>138.5078125</ele>
        <time>2020-08-16T16:17:41.156Z</time>
      </trkpt>
      <trkpt lat="44.58739" lon="0.83403">
        <ele>140.36344909668</ele>
        <time>2020-08-16T16:17:38.114Z</time>
      </trkpt>
      <trkpt lat="44.5873" lon="0.83392">
        <ele>142.03285217285</ele>
        <time>2020-08-16T16:17:35.075Z</time>
      </trkpt>
      <trkpt lat="44.58727" lon="0.83387">
        <ele>142.66152954102</ele>
        <time>2020-08-16T16:17:32.039Z</time>
      </trkpt>
      <trkpt lat="44.58724" lon="0.83382">
        <ele>143.08842468262</ele>
        <time>2020-08-16T16:17:29.004Z</time>
      </trkpt>
      <trkpt lat="44.5872" lon="0.8337">
        <ele>143.87223815918</ele>
        <time>2020-08-16T16:17:25.970Z</time>
      </trkpt>
      <trkpt lat="44.5872" lon="0.83365">
        <ele>144.11410522461</ele>
        <time>2020-08-16T16:17:22.939Z</time>
      </trkpt>
      <trkpt lat="44.58716" lon="0.83344">
        <ele>145.2035369873</ele>
        <time>2020-08-16T16:17:19.908Z</time>
      </trkpt>
      <trkpt lat="44.58707" lon="0.83329">
        <ele>146.64947509766</ele>
        <time>2020-08-16T16:17:16.881Z</time>
      </trkpt>
      <trkpt lat="44.58691" lon="0.83314">
        <ele>147.57774353027</ele>
        <time>2020-08-16T16:17:13.858Z</time>
      </trkpt>
      <trkpt lat="44.58678" lon="0.83297">
        <ele>148.03169250488</ele>
        <time>2020-08-16T16:17:10.839Z</time>
      </trkpt>
      <trkpt lat="44.58671" lon="0.83281">
        <ele>148.53392028809</ele>
        <time>2020-08-16T16:17:07.825Z</time>
      </trkpt>
      <trkpt lat="44.5868" lon="0.8326">
        <ele>147.65184020996</ele>
        <time>2020-08-16T16:17:04.814Z</time>
      </trkpt>
      <trkpt lat="44.58694" lon="0.83243">
        <ele>146.17845153809</ele>
        <time>2020-08-16T16:17:01.807Z</time>
      </trkpt>
      <trkpt lat="44.58708" lon="0.83226">
        <ele>144.49656677246</ele>
        <time>2020-08-16T16:16:58.805Z</time>
      </trkpt>
      <trkpt lat="44.58722" lon="0.83212">
        <ele>144.13198852539</ele>
        <time>2020-08-16T16:16:55.807Z</time>
      </trkpt>
      <trkpt lat="44.58735" lon="0.83198">
        <ele>143.83561706543</ele>
        <time>2020-08-16T16:16:52.814Z</time>
      </trkpt>
      <trkpt lat="44.58748" lon="0.83185">
        <ele>143.52694702148</ele>
        <time>2020-08-16T16:16:49.825Z</time>
      </trkpt>
      <trkpt lat="44.58762" lon="0.83173">
        <ele>143.77543640137</ele>
        <time>2020-08-16T16:16:46.840Z</time>
      </trkpt>
      <trkpt lat="44.58774" lon="0.83164">
        <ele>143.88133239746</ele>
        <time>2020-08-16T16:16:43.858Z</time>
      </trkpt>
      <trkpt lat="44.58784" lon="0.83156">
        <ele>144.0173034668</ele>
        <time>2020-08-16T16:16:40.880Z</time>
      </trkpt>
      <trkpt lat="44.588" lon="0.83144">
        <ele>144.06736755371</ele>
        <time>2020-08-16T16:16:37.905Z</time>
      </trkpt>
      <trkpt lat="44.58805" lon="0.83141">
        <ele>143.95533752441</ele>
        <time>2020-08-16T16:16:34.934Z</time>
      </trkpt>
      <trkpt lat="44.5881" lon="0.83139">
        <ele>143.76969909668</ele>
        <time>2020-08-16T16:16:31.965Z</time>
      </trkpt>
      <trkpt lat="44.58812" lon="0.83139">
        <ele>143.68481445312</ele>
        <time>2020-08-16T16:16:28.997Z</time>
      </trkpt>
      <trkpt lat="44.58821" lon="0.83129">
        <ele>143.47381591797</ele>
        <time>2020-08-16T16:16:26.029Z</time>
      </trkpt>
      <trkpt lat="44.58836" lon="0.83114">
        <ele>143.11138916016</ele>
        <time>2020-08-16T16:16:23.064Z</time>
      </trkpt>
      <trkpt lat="44.58849" lon="0.831">
        <ele>142.35385131836</ele>
        <time>2020-08-16T16:16:20.104Z</time>
      </trkpt>
      <trkpt lat="44.5886" lon="0.83086">
        <ele>141.60382080078</ele>
        <time>2020-08-16T16:16:17.148Z</time>
      </trkpt>
      <trkpt lat="44.5887" lon="0.83073">
        <ele>140.90576171875</ele>
        <time>2020-08-16T16:16:14.195Z</time>
      </trkpt>
      <trkpt lat="44.58876" lon="0.83058">
        <ele>140.41821289062</ele>
        <time>2020-08-16T16:16:11.246Z</time>
      </trkpt>
      <trkpt lat="44.58877" lon="0.83055">
        <ele>140.22151184082</ele>
        <time>2020-08-16T16:16:08.300Z</time>
      </trkpt>
      <trkpt lat="44.58881" lon="0.83042">
        <ele>139.43951416016</ele>
        <time>2020-08-16T16:16:05.354Z</time>
      </trkpt>
      <trkpt lat="44.58883" lon="0.83034">
        <ele>139.00315856934</ele>
        <time>2020-08-16T16:16:02.411Z</time>
      </trkpt>
      <trkpt lat="44.58883" lon="0.83031">
        <ele>138.87603759766</ele>
        <time>2020-08-16T16:15:59.469Z</time>
      </trkpt>
      <trkpt lat="44.58883" lon="0.83029">
        <ele>138.75364685059</ele>
        <time>2020-08-16T16:15:56.528Z</time>
      </trkpt>
      <trkpt lat="44.58887" lon="0.83015">
        <ele>137.99879455566</ele>
        <time>2020-08-16T16:15:53.587Z</time>
      </trkpt>
      <trkpt lat="44.58896" lon="0.83005">
        <ele>136.89479064941</ele>
        <time>2020-08-16T16:15:50.649Z</time>
      </trkpt>
      <trkpt lat="44.589" lon="0.83">
        <ele>136.29632568359</ele>
        <time>2020-08-16T16:15:47.713Z</time>
      </trkpt>
      <trkpt lat="44.58904" lon="0.82993">
        <ele>135.54046630859</ele>
        <time>2020-08-16T16:15:44.779Z</time>
      </trkpt>
      <trkpt lat="44.58912" lon="0.82984">
        <ele>134.32563781738</ele>
        <time>2020-08-16T16:15:41.846Z</time>
      </trkpt>
      <trkpt lat="44.58923" lon="0.82969">
        <ele>132.7590637207</ele>
        <time>2020-08-16T16:15:38.916Z</time>
      </trkpt>
      <trkpt lat="44.58944" lon="0.82947">
        <ele>131.33662414551</ele>
        <time>2020-08-16T16:15:35.990Z</time>
      </trkpt>
      <trkpt lat="44.58955" lon="0.8294">
        <ele>130.67411804199</ele>
        <time>2020-08-16T16:15:33.070Z</time>
      </trkpt>
      <trkpt lat="44.58962" lon="0.82939">
        <ele>129.94108581543</ele>
        <time>2020-08-16T16:15:30.153Z</time>
      </trkpt>
      <trkpt lat="44.58975" lon="0.82935">
        <ele>128.46005249023</ele>
        <time>2020-08-16T16:15:27.238Z</time>
      </trkpt>
      <trkpt lat="44.58993" lon="0.82924">
        <ele>126.85813140869</ele>
        <time>2020-08-16T16:15:24.326Z</time>
      </trkpt>
      <trkpt lat="44.59015" lon="0.82905">
        <ele>125.91311645508</ele>
        <time>2020-08-16T16:15:21.419Z</time>
      </trkpt>
      <trkpt lat="44.59022" lon="0.82893">
        <ele>126.00482940674</ele>
        <time>2020-08-16T16:15:18.518Z</time>
      </trkpt>
      <trkpt lat="44.59026" lon="0.82879">
        <ele>126.34140777588</ele>
        <time>2020-08-16T16:15:15.620Z</time>
      </trkpt>
      <trkpt lat="44.59036" lon="0.82832">
        <ele>128.3625793457</ele>
        <time>2020-08-16T16:15:12.725Z</time>
      </trkpt>
      <trkpt lat="44.5904" lon="0.82813">
        <ele>129.18017578125</ele>
        <time>2020-08-16T16:15:09.838Z</time>
      </trkpt>
      <trkpt lat="44.59041" lon="0.82807">
        <ele>129.22135925293</ele>
        <time>2020-08-16T16:15:06.955Z</time>
      </trkpt>
      <trkpt lat="44.5904" lon="0.828">
        <ele>129.50883483887</ele>
        <time>2020-08-16T16:15:04.073Z</time>
      </trkpt>
      <trkpt lat="44.59035" lon="0.82795">
        <ele>130.20715332031</ele>
        <time>2020-08-16T16:15:01.192Z</time>
      </trkpt>
      <trkpt lat="44.59029" lon="0.82791">
        <ele>130.60992431641</ele>
        <time>2020-08-16T16:14:58.312Z</time>
      </trkpt>
      <trkpt lat="44.59013" lon="0.82787">
        <ele>131.58409118652</ele>
        <time>2020-08-16T16:14:55.434Z</time>
      </trkpt>
      <trkpt lat="44.58999" lon="0.82777">
        <ele>132.67895507812</ele>
        <time>2020-08-16T16:14:52.560Z</time>
      </trkpt>
      <trkpt lat="44.58993" lon="0.82771">
        <ele>133.06201171875</ele>
        <time>2020-08-16T16:14:49.690Z</time>
      </trkpt>
      <trkpt lat="44.58985" lon="0.82758">
        <ele>133.60707092285</ele>
        <time>2020-08-16T16:14:46.822Z</time>
      </trkpt>
      <trkpt lat="44.58983" lon="0.82751">
        <ele>133.79183959961</ele>
        <time>2020-08-16T16:14:43.957Z</time>
      </trkpt>
      <trkpt lat="44.58982" lon="0.82745">
        <ele>133.98875427246</ele>
        <time>2020-08-16T16:14:41.093Z</time>
      </trkpt>
      <trkpt lat="44.58978" lon="0.82722">
        <ele>134.73815917969</ele>
        <time>2020-08-16T16:14:38.230Z</time>
      </trkpt>
      <trkpt lat="44.58975" lon="0.82703">
        <ele>134.41816711426</ele>
        <time>2020-08-16T16:14:35.371Z</time>
      </trkpt>
      <trkpt lat="44.58979" lon="0.82686">
        <ele>133.80250549316</ele>
        <time>2020-08-16T16:14:32.516Z</time>
      </trkpt>
      <trkpt lat="44.58984" lon="0.82665">
        <ele>133.15489196777</ele>
        <time>2020-08-16T16:14:29.664Z</time>
      </trkpt>
      <trkpt lat="44.58988" lon="0.82657">
        <ele>132.89784240723</ele>
        <time>2020-08-16T16:14:26.816Z</time>
      </trkpt>
      <trkpt lat="44.58986" lon="0.82639">
        <ele>132.76721191406</ele>
        <time>2020-08-16T16:14:23.970Z</time>
      </trkpt>
      <trkpt lat="44.58981" lon="0.82626">
        <ele>132.33120727539</ele>
        <time>2020-08-16T16:14:21.127Z</time>
      </trkpt>
      <trkpt lat="44.58977" lon="0.8262">
        <ele>132.16638183594</ele>
        <time>2020-08-16T16:14:18.286Z</time>
      </trkpt>
      <trkpt lat="44.58972" lon="0.82614">
        <ele>132.07568359375</ele>
        <time>2020-08-16T16:14:15.447Z</time>
      </trkpt>
      <trkpt lat="44.58957" lon="0.82605">
        <ele>132.17604064941</ele>
        <time>2020-08-16T16:14:12.609Z</time>
      </trkpt>
      <trkpt lat="44.58946" lon="0.82599">
        <ele>132.23301696777</ele>
        <time>2020-08-16T16:14:09.775Z</time>
      </trkpt>
      <trkpt lat="44.58942" lon="0.82597">
        <ele>132.24911499023</ele>
        <time>2020-08-16T16:14:06.944Z</time>
      </trkpt>
      <trkpt lat="44.58937" lon="0.82595">
        <ele>132.26138305664</ele>
        <time>2020-08-16T16:14:04.114Z</time>
      </trkpt>
      <trkpt lat="44.58927" lon="0.82592">
        <ele>132.34625244141</ele>
        <time>2020-08-16T16:14:01.286Z</time>
      </trkpt>
      <trkpt lat="44.58918" lon="0.82587">
        <ele>132.32412719727</ele>
        <time>2020-08-16T16:13:58.460Z</time>
      </trkpt>
      <trkpt lat="44.58911" lon="0.82579">
        <ele>132.08499145508</ele>
        <time>2020-08-16T16:13:55.637Z</time>
      </trkpt>
      <trkpt lat="44.5891" lon="0.82573">
        <ele>131.84886169434</ele>
        <time>2020-08-16T16:13:52.816Z</time>
      </trkpt>
      <trkpt lat="44.5891" lon="0.82567">
        <ele>131.55500793457</ele>
        <time>2020-08-16T16:13:49.996Z</time>
      </trkpt>
      <trkpt lat="44.58919" lon="0.82535">
        <ele>130.78530883789</ele>
        <time>2020-08-16T16:13:47.177Z</time>
      </trkpt>
      <trkpt lat="44.58929" lon="0.82495">
        <ele>130.06971740723</ele>
        <time>2020-08-16T16:13:44.364Z</time>
      </trkpt>
      <trkpt lat="44.58938" lon="0.82461">
        <ele>130.150390625</ele>
        <time>2020-08-16T16:13:41.558Z</time>
      </trkpt>
      <trkpt lat="44.58939" lon="0.82439">
        <ele>130.16932678223</ele>
        <time>2020-08-16T16:13:38.759Z</time>
      </trkpt>
      <trkpt lat="44.58942" lon="0.82434">
        <ele>129.89981079102</ele>
        <time>2020-08-16T16:13:35.963Z</time>
      </trkpt>
      <trkpt lat="44.58948" lon="0.82436">
        <ele>129.37364196777</ele>
        <time>2020-08-16T16:13:33.169Z</time>
      </trkpt>
      <trkpt lat="44.58969" lon="0.82445">
        <ele>127.9513092041</ele>
        <time>2020-08-16T16:13:30.376Z</time>
      </trkpt>
      <trkpt lat="44.58988" lon="0.82454">
        <ele>126.8013381958</ele>
        <time>2020-08-16T16:13:27.588Z</time>
      </trkpt>
      <trkpt lat="44.59008" lon="0.82459">
        <ele>125.61917877197</ele>
        <time>2020-08-16T16:13:24.805Z</time>
      </trkpt>
      <trkpt lat="44.59028" lon="0.82466">
        <ele>124.41892242432</ele>
        <time>2020-08-16T16:13:22.027Z</time>
      </trkpt>
      <trkpt lat="44.59042" lon="0.82472">
        <ele>123.64002990723</ele>
        <time>2020-08-16T16:13:19.254Z</time>
      </trkpt>
      <trkpt lat="44.59052" lon="0.82473">
        <ele>123.17702484131</ele>
        <time>2020-08-16T16:13:16.485Z</time>
      </trkpt>
      <trkpt lat="44.59057" lon="0.82463">
        <ele>122.83515930176</ele>
        <time>2020-08-16T16:13:13.718Z</time>
      </trkpt>
      <trkpt lat="44.59057" lon="0.82452">
        <ele>122.69778442383</ele>
        <time>2020-08-16T16:13:10.954Z</time>
      </trkpt>
      <trkpt lat="44.59054" lon="0.82426">
        <ele>122.55186462402</ele>
        <time>2020-08-16T16:13:08.192Z</time>
      </trkpt>
      <trkpt lat="44.5905" lon="0.82406">
        <ele>122.47191619873</ele>
        <time>2020-08-16T16:13:05.434Z</time>
      </trkpt>
      <trkpt lat="44.59054" lon="0.82391">
        <ele>121.93704986572</ele>
        <time>2020-08-16T16:13:02.680Z</time>
      </trkpt>
      <trkpt lat="44.59064" lon="0.82375">
        <ele>121.42144775391</ele>
        <time>2020-08-16T16:12:59.928Z</time>
      </trkpt>
      <trkpt lat="44.59083" lon="0.82339">
        <ele>120.73025512695</ele>
        <time>2020-08-16T16:12:57.180Z</time>
      </trkpt>
      <trkpt lat="44.59092" lon="0.82317">
        <ele>120.41538238525</ele>
        <time>2020-08-16T16:12:54.440Z</time>
      </trkpt>
      <trkpt lat="44.59095" lon="0.82312">
        <ele>120.33100891113</ele>
        <time>2020-08-16T16:12:51.705Z</time>
      </trkpt>
      <trkpt lat="44.5911" lon="0.82284">
        <ele>120.37700653076</ele>
        <time>2020-08-16T16:12:48.971Z</time>
      </trkpt>
      <trkpt lat="44.59114" lon="0.82279">
        <ele>120.1325302124</ele>
        <time>2020-08-16T16:12:46.243Z</time>
      </trkpt>
      <trkpt lat="44.59123" lon="0.82266">
        <ele>120.07286071777</ele>
        <time>2020-08-16T16:12:43.516Z</time>
      </trkpt>
      <trkpt lat="44.5913" lon="0.82252">
        <ele>120.58373260498</ele>
        <time>2020-08-16T16:12:40.792Z</time>
      </trkpt>
      <trkpt lat="44.59142" lon="0.82234">
        <ele>121</ele>
        <time>2020-08-16T16:12:38.071Z</time>
      </trkpt>
      <trkpt lat="44.59151" lon="0.82223">
        <ele>121</ele>
        <time>2020-08-16T16:12:35.355Z</time>
      </trkpt>
      <trkpt lat="44.59167" lon="0.82191">
        <ele>122.84852600098</ele>
        <time>2020-08-16T16:12:32.642Z</time>
      </trkpt>
      <trkpt lat="44.59171" lon="0.82182">
        <ele>122.68942260742</ele>
        <time>2020-08-16T16:12:29.935Z</time>
      </trkpt>
      <trkpt lat="44.59178" lon="0.82167">
        <ele>122.02317047119</ele>
        <time>2020-08-16T16:12:27.230Z</time>
      </trkpt>
      <trkpt lat="44.5918" lon="0.82162">
        <ele>121.82063293457</ele>
        <time>2020-08-16T16:12:24.529Z</time>
      </trkpt>
      <trkpt lat="44.59183" lon="0.82157">
        <ele>121.58309173584</ele>
        <time>2020-08-16T16:12:21.829Z</time>
      </trkpt>
      <trkpt lat="44.59195" lon="0.82134">
        <ele>120.24530029297</ele>
        <time>2020-08-16T16:12:19.130Z</time>
      </trkpt>
      <trkpt lat="44.592" lon="0.82122">
        <ele>119.86415100098</ele>
        <time>2020-08-16T16:12:16.436Z</time>
      </trkpt>
      <trkpt lat="44.59199" lon="0.82115">
        <ele>119.79777526855</ele>
        <time>2020-08-16T16:12:13.744Z</time>
      </trkpt>
      <trkpt lat="44.59197" lon="0.82109">
        <ele>119.79969024658</ele>
        <time>2020-08-16T16:12:11.053Z</time>
      </trkpt>
      <trkpt lat="44.59184" lon="0.82092">
        <ele>120.08790588379</ele>
        <time>2020-08-16T16:12:08.363Z</time>
      </trkpt>
      <trkpt lat="44.59176" lon="0.82087">
        <ele>120.28401184082</ele>
        <time>2020-08-16T16:12:05.678Z</time>
      </trkpt>
      <trkpt lat="44.5917" lon="0.82078">
        <ele>120.39282226562</ele>
        <time>2020-08-16T16:12:02.995Z</time>
      </trkpt>
      <trkpt lat="44.59167" lon="0.82068">
        <ele>120.39373016357</ele>
        <time>2020-08-16T16:12:00.314Z</time>
      </trkpt>
      <trkpt lat="44.59167" lon="0.82063">
        <ele>120.32574462891</ele>
        <time>2020-08-16T16:11:57.635Z</time>
      </trkpt>
      <trkpt lat="44.59184" lon="0.82043">
        <ele>119.16525268555</ele>
        <time>2020-08-16T16:11:54.957Z</time>
      </trkpt>
      <trkpt lat="44.59202" lon="0.82024">
        <ele>118.61119842529</ele>
        <time>2020-08-16T16:11:52.284Z</time>
      </trkpt>
      <trkpt lat="44.59221" lon="0.8201">
        <ele>117.74381256104</ele>
        <time>2020-08-16T16:11:49.617Z</time>
      </trkpt>
      <trkpt lat="44.5924" lon="0.81997">
        <ele>117.40447235107</ele>
        <time>2020-08-16T16:11:46.955Z</time>
      </trkpt>
      <trkpt lat="44.59264" lon="0.81988">
        <ele>117.60419464111</ele>
        <time>2020-08-16T16:11:44.298Z</time>
      </trkpt>
      <trkpt lat="44.59285" lon="0.81978">
        <ele>117.85345458984</ele>
        <time>2020-08-16T16:11:41.647Z</time>
      </trkpt>
      <trkpt lat="44.59305" lon="0.81972">
        <ele>117.51069641113</ele>
        <time>2020-08-16T16:11:39.002Z</time>
      </trkpt>
      <trkpt lat="44.59323" lon="0.81961">
        <ele>117.08268737793</ele>
        <time>2020-08-16T16:11:36.362Z</time>
      </trkpt>
      <trkpt lat="44.59335" lon="0.81948">
        <ele>116.79607391357</ele>
        <time>2020-08-16T16:11:33.727Z</time>
      </trkpt>
      <trkpt lat="44.59345" lon="0.81935">
        <ele>117.05558013916</ele>
        <time>2020-08-16T16:11:31.095Z</time>
      </trkpt>
      <trkpt lat="44.59355" lon="0.81925">
        <ele>117.52743530273</ele>
        <time>2020-08-16T16:11:28.467Z</time>
      </trkpt>
      <trkpt lat="44.59365" lon="0.81916">
        <ele>117.98621368408</ele>
        <time>2020-08-16T16:11:25.842Z</time>
      </trkpt>
      <trkpt lat="44.59372" lon="0.8191">
        <ele>117.97805786133</ele>
        <time>2020-08-16T16:11:23.220Z</time>
      </trkpt>
      <trkpt lat="44.59382" lon="0.819">
        <ele>117.61892700195</ele>
        <time>2020-08-16T16:11:20.600Z</time>
      </trkpt>
      <trkpt lat="44.5939" lon="0.81889">
        <ele>116.37090301514</ele>
        <time>2020-08-16T16:11:17.983Z</time>
      </trkpt>
      <trkpt lat="44.59401" lon="0.81872">
        <ele>115.10103607178</ele>
        <time>2020-08-16T16:11:15.368Z</time>
      </trkpt>
      <trkpt lat="44.5941" lon="0.81852">
        <ele>114.0249786377</ele>
        <time>2020-08-16T16:11:12.757Z</time>
      </trkpt>
      <trkpt lat="44.5942" lon="0.81829">
        <ele>111.75045776367</ele>
        <time>2020-08-16T16:11:10.151Z</time>
      </trkpt>
      <trkpt lat="44.59432" lon="0.81807">
        <ele>109.10486602783</ele>
        <time>2020-08-16T16:11:07.549Z</time>
      </trkpt>
      <trkpt lat="44.59435" lon="0.81802">
        <ele>108.18476867676</ele>
        <time>2020-08-16T16:11:04.952Z</time>
      </trkpt>
      <trkpt lat="44.59438" lon="0.81798">
        <ele>107.04344177246</ele>
        <time>2020-08-16T16:11:02.356Z</time>
      </trkpt>
      <trkpt lat="44.59448" lon="0.81787">
        <ele>105.53485107422</ele>
        <time>2020-08-16T16:10:59.761Z</time>
      </trkpt>
      <trkpt lat="44.59451" lon="0.81784">
        <ele>105.26644134521</ele>
        <time>2020-08-16T16:10:57.169Z</time>
      </trkpt>
      <trkpt lat="44.59458" lon="0.81778">
        <ele>104.79592132568</ele>
        <time>2020-08-16T16:10:54.578Z</time>
      </trkpt>
      <trkpt lat="44.59463" lon="0.81777">
        <ele>104.57327270508</ele>
        <time>2020-08-16T16:10:51.989Z</time>
      </trkpt>
      <trkpt lat="44.59467" lon="0.81776">
        <ele>104.37203979492</ele>
        <time>2020-08-16T16:10:49.402Z</time>
      </trkpt>
      <trkpt lat="44.59475" lon="0.81772">
        <ele>103.95177459717</ele>
        <time>2020-08-16T16:10:46.816Z</time>
      </trkpt>
      <trkpt lat="44.59478" lon="0.81768">
        <ele>103.71041107178</ele>
        <time>2020-08-16T16:10:44.232Z</time>
      </trkpt>
      <trkpt lat="44.59488" lon="0.81751">
        <ele>103.09204864502</ele>
        <time>2020-08-16T16:10:41.649Z</time>
      </trkpt>
      <trkpt lat="44.59497" lon="0.81739">
        <ele>103.34366607666</ele>
        <time>2020-08-16T16:10:39.070Z</time>
      </trkpt>
      <trkpt lat="44.59504" lon="0.81732">
        <ele>103.50507354736</ele>
        <time>2020-08-16T16:10:36.494Z</time>
      </trkpt>
      <trkpt lat="44.59508" lon="0.81729">
        <ele>103.5866317749</ele>
        <time>2020-08-16T16:10:33.920Z</time>
      </trkpt>
      <trkpt lat="44.59511" lon="0.81725">
        <ele>103.68186950684</ele>
        <time>2020-08-16T16:10:31.347Z</time>
      </trkpt>
      <trkpt lat="44.59515" lon="0.81713">
        <ele>103.75759887695</ele>
        <time>2020-08-16T16:10:28.775Z</time>
      </trkpt>
      <trkpt lat="44.59515" lon="0.81664">
        <ele>104.21824645996</ele>
        <time>2020-08-16T16:10:26.205Z</time>
      </trkpt>
      <trkpt lat="44.59515" lon="0.81658">
        <ele>104.28723144531</ele>
        <time>2020-08-16T16:10:23.644Z</time>
      </trkpt>
      <trkpt lat="44.59517" lon="0.81647">
        <ele>104.47036743164</ele>
        <time>2020-08-16T16:10:21.084Z</time>
      </trkpt>
      <trkpt lat="44.59519" lon="0.81633">
        <ele>104.62158966064</ele>
        <time>2020-08-16T16:10:18.526Z</time>
      </trkpt>
      <trkpt lat="44.59524" lon="0.81605">
        <ele>104.99919891357</ele>
        <time>2020-08-16T16:10:15.970Z</time>
      </trkpt>
      <trkpt lat="44.5954" lon="0.81538">
        <ele>107.08927154541</ele>
        <time>2020-08-16T16:10:13.419Z</time>
      </trkpt>
      <trkpt lat="44.5956" lon="0.81467">
        <ele>111.4147644043</ele>
        <time>2020-08-16T16:10:10.881Z</time>
      </trkpt>
      <trkpt lat="44.59576" lon="0.81398">
        <ele>113.2654800415</ele>
        <time>2020-08-16T16:10:08.356Z</time>
      </trkpt>
      <trkpt lat="44.59578" lon="0.81386">
        <ele>113.61717224121</ele>
        <time>2020-08-16T16:10:05.844Z</time>
      </trkpt>
      <trkpt lat="44.59578" lon="0.81348">
        <ele>115.04874420166</ele>
        <time>2020-08-16T16:10:03.334Z</time>
      </trkpt>
      <trkpt lat="44.59578" lon="0.81334">
        <ele>116.30078887939</ele>
        <time>2020-08-16T16:10:00.831Z</time>
      </trkpt>
      <trkpt lat="44.5958" lon="0.81313">
        <ele>118.53416442871</ele>
        <time>2020-08-16T16:09:58.330Z</time>
      </trkpt>
      <trkpt lat="44.59594" lon="0.81277">
        <ele>122.81818389893</ele>
        <time>2020-08-16T16:09:55.833Z</time>
      </trkpt>
      <trkpt lat="44.59603" lon="0.81262">
        <ele>124.04720306396</ele>
        <time>2020-08-16T16:09:53.343Z</time>
      </trkpt>
      <trkpt lat="44.59611" lon="0.81245">
        <ele>125.32197570801</ele>
        <time>2020-08-16T16:09:50.857Z</time>
      </trkpt>
      <trkpt lat="44.59614" lon="0.8124">
        <ele>125.75712585449</ele>
        <time>2020-08-16T16:09:48.374Z</time>
      </trkpt>
      <trkpt lat="44.59619" lon="0.81229">
        <ele>126.53798675537</ele>
        <time>2020-08-16T16:09:45.892Z</time>
      </trkpt>
      <trkpt lat="44.59643" lon="0.81187">
        <ele>128.98263549805</ele>
        <time>2020-08-16T16:09:43.413Z</time>
      </trkpt>
      <trkpt lat="44.59653" lon="0.81169">
        <ele>130.03855895996</ele>
        <time>2020-08-16T16:09:40.943Z</time>
      </trkpt>
      <trkpt lat="44.59664" lon="0.81151">
        <ele>131.33406066895</ele>
        <time>2020-08-16T16:09:38.477Z</time>
      </trkpt>
      <trkpt lat="44.5967" lon="0.8114">
        <ele>132.13366699219</ele>
        <time>2020-08-16T16:09:36.015Z</time>
      </trkpt>
      <trkpt lat="44.59681" lon="0.81113">
        <ele>133.06216430664</ele>
        <time>2020-08-16T16:09:33.556Z</time>
      </trkpt>
      <trkpt lat="44.59686" lon="0.81103">
        <ele>133.24067687988</ele>
        <time>2020-08-16T16:09:31.102Z</time>
      </trkpt>
      <trkpt lat="44.59691" lon="0.81088">
        <ele>133.47227478027</ele>
        <time>2020-08-16T16:09:28.650Z</time>
      </trkpt>
      <trkpt lat="44.597" lon="0.81065">
        <ele>133.86538696289</ele>
        <time>2020-08-16T16:09:26.201Z</time>
      </trkpt>
      <trkpt lat="44.59708" lon="0.8104">
        <ele>133.35305786133</ele>
        <time>2020-08-16T16:09:23.757Z</time>
      </trkpt>
      <trkpt lat="44.5971" lon="0.81028">
        <ele>132.81332397461</ele>
        <time>2020-08-16T16:09:21.317Z</time>
      </trkpt>
      <trkpt lat="44.5972" lon="0.80982">
        <ele>130.89598083496</ele>
        <time>2020-08-16T16:09:18.880Z</time>
      </trkpt>
      <trkpt lat="44.59723" lon="0.80963">
        <ele>130.75158691406</ele>
        <time>2020-08-16T16:09:16.451Z</time>
      </trkpt>
      <trkpt lat="44.5973" lon="0.80949">
        <ele>131.01527404785</ele>
        <time>2020-08-16T16:09:14.025Z</time>
      </trkpt>
      <trkpt lat="44.59741" lon="0.8092">
        <ele>131.52674865723</ele>
        <time>2020-08-16T16:09:11.602Z</time>
      </trkpt>
      <trkpt lat="44.59743" lon="0.80915">
        <ele>131.68957519531</ele>
        <time>2020-08-16T16:09:09.185Z</time>
      </trkpt>
      <trkpt lat="44.59746" lon="0.80903">
        <ele>131.9373626709</ele>
        <time>2020-08-16T16:09:06.769Z</time>
      </trkpt>
      <trkpt lat="44.59745" lon="0.80896">
        <ele>131.99217224121</ele>
        <time>2020-08-16T16:09:04.355Z</time>
      </trkpt>
      <trkpt lat="44.59745" lon="0.80881">
        <ele>132.32833862305</ele>
        <time>2020-08-16T16:09:01.943Z</time>
      </trkpt>
      <trkpt lat="44.59754" lon="0.8084">
        <ele>134.03460693359</ele>
        <time>2020-08-16T16:08:59.533Z</time>
      </trkpt>
      <trkpt lat="44.59771" lon="0.80767">
        <ele>136.50401306152</ele>
        <time>2020-08-16T16:08:57.131Z</time>
      </trkpt>
      <trkpt lat="44.59774" lon="0.80756">
        <ele>137.14431762695</ele>
        <time>2020-08-16T16:08:54.742Z</time>
      </trkpt>
      <trkpt lat="44.59792" lon="0.80726">
        <ele>139.03019714355</ele>
        <time>2020-08-16T16:08:52.355Z</time>
      </trkpt>
      <trkpt lat="44.59799" lon="0.80715">
        <ele>139.3285369873</ele>
        <time>2020-08-16T16:08:49.975Z</time>
      </trkpt>
      <trkpt lat="44.59839" lon="0.80655">
        <ele>142.08514404297</ele>
        <time>2020-08-16T16:08:47.598Z</time>
      </trkpt>
      <trkpt lat="44.59874" lon="0.80602">
        <ele>146.23054504395</ele>
        <time>2020-08-16T16:08:45.235Z</time>
      </trkpt>
      <trkpt lat="44.59907" lon="0.80548">
        <ele>149.49311828613</ele>
        <time>2020-08-16T16:08:42.885Z</time>
      </trkpt>
      <trkpt lat="44.59931" lon="0.80505">
        <ele>152.30656433105</ele>
        <time>2020-08-16T16:08:40.547Z</time>
      </trkpt>
      <trkpt lat="44.59937" lon="0.80494">
        <ele>153.17454528809</ele>
        <time>2020-08-16T16:08:38.219Z</time>
      </trkpt>
      <trkpt lat="44.59946" lon="0.80478">
        <ele>154.34483337402</ele>
        <time>2020-08-16T16:08:35.893Z</time>
      </trkpt>
      <trkpt lat="44.59958" lon="0.80461">
        <ele>154.94929504395</ele>
        <time>2020-08-16T16:08:33.571Z</time>
      </trkpt>
      <trkpt lat="44.59971" lon="0.80443">
        <ele>154.89326477051</ele>
        <time>2020-08-16T16:08:31.253Z</time>
      </trkpt>
      <trkpt lat="44.59978" lon="0.80425">
        <ele>154.75106811523</ele>
        <time>2020-08-16T16:08:28.940Z</time>
      </trkpt>
      <trkpt lat="44.59979" lon="0.80421">
        <ele>154.70863342285</ele>
        <time>2020-08-16T16:08:26.630Z</time>
      </trkpt>
      <trkpt lat="44.59981" lon="0.80417">
        <ele>154.6782989502</ele>
        <time>2020-08-16T16:08:24.321Z</time>
      </trkpt>
      <trkpt lat="44.59986" lon="0.80399">
        <ele>154.25088500977</ele>
        <time>2020-08-16T16:08:22.013Z</time>
      </trkpt>
      <trkpt lat="44.5999" lon="0.80382">
        <ele>153.57061767578</ele>
        <time>2020-08-16T16:08:19.708Z</time>
      </trkpt>
      <trkpt lat="44.59993" lon="0.80368">
        <ele>152.50442504883</ele>
        <time>2020-08-16T16:08:17.406Z</time>
      </trkpt>
      <trkpt lat="44.59994" lon="0.80362">
        <ele>152.11221313477</ele>
        <time>2020-08-16T16:08:15.107Z</time>
      </trkpt>
      <trkpt lat="44.59997" lon="0.80358">
        <ele>151.7906036377</ele>
        <time>2020-08-16T16:08:12.809Z</time>
      </trkpt>
      <trkpt lat="44.60007" lon="0.8034">
        <ele>150.73013305664</ele>
        <time>2020-08-16T16:08:10.512Z</time>
      </trkpt>
      <trkpt lat="44.60015" lon="0.80325">
        <ele>149.94711303711</ele>
        <time>2020-08-16T16:08:08.219Z</time>
      </trkpt>
      <trkpt lat="44.60024" lon="0.80314">
        <ele>149.39471435547</ele>
        <time>2020-08-16T16:08:05.929Z</time>
      </trkpt>
      <trkpt lat="44.60041" lon="0.803">
        <ele>148.67176818848</ele>
        <time>2020-08-16T16:08:03.642Z</time>
      </trkpt>
      <trkpt lat="44.60057" lon="0.80289">
        <ele>147.97192382812</ele>
        <time>2020-08-16T16:08:01.360Z</time>
      </trkpt>
      <trkpt lat="44.60072" lon="0.80273">
        <ele>146.9951171875</ele>
        <time>2020-08-16T16:07:59.082Z</time>
      </trkpt>
      <trkpt lat="44.60083" lon="0.80253">
        <ele>145.75428771973</ele>
        <time>2020-08-16T16:07:56.809Z</time>
      </trkpt>
      <trkpt lat="44.60089" lon="0.80236">
        <ele>144.5491027832</ele>
        <time>2020-08-16T16:07:54.540Z</time>
      </trkpt>
      <trkpt lat="44.60093" lon="0.80221">
        <ele>143.50273132324</ele>
        <time>2020-08-16T16:07:52.275Z</time>
      </trkpt>
      <trkpt lat="44.60094" lon="0.80206">
        <ele>141.70219421387</ele>
        <time>2020-08-16T16:07:50.013Z</time>
      </trkpt>
      <trkpt lat="44.60095" lon="0.80188">
        <ele>140.03512573242</ele>
        <time>2020-08-16T16:07:47.753Z</time>
      </trkpt>
      <trkpt lat="44.60095" lon="0.80173">
        <ele>138.92468261719</ele>
        <time>2020-08-16T16:07:45.496Z</time>
      </trkpt>
      <trkpt lat="44.60101" lon="0.8016">
        <ele>138.1710357666</ele>
        <time>2020-08-16T16:07:43.242Z</time>
      </trkpt>
      <trkpt lat="44.60107" lon="0.80148">
        <ele>137.41558837891</ele>
        <time>2020-08-16T16:07:40.991Z</time>
      </trkpt>
      <trkpt lat="44.60113" lon="0.80139">
        <ele>136.91717529297</ele>
        <time>2020-08-16T16:07:38.742Z</time>
      </trkpt>
      <trkpt lat="44.60115" lon="0.8013">
        <ele>136.10873413086</ele>
        <time>2020-08-16T16:07:36.495Z</time>
      </trkpt>
      <trkpt lat="44.60114" lon="0.80128">
        <ele>135.87944030762</ele>
        <time>2020-08-16T16:07:34.250Z</time>
      </trkpt>
      <trkpt lat="44.60109" lon="0.80114">
        <ele>134.44818115234</ele>
        <time>2020-08-16T16:07:32.006Z</time>
      </trkpt>
      <trkpt lat="44.60103" lon="0.80098">
        <ele>132.76028442383</ele>
        <time>2020-08-16T16:07:29.764Z</time>
      </trkpt>
      <trkpt lat="44.60099" lon="0.80086">
        <ele>131.48188781738</ele>
        <time>2020-08-16T16:07:27.525Z</time>
      </trkpt>
      <trkpt lat="44.60092" lon="0.8007">
        <ele>129.84788513184</ele>
        <time>2020-08-16T16:07:25.289Z</time>
      </trkpt>
      <trkpt lat="44.60088" lon="0.80061">
        <ele>128.82231140137</ele>
        <time>2020-08-16T16:07:23.056Z</time>
      </trkpt>
      <trkpt lat="44.60087" lon="0.80058">
        <ele>128.57511901855</ele>
        <time>2020-08-16T16:07:20.825Z</time>
      </trkpt>
      <trkpt lat="44.60084" lon="0.80048">
        <ele>127.93621063232</ele>
        <time>2020-08-16T16:07:18.594Z</time>
      </trkpt>
      <trkpt lat="44.6008" lon="0.80037">
        <ele>127.41387176514</ele>
        <time>2020-08-16T16:07:16.365Z</time>
      </trkpt>
      <trkpt lat="44.60075" lon="0.80016">
        <ele>126.57132720947</ele>
        <time>2020-08-16T16:07:14.139Z</time>
      </trkpt>
      <trkpt lat="44.60073" lon="0.80006">
        <ele>126.11672973633</ele>
        <time>2020-08-16T16:07:11.916Z</time>
      </trkpt>
      <trkpt lat="44.60073" lon="0.80003">
        <ele>125.96778869629</ele>
        <time>2020-08-16T16:07:09.695Z</time>
      </trkpt>
      <trkpt lat="44.60073" lon="0.80001">
        <ele>125.86933898926</ele>
        <time>2020-08-16T16:07:07.475Z</time>
      </trkpt>
      <trkpt lat="44.60071" lon="0.79993">
        <ele>125.46002960205</ele>
        <time>2020-08-16T16:07:05.255Z</time>
      </trkpt>
      <trkpt lat="44.60071" lon="0.79988">
        <ele>125.21797180176</ele>
        <time>2020-08-16T16:07:03.037Z</time>
      </trkpt>
      <trkpt lat="44.60072" lon="0.79985">
        <ele>125.07747650146</ele>
        <time>2020-08-16T16:07:00.819Z</time>
      </trkpt>
      <trkpt lat="44.60071" lon="0.79974">
        <ele>124.52637481689</ele>
        <time>2020-08-16T16:06:58.602Z</time>
      </trkpt>
      <trkpt lat="44.60071" lon="0.79965">
        <ele>124.7336807251</ele>
        <time>2020-08-16T16:06:56.387Z</time>
      </trkpt>
      <trkpt lat="44.60064" lon="0.79915">
        <ele>127.09115600586</ele>
        <time>2020-08-16T16:06:54.174Z</time>
      </trkpt>
      <trkpt lat="44.60061" lon="0.79895">
        <ele>127.99896240234</ele>
        <time>2020-08-16T16:06:51.970Z</time>
      </trkpt>
      <trkpt lat="44.60057" lon="0.79872">
        <ele>129.46669006348</ele>
        <time>2020-08-16T16:06:49.769Z</time>
      </trkpt>
      <trkpt lat="44.60056" lon="0.7986">
        <ele>130.30511474609</ele>
        <time>2020-08-16T16:06:47.572Z</time>
      </trkpt>
      <trkpt lat="44.60055" lon="0.79818">
        <ele>133.48530578613</ele>
        <time>2020-08-16T16:06:45.377Z</time>
      </trkpt>
      <trkpt lat="44.60054" lon="0.79787">
        <ele>136.39970397949</ele>
        <time>2020-08-16T16:06:43.190Z</time>
      </trkpt>
      <trkpt lat="44.60057" lon="0.79776">
        <ele>137.61665344238</ele>
        <time>2020-08-16T16:06:41.008Z</time>
      </trkpt>
      <trkpt lat="44.6006" lon="0.79769">
        <ele>138.30020141602</ele>
        <time>2020-08-16T16:06:38.828Z</time>
      </trkpt>
      <trkpt lat="44.60063" lon="0.79763">
        <ele>139.0340423584</ele>
        <time>2020-08-16T16:06:36.650Z</time>
      </trkpt>
      <trkpt lat="44.6007" lon="0.79748">
        <ele>140.39643859863</ele>
        <time>2020-08-16T16:06:34.473Z</time>
      </trkpt>
      <trkpt lat="44.60073" lon="0.7974">
        <ele>140.91284179688</ele>
        <time>2020-08-16T16:06:32.299Z</time>
      </trkpt>
      <trkpt lat="44.60082" lon="0.79707">
        <ele>143.08666992188</ele>
        <time>2020-08-16T16:06:30.127Z</time>
      </trkpt>
      <trkpt lat="44.60086" lon="0.79693">
        <ele>144.03399658203</ele>
        <time>2020-08-16T16:06:27.961Z</time>
      </trkpt>
      <trkpt lat="44.60096" lon="0.79677">
        <ele>145.46691894531</ele>
        <time>2020-08-16T16:06:25.797Z</time>
      </trkpt>
      <trkpt lat="44.60114" lon="0.79649">
        <ele>148.06634521484</ele>
        <time>2020-08-16T16:06:23.637Z</time>
      </trkpt>
      <trkpt lat="44.60133" lon="0.79625">
        <ele>148.66815185547</ele>
        <time>2020-08-16T16:06:21.484Z</time>
      </trkpt>
      <trkpt lat="44.6015" lon="0.79602">
        <ele>148.17950439453</ele>
        <time>2020-08-16T16:06:19.337Z</time>
      </trkpt>
      <trkpt lat="44.60167" lon="0.79584">
        <ele>148.23905944824</ele>
        <time>2020-08-16T16:06:17.196Z</time>
      </trkpt>
      <trkpt lat="44.60184" lon="0.79564">
        <ele>148.66746520996</ele>
        <time>2020-08-16T16:06:15.060Z</time>
      </trkpt>
      <trkpt lat="44.60198" lon="0.79548">
        <ele>148.72201538086</ele>
        <time>2020-08-16T16:06:12.929Z</time>
      </trkpt>
      <trkpt lat="44.60215" lon="0.7953">
        <ele>148.71669006348</ele>
        <time>2020-08-16T16:06:10.803Z</time>
      </trkpt>
      <trkpt lat="44.60221" lon="0.79517">
        <ele>148.5726776123</ele>
        <time>2020-08-16T16:06:08.682Z</time>
      </trkpt>
      <trkpt lat="44.60222" lon="0.79515">
        <ele>148.51876831055</ele>
        <time>2020-08-16T16:06:06.564Z</time>
      </trkpt>
      <trkpt lat="44.60214" lon="0.79506">
        <ele>148.12858581543</ele>
        <time>2020-08-16T16:06:04.446Z</time>
      </trkpt>
      <trkpt lat="44.602" lon="0.79502">
        <ele>147.66435241699</ele>
        <time>2020-08-16T16:06:02.331Z</time>
      </trkpt>
      <trkpt lat="44.60192" lon="0.79501">
        <ele>147.34294128418</ele>
        <time>2020-08-16T16:06:00.219Z</time>
      </trkpt>
      <trkpt lat="44.6018" lon="0.79496">
        <ele>146.81015014648</ele>
        <time>2020-08-16T16:05:58.109Z</time>
      </trkpt>
      <trkpt lat="44.6017" lon="0.79493">
        <ele>146.36424255371</ele>
        <time>2020-08-16T16:05:56.002Z</time>
      </trkpt>
      <trkpt lat="44.60161" lon="0.79487">
        <ele>145.91842651367</ele>
        <time>2020-08-16T16:05:53.898Z</time>
      </trkpt>
      <trkpt lat="44.60156" lon="0.79481">
        <ele>145.57278442383</ele>
        <time>2020-08-16T16:05:51.796Z</time>
      </trkpt>
      <trkpt lat="44.60155" lon="0.79479">
        <ele>145.48287963867</ele>
        <time>2020-08-16T16:05:49.696Z</time>
      </trkpt>
      <trkpt lat="44.60154" lon="0.79464">
        <ele>144.65180969238</ele>
        <time>2020-08-16T16:05:47.596Z</time>
      </trkpt>
      <trkpt lat="44.60155" lon="0.7946">
        <ele>144.33210754395</ele>
        <time>2020-08-16T16:05:45.499Z</time>
      </trkpt>
      <trkpt lat="44.60154" lon="0.79452">
        <ele>143.60220336914</ele>
        <time>2020-08-16T16:05:43.403Z</time>
      </trkpt>
      <trkpt lat="44.60152" lon="0.79439">
        <ele>142.51728820801</ele>
        <time>2020-08-16T16:05:41.308Z</time>
      </trkpt>
      <trkpt lat="44.60148" lon="0.79427">
        <ele>141.33786010742</ele>
        <time>2020-08-16T16:05:39.215Z</time>
      </trkpt>
      <trkpt lat="44.60148" lon="0.79425">
        <ele>141.1496887207</ele>
        <time>2020-08-16T16:05:37.125Z</time>
      </trkpt>
      <trkpt lat="44.60146" lon="0.79417">
        <ele>140.40852355957</ele>
        <time>2020-08-16T16:05:35.035Z</time>
      </trkpt>
      <trkpt lat="44.60144" lon="0.79412">
        <ele>139.88717651367</ele>
        <time>2020-08-16T16:05:32.947Z</time>
      </trkpt>
      <trkpt lat="44.60142" lon="0.79409">
        <ele>139.51206970215</ele>
        <time>2020-08-16T16:05:30.860Z</time>
      </trkpt>
      <trkpt lat="44.6014" lon="0.79406">
        <ele>139.14097595215</ele>
        <time>2020-08-16T16:05:28.773Z</time>
      </trkpt>
      <trkpt lat="44.6013" lon="0.79398">
        <ele>138.22180175781</ele>
        <time>2020-08-16T16:05:26.687Z</time>
      </trkpt>
      <trkpt lat="44.60116" lon="0.79394">
        <ele>137.10629272461</ele>
        <time>2020-08-16T16:05:24.604Z</time>
      </trkpt>
      <trkpt lat="44.60102" lon="0.79393">
        <ele>135.02738952637</ele>
        <time>2020-08-16T16:05:22.525Z</time>
      </trkpt>
      <trkpt lat="44.60085" lon="0.79394">
        <ele>132.75741577148</ele>
        <time>2020-08-16T16:05:20.449Z</time>
      </trkpt>
      <trkpt lat="44.60077" lon="0.79395">
        <ele>131.6727142334</ele>
        <time>2020-08-16T16:05:18.377Z</time>
      </trkpt>
      <trkpt lat="44.60075" lon="0.79395">
        <ele>131.38116455078</ele>
        <time>2020-08-16T16:05:16.307Z</time>
      </trkpt>
      <trkpt lat="44.60063" lon="0.794">
        <ele>130.11373901367</ele>
        <time>2020-08-16T16:05:14.237Z</time>
      </trkpt>
      <trkpt lat="44.60052" lon="0.79405">
        <ele>128.93469238281</ele>
        <time>2020-08-16T16:05:12.171Z</time>
      </trkpt>
      <trkpt lat="44.60038" lon="0.79416">
        <ele>127.4342956543</ele>
        <time>2020-08-16T16:05:10.107Z</time>
      </trkpt>
      <trkpt lat="44.60024" lon="0.79424">
        <ele>127.03494262695</ele>
        <time>2020-08-16T16:05:08.047Z</time>
      </trkpt>
      <trkpt lat="44.60014" lon="0.79431">
        <ele>127.03775787354</ele>
        <time>2020-08-16T16:05:05.991Z</time>
      </trkpt>
      <trkpt lat="44.59997" lon="0.79439">
        <ele>126.53457641602</ele>
        <time>2020-08-16T16:05:03.938Z</time>
      </trkpt>
      <trkpt lat="44.59985" lon="0.79442">
        <ele>125.46676635742</ele>
        <time>2020-08-16T16:05:01.889Z</time>
      </trkpt>
      <trkpt lat="44.59972" lon="0.79444">
        <ele>124.25514221191</ele>
        <time>2020-08-16T16:04:59.843Z</time>
      </trkpt>
      <trkpt lat="44.59965" lon="0.79443">
        <ele>123.61795806885</ele>
        <time>2020-08-16T16:04:57.800Z</time>
      </trkpt>
      <trkpt lat="44.59964" lon="0.79443">
        <ele>123.48360443115</ele>
        <time>2020-08-16T16:04:55.759Z</time>
      </trkpt>
      <trkpt lat="44.59962" lon="0.79441">
        <ele>123.26335906982</ele>
        <time>2020-08-16T16:04:53.718Z</time>
      </trkpt>
      <trkpt lat="44.59959" lon="0.79439">
        <ele>122.91781616211</ele>
        <time>2020-08-16T16:04:51.678Z</time>
      </trkpt>
      <trkpt lat="44.59942" lon="0.79425">
        <ele>121.75564575195</ele>
        <time>2020-08-16T16:04:49.639Z</time>
      </trkpt>
      <trkpt lat="44.59928" lon="0.79416">
        <ele>121.38012695312</ele>
        <time>2020-08-16T16:04:47.605Z</time>
      </trkpt>
      <trkpt lat="44.59919" lon="0.79406">
        <ele>121.03910827637</ele>
        <time>2020-08-16T16:04:45.574Z</time>
      </trkpt>
      <trkpt lat="44.59915" lon="0.79403">
        <ele>120.90756988525</ele>
        <time>2020-08-16T16:04:43.546Z</time>
      </trkpt>
      <trkpt lat="44.59909" lon="0.79394">
        <ele>120.62417602539</ele>
        <time>2020-08-16T16:04:41.519Z</time>
      </trkpt>
      <trkpt lat="44.59908" lon="0.79383">
        <ele>120.65900421143</ele>
        <time>2020-08-16T16:04:39.494Z</time>
      </trkpt>
      <trkpt lat="44.59907" lon="0.79378">
        <ele>120.84897613525</ele>
        <time>2020-08-16T16:04:37.471Z</time>
      </trkpt>
      <trkpt lat="44.59905" lon="0.79371">
        <ele>121.06509399414</ele>
        <time>2020-08-16T16:04:35.449Z</time>
      </trkpt>
      <trkpt lat="44.59898" lon="0.79359">
        <ele>121.40289306641</ele>
        <time>2020-08-16T16:04:33.429Z</time>
      </trkpt>
      <trkpt lat="44.59891" lon="0.79349">
        <ele>121.69534301758</ele>
        <time>2020-08-16T16:04:31.411Z</time>
      </trkpt>
      <trkpt lat="44.59889" lon="0.79344">
        <ele>121.8521194458</ele>
        <time>2020-08-16T16:04:29.396Z</time>
      </trkpt>
      <trkpt lat="44.59879" lon="0.79323">
        <ele>122.46517181396</ele>
        <time>2020-08-16T16:04:27.382Z</time>
      </trkpt>
      <trkpt lat="44.59876" lon="0.79313">
        <ele>122.80991363525</ele>
        <time>2020-08-16T16:04:25.372Z</time>
      </trkpt>
      <trkpt lat="44.59875" lon="0.79305">
        <ele>123.08090209961</ele>
        <time>2020-08-16T16:04:23.364Z</time>
      </trkpt>
      <trkpt lat="44.59873" lon="0.79303">
        <ele>123.10021209717</ele>
        <time>2020-08-16T16:04:21.358Z</time>
      </trkpt>
      <trkpt lat="44.59864" lon="0.79296">
        <ele>122.98448944092</ele>
        <time>2020-08-16T16:04:19.352Z</time>
      </trkpt>
      <trkpt lat="44.59849" lon="0.79262">
        <ele>123.10818481445</ele>
        <time>2020-08-16T16:04:17.349Z</time>
      </trkpt>
      <trkpt lat="44.59845" lon="0.7925">
        <ele>123.17314910889</ele>
        <time>2020-08-16T16:04:15.353Z</time>
      </trkpt>
      <trkpt lat="44.5984" lon="0.79242">
        <ele>123.14137268066</ele>
        <time>2020-08-16T16:04:13.359Z</time>
      </trkpt>
      <trkpt lat="44.59839" lon="0.79238">
        <ele>123.1908493042</ele>
        <time>2020-08-16T16:04:11.367Z</time>
      </trkpt>
      <trkpt lat="44.59842" lon="0.79231">
        <ele>123.54001617432</ele>
        <time>2020-08-16T16:04:09.376Z</time>
      </trkpt>
      <trkpt lat="44.59844" lon="0.79227">
        <ele>123.71580505371</ele>
        <time>2020-08-16T16:04:07.386Z</time>
      </trkpt>
      <trkpt lat="44.59844" lon="0.79219">
        <ele>123.94415283203</ele>
        <time>2020-08-16T16:04:05.397Z</time>
      </trkpt>
      <trkpt lat="44.59844" lon="0.79215">
        <ele>124.09620666504</ele>
        <time>2020-08-16T16:04:03.409Z</time>
      </trkpt>
      <trkpt lat="44.59845" lon="0.79207">
        <ele>124.39237976074</ele>
        <time>2020-08-16T16:04:01.422Z</time>
      </trkpt>
      <trkpt lat="44.59846" lon="0.79201">
        <ele>124.68994903564</ele>
        <time>2020-08-16T16:03:59.437Z</time>
      </trkpt>
      <trkpt lat="44.59844" lon="0.79186">
        <ele>124.83559417725</ele>
        <time>2020-08-16T16:03:57.453Z</time>
      </trkpt>
      <trkpt lat="44.59843" lon="0.7918">
        <ele>124.8959274292</ele>
        <time>2020-08-16T16:03:55.471Z</time>
      </trkpt>
      <trkpt lat="44.59842" lon="0.79159">
        <ele>125.12240600586</ele>
        <time>2020-08-16T16:03:53.490Z</time>
      </trkpt>
      <trkpt lat="44.59846" lon="0.79125">
        <ele>125.78331756592</ele>
        <time>2020-08-16T16:03:51.513Z</time>
      </trkpt>
      <trkpt lat="44.59851" lon="0.79086">
        <ele>128.09866333008</ele>
        <time>2020-08-16T16:03:49.542Z</time>
      </trkpt>
      <trkpt lat="44.59851" lon="0.7908">
        <ele>128.50192260742</ele>
        <time>2020-08-16T16:03:47.578Z</time>
      </trkpt>
      <trkpt lat="44.59849" lon="0.79068">
        <ele>129.04147338867</ele>
        <time>2020-08-16T16:03:45.615Z</time>
      </trkpt>
      <trkpt lat="44.59846" lon="0.7904">
        <ele>130.56605529785</ele>
        <time>2020-08-16T16:03:43.654Z</time>
      </trkpt>
      <trkpt lat="44.59845" lon="0.79025">
        <ele>131.95697021484</ele>
        <time>2020-08-16T16:03:41.698Z</time>
      </trkpt>
      <trkpt lat="44.59843" lon="0.79013">
        <ele>133.35081481934</ele>
        <time>2020-08-16T16:03:39.745Z</time>
      </trkpt>
      <trkpt lat="44.59837" lon="0.79">
        <ele>134.38140869141</ele>
        <time>2020-08-16T16:03:37.794Z</time>
      </trkpt>
      <trkpt lat="44.59829" lon="0.78994">
        <ele>134.1569519043</ele>
        <time>2020-08-16T16:03:35.846Z</time>
      </trkpt>
      <trkpt lat="44.59821" lon="0.78986">
        <ele>134.14970397949</ele>
        <time>2020-08-16T16:03:33.900Z</time>
      </trkpt>
      <trkpt lat="44.5981" lon="0.78973">
        <ele>134.48278808594</ele>
        <time>2020-08-16T16:03:31.956Z</time>
      </trkpt>
      <trkpt lat="44.59804" lon="0.78963">
        <ele>134.28883361816</ele>
        <time>2020-08-16T16:03:30.016Z</time>
      </trkpt>
      <trkpt lat="44.59797" lon="0.78947">
        <ele>134.18263244629</ele>
        <time>2020-08-16T16:03:28.078Z</time>
      </trkpt>
      <trkpt lat="44.59791" lon="0.78932">
        <ele>134.27394104004</ele>
        <time>2020-08-16T16:03:26.144Z</time>
      </trkpt>
      <trkpt lat="44.59772" lon="0.78899">
        <ele>133.89094543457</ele>
        <time>2020-08-16T16:03:24.213Z</time>
      </trkpt>
      <trkpt lat="44.59757" lon="0.78876">
        <ele>133.39851379395</ele>
        <time>2020-08-16T16:03:22.289Z</time>
      </trkpt>
      <trkpt lat="44.59752" lon="0.78858">
        <ele>133.48570251465</ele>
        <time>2020-08-16T16:03:20.371Z</time>
      </trkpt>
      <trkpt lat="44.59753" lon="0.78852">
        <ele>133.75408935547</ele>
        <time>2020-08-16T16:03:18.456Z</time>
      </trkpt>
      <trkpt lat="44.59763" lon="0.78835">
        <ele>135.16604614258</ele>
        <time>2020-08-16T16:03:16.542Z</time>
      </trkpt>
      <trkpt lat="44.59771" lon="0.78795">
        <ele>137.2698059082</ele>
        <time>2020-08-16T16:03:14.632Z</time>
      </trkpt>
      <trkpt lat="44.59775" lon="0.78754">
        <ele>139.10150146484</ele>
        <time>2020-08-16T16:03:12.729Z</time>
      </trkpt>
      <trkpt lat="44.59777" lon="0.78731">
        <ele>140.07569885254</ele>
        <time>2020-08-16T16:03:10.833Z</time>
      </trkpt>
      <trkpt lat="44.59776" lon="0.78708">
        <ele>141.21797180176</ele>
        <time>2020-08-16T16:03:08.942Z</time>
      </trkpt>
      <trkpt lat="44.59771" lon="0.787">
        <ele>141.35191345215</ele>
        <time>2020-08-16T16:03:07.055Z</time>
      </trkpt>
      <trkpt lat="44.59769" lon="0.78697">
        <ele>141.37525939941</ele>
        <time>2020-08-16T16:03:05.169Z</time>
      </trkpt>
      <trkpt lat="44.5975" lon="0.78681">
        <ele>141.23124694824</ele>
        <time>2020-08-16T16:03:03.284Z</time>
      </trkpt>
      <trkpt lat="44.59741" lon="0.78678">
        <ele>140.92327880859</ele>
        <time>2020-08-16T16:03:01.405Z</time>
      </trkpt>
      <trkpt lat="44.59724" lon="0.78685">
        <ele>139.25126647949</ele>
        <time>2020-08-16T16:02:59.528Z</time>
      </trkpt>
      <trkpt lat="44.59717" lon="0.78692">
        <ele>138.23574829102</ele>
        <time>2020-08-16T16:02:57.655Z</time>
      </trkpt>
      <trkpt lat="44.59703" lon="0.78701">
        <ele>136.57460021973</ele>
        <time>2020-08-16T16:02:55.784Z</time>
      </trkpt>
      <trkpt lat="44.59696" lon="0.78702">
        <ele>135.91249084473</ele>
        <time>2020-08-16T16:02:53.917Z</time>
      </trkpt>
      <trkpt lat="44.59692" lon="0.78701">
        <ele>135.69929504395</ele>
        <time>2020-08-16T16:02:52.052Z</time>
      </trkpt>
      <trkpt lat="44.59688" lon="0.78698">
        <ele>135.5146484375</ele>
        <time>2020-08-16T16:02:50.188Z</time>
      </trkpt>
      <trkpt lat="44.59679" lon="0.78685">
        <ele>135.70310974121</ele>
        <time>2020-08-16T16:02:48.325Z</time>
      </trkpt>
      <trkpt lat="44.5967" lon="0.78671">
        <ele>136.00219726562</ele>
        <time>2020-08-16T16:02:46.465Z</time>
      </trkpt>
      <trkpt lat="44.59669" lon="0.78668">
        <ele>136.14791870117</ele>
        <time>2020-08-16T16:02:44.608Z</time>
      </trkpt>
      <trkpt lat="44.59669" lon="0.78657">
        <ele>136.8383026123</ele>
        <time>2020-08-16T16:02:42.752Z</time>
      </trkpt>
      <trkpt lat="44.59669" lon="0.78653">
        <ele>137.21603393555</ele>
        <time>2020-08-16T16:02:40.898Z</time>
      </trkpt>
      <trkpt lat="44.59673" lon="0.78645">
        <ele>138.13972473145</ele>
        <time>2020-08-16T16:02:39.045Z</time>
      </trkpt>
      <trkpt lat="44.59675" lon="0.78641">
        <ele>138.58976745605</ele>
        <time>2020-08-16T16:02:37.193Z</time>
      </trkpt>
      <trkpt lat="44.59676" lon="0.78631">
        <ele>139.34832763672</ele>
        <time>2020-08-16T16:02:35.342Z</time>
      </trkpt>
      <trkpt lat="44.59668" lon="0.78608">
        <ele>140.35871887207</ele>
        <time>2020-08-16T16:02:33.493Z</time>
      </trkpt>
      <trkpt lat="44.5966" lon="0.78585">
        <ele>141.35371398926</ele>
        <time>2020-08-16T16:02:31.648Z</time>
      </trkpt>
      <trkpt lat="44.59659" lon="0.78577">
        <ele>141.83834838867</ele>
        <time>2020-08-16T16:02:29.808Z</time>
      </trkpt>
      <trkpt lat="44.59658" lon="0.78574">
        <ele>141.91780090332</ele>
        <time>2020-08-16T16:02:27.969Z</time>
      </trkpt>
      <trkpt lat="44.59657" lon="0.78572">
        <ele>141.94715881348</ele>
        <time>2020-08-16T16:02:26.131Z</time>
      </trkpt>
      <trkpt lat="44.59654" lon="0.78568">
        <ele>142.03746032715</ele>
        <time>2020-08-16T16:02:24.293Z</time>
      </trkpt>
      <trkpt lat="44.59645" lon="0.78561">
        <ele>141.79420471191</ele>
        <time>2020-08-16T16:02:22.456Z</time>
      </trkpt>
      <trkpt lat="44.59638" lon="0.7856">
        <ele>141.28584289551</ele>
        <time>2020-08-16T16:02:20.622Z</time>
      </trkpt>
      <trkpt lat="44.5963" lon="0.78552">
        <ele>141.04710388184</ele>
        <time>2020-08-16T16:02:18.790Z</time>
      </trkpt>
      <trkpt lat="44.59627" lon="0.78548">
        <ele>140.93949890137</ele>
        <time>2020-08-16T16:02:16.960Z</time>
      </trkpt>
      <trkpt lat="44.59626" lon="0.78544">
        <ele>140.92370605469</ele>
        <time>2020-08-16T16:02:15.131Z</time>
      </trkpt>
      <trkpt lat="44.59624" lon="0.78542">
        <ele>140.82244873047</ele>
        <time>2020-08-16T16:02:13.303Z</time>
      </trkpt>
      <trkpt lat="44.59624" lon="0.78543">
        <ele>140.74761962891</ele>
        <time>2020-08-16T16:02:11.475Z</time>
      </trkpt>
      <trkpt lat="44.59625" lon="0.78549">
        <ele>140.70820617676</ele>
        <time>2020-08-16T16:02:09.647Z</time>
      </trkpt>
      <trkpt lat="44.59627" lon="0.78554">
        <ele>140.7562713623</ele>
        <time>2020-08-16T16:02:07.821Z</time>
      </trkpt>
      <trkpt lat="44.59628" lon="0.78556">
        <ele>140.66694641113</ele>
        <time>2020-08-16T16:02:05.996Z</time>
      </trkpt>
      <trkpt lat="44.59625" lon="0.78552">
        <ele>140.60673522949</ele>
        <time>2020-08-16T16:02:04.171Z</time>
      </trkpt>
      <trkpt lat="44.5962" lon="0.78542">
        <ele>140.46482849121</ele>
        <time>2020-08-16T16:02:02.347Z</time>
      </trkpt>
      <trkpt lat="44.59619" lon="0.78536">
        <ele>140.54156494141</ele>
        <time>2020-08-16T16:02:00.525Z</time>
      </trkpt>
      <trkpt lat="44.59619" lon="0.78529">
        <ele>140.63771057129</ele>
        <time>2020-08-16T16:01:58.704Z</time>
      </trkpt>
      <trkpt lat="44.59617" lon="0.78515">
        <ele>140.92649841309</ele>
        <time>2020-08-16T16:01:56.885Z</time>
      </trkpt>
      <trkpt lat="44.59611" lon="0.78479">
        <ele>141.74299621582</ele>
        <time>2020-08-16T16:01:55.068Z</time>
      </trkpt>
      <trkpt lat="44.59608" lon="0.78457">
        <ele>142.55923461914</ele>
        <time>2020-08-16T16:01:53.258Z</time>
      </trkpt>
      <trkpt lat="44.59607" lon="0.78449">
        <ele>142.95727539062</ele>
        <time>2020-08-16T16:01:51.451Z</time>
      </trkpt>
      <trkpt lat="44.59608" lon="0.7844">
        <ele>143.38217163086</ele>
        <time>2020-08-16T16:01:49.646Z</time>
      </trkpt>
      <trkpt lat="44.59611" lon="0.78415">
        <ele>144.63653564453</ele>
        <time>2020-08-16T16:01:47.842Z</time>
      </trkpt>
      <trkpt lat="44.59613" lon="0.784">
        <ele>145.37167358398</ele>
        <time>2020-08-16T16:01:46.043Z</time>
      </trkpt>
      <trkpt lat="44.59616" lon="0.78383">
        <ele>146.08721923828</ele>
        <time>2020-08-16T16:01:44.247Z</time>
      </trkpt>
      <trkpt lat="44.59616" lon="0.7837">
        <ele>146.07244873047</ele>
        <time>2020-08-16T16:01:42.454Z</time>
      </trkpt>
      <trkpt lat="44.59613" lon="0.78345">
        <ele>146.19372558594</ele>
        <time>2020-08-16T16:01:40.663Z</time>
      </trkpt>
      <trkpt lat="44.59613" lon="0.78339">
        <ele>146.19854736328</ele>
        <time>2020-08-16T16:01:38.877Z</time>
      </trkpt>
      <trkpt lat="44.59614" lon="0.78327">
        <ele>146.14544677734</ele>
        <time>2020-08-16T16:01:37.092Z</time>
      </trkpt>
      <trkpt lat="44.59618" lon="0.78314">
        <ele>146.01963806152</ele>
        <time>2020-08-16T16:01:35.309Z</time>
      </trkpt>
      <trkpt lat="44.59628" lon="0.7829">
        <ele>147.44017028809</ele>
        <time>2020-08-16T16:01:33.528Z</time>
      </trkpt>
      <trkpt lat="44.59633" lon="0.78278">
        <ele>148.37222290039</ele>
        <time>2020-08-16T16:01:31.752Z</time>
      </trkpt>
      <trkpt lat="44.59633" lon="0.78275">
        <ele>148.50416564941</ele>
        <time>2020-08-16T16:01:29.978Z</time>
      </trkpt>
      <trkpt lat="44.59627" lon="0.78269">
        <ele>148.35552978516</ele>
        <time>2020-08-16T16:01:28.205Z</time>
      </trkpt>
      <trkpt lat="44.59614" lon="0.78266">
        <ele>147.9449005127</ele>
        <time>2020-08-16T16:01:26.434Z</time>
      </trkpt>
      <trkpt lat="44.59607" lon="0.78262">
        <ele>148.3332824707</ele>
        <time>2020-08-16T16:01:24.666Z</time>
      </trkpt>
      <trkpt lat="44.59604" lon="0.78259">
        <ele>148.55876159668</ele>
        <time>2020-08-16T16:01:22.900Z</time>
      </trkpt>
      <trkpt lat="44.59595" lon="0.78253">
        <ele>149.03825378418</ele>
        <time>2020-08-16T16:01:21.135Z</time>
      </trkpt>
      <trkpt lat="44.59593" lon="0.78252">
        <ele>149.11991882324</ele>
        <time>2020-08-16T16:01:19.372Z</time>
      </trkpt>
      <trkpt lat="44.59591" lon="0.78249">
        <ele>149.31742858887</ele>
        <time>2020-08-16T16:01:17.610Z</time>
      </trkpt>
      <trkpt lat="44.59586" lon="0.78243">
        <ele>149.73376464844</ele>
        <time>2020-08-16T16:01:15.848Z</time>
      </trkpt>
      <trkpt lat="44.59573" lon="0.78233">
        <ele>150.54432678223</ele>
        <time>2020-08-16T16:01:14.088Z</time>
      </trkpt>
      <trkpt lat="44.59568" lon="0.78228">
        <ele>150.88444519043</ele>
        <time>2020-08-16T16:01:12.332Z</time>
      </trkpt>
      <trkpt lat="44.59566" lon="0.78226">
        <ele>151.00994873047</ele>
        <time>2020-08-16T16:01:10.577Z</time>
      </trkpt>
      <trkpt lat="44.59562" lon="0.78224">
        <ele>151.25091552734</ele>
        <time>2020-08-16T16:01:08.823Z</time>
      </trkpt>
      <trkpt lat="44.59561" lon="0.78223">
        <ele>151.30480957031</ele>
        <time>2020-08-16T16:01:07.070Z</time>
      </trkpt>
      <trkpt lat="44.59554" lon="0.78218">
        <ele>151.57499694824</ele>
        <time>2020-08-16T16:01:05.317Z</time>
      </trkpt>
      <trkpt lat="44.5955" lon="0.78216">
        <ele>151.7099609375</ele>
        <time>2020-08-16T16:01:03.566Z</time>
      </trkpt>
      <trkpt lat="44.59545" lon="0.78214">
        <ele>151.84924316406</ele>
        <time>2020-08-16T16:01:01.816Z</time>
      </trkpt>
      <trkpt lat="44.59538" lon="0.78215">
        <ele>152.00823974609</ele>
        <time>2020-08-16T16:01:00.067Z</time>
      </trkpt>
      <trkpt lat="44.59535" lon="0.78216">
        <ele>152.06491088867</ele>
        <time>2020-08-16T16:00:58.320Z</time>
      </trkpt>
      <trkpt lat="44.59531" lon="0.78211">
        <ele>151.90692138672</ele>
        <time>2020-08-16T16:00:56.574Z</time>
      </trkpt>
      <trkpt lat="44.59536" lon="0.78195">
        <ele>152.29797363281</ele>
        <time>2020-08-16T16:00:54.829Z</time>
      </trkpt>
      <trkpt lat="44.59552" lon="0.78165">
        <ele>152.2673034668</ele>
        <time>2020-08-16T16:00:53.087Z</time>
      </trkpt>
      <trkpt lat="44.59566" lon="0.7814">
        <ele>152.92379760742</ele>
        <time>2020-08-16T16:00:51.352Z</time>
      </trkpt>
      <trkpt lat="44.59599" lon="0.78093">
        <ele>155.37435913086</ele>
        <time>2020-08-16T16:00:49.623Z</time>
      </trkpt>
      <trkpt lat="44.59615" lon="0.78068">
        <ele>157.92733764648</ele>
        <time>2020-08-16T16:00:47.905Z</time>
      </trkpt>
      <trkpt lat="44.59621" lon="0.78054">
        <ele>158.90077209473</ele>
        <time>2020-08-16T16:00:46.193Z</time>
      </trkpt>
      <trkpt lat="44.59646" lon="0.78002">
        <ele>158.00080871582</ele>
        <time>2020-08-16T16:00:44.484Z</time>
      </trkpt>
      <trkpt lat="44.59653" lon="0.77991">
        <ele>158.99391174316</ele>
        <time>2020-08-16T16:00:42.786Z</time>
      </trkpt>
      <trkpt lat="44.59698" lon="0.77928">
        <ele>165.14875793457</ele>
        <time>2020-08-16T16:00:41.090Z</time>
      </trkpt>
      <trkpt lat="44.59705" lon="0.77918">
        <ele>166.29347229004</ele>
        <time>2020-08-16T16:00:39.410Z</time>
      </trkpt>
      <trkpt lat="44.59717" lon="0.77897">
        <ele>167.94073486328</ele>
        <time>2020-08-16T16:00:37.733Z</time>
      </trkpt>
      <trkpt lat="44.59725" lon="0.77878">
        <ele>169.25918579102</ele>
        <time>2020-08-16T16:00:36.060Z</time>
      </trkpt>
      <trkpt lat="44.59729" lon="0.77868">
        <ele>169.52738952637</ele>
        <time>2020-08-16T16:00:34.391Z</time>
      </trkpt>
      <trkpt lat="44.59732" lon="0.77859">
        <ele>169.78735351562</ele>
        <time>2020-08-16T16:00:32.724Z</time>
      </trkpt>
      <trkpt lat="44.59755" lon="0.77803">
        <ele>172.8624420166</ele>
        <time>2020-08-16T16:00:31.059Z</time>
      </trkpt>
      <trkpt lat="44.59763" lon="0.77784">
        <ele>173.40490722656</ele>
        <time>2020-08-16T16:00:29.405Z</time>
      </trkpt>
      <trkpt lat="44.5977" lon="0.77767">
        <ele>173.91416931152</ele>
        <time>2020-08-16T16:00:27.755Z</time>
      </trkpt>
      <trkpt lat="44.59779" lon="0.77741">
        <ele>174.54109191895</ele>
        <time>2020-08-16T16:00:26.108Z</time>
      </trkpt>
      <trkpt lat="44.59784" lon="0.77725">
        <ele>174.95985412598</ele>
        <time>2020-08-16T16:00:24.466Z</time>
      </trkpt>
      <trkpt lat="44.59804" lon="0.77675">
        <ele>178.00997924805</ele>
        <time>2020-08-16T16:00:22.828Z</time>
      </trkpt>
      <trkpt lat="44.5981" lon="0.77659">
        <ele>179.13854980469</ele>
        <time>2020-08-16T16:00:21.200Z</time>
      </trkpt>
      <trkpt lat="44.59823" lon="0.77628">
        <ele>182.25198364258</ele>
        <time>2020-08-16T16:00:19.575Z</time>
      </trkpt>
      <trkpt lat="44.59826" lon="0.77621">
        <ele>182.96035766602</ele>
        <time>2020-08-16T16:00:17.956Z</time>
      </trkpt>
      <trkpt lat="44.5983" lon="0.77607">
        <ele>184.14262390137</ele>
        <time>2020-08-16T16:00:16.339Z</time>
      </trkpt>
      <trkpt lat="44.59833" lon="0.77595">
        <ele>184.9861907959</ele>
        <time>2020-08-16T16:00:14.724Z</time>
      </trkpt>
      <trkpt lat="44.59834" lon="0.77583">
        <ele>185.52290344238</ele>
        <time>2020-08-16T16:00:13.111Z</time>
      </trkpt>
      <trkpt lat="44.59835" lon="0.77563">
        <ele>186.3371887207</ele>
        <time>2020-08-16T16:00:11.501Z</time>
      </trkpt>
      <trkpt lat="44.59836" lon="0.77538">
        <ele>186.8603515625</ele>
        <time>2020-08-16T16:00:09.894Z</time>
      </trkpt>
      <trkpt lat="44.59834" lon="0.77527">
        <ele>186.83139038086</ele>
        <time>2020-08-16T16:00:08.291Z</time>
      </trkpt>
      <trkpt lat="44.59834" lon="0.77489">
        <ele>186.58053588867</ele>
        <time>2020-08-16T16:00:06.690Z</time>
      </trkpt>
      <trkpt lat="44.5984" lon="0.77454">
        <ele>186.21632385254</ele>
        <time>2020-08-16T16:00:05.096Z</time>
      </trkpt>
      <trkpt lat="44.59842" lon="0.7744">
        <ele>186.08164978027</ele>
        <time>2020-08-16T16:00:03.508Z</time>
      </trkpt>
      <trkpt lat="44.59845" lon="0.77425">
        <ele>186.29525756836</ele>
        <time>2020-08-16T16:00:01.923Z</time>
      </trkpt>
      <trkpt lat="44.5986" lon="0.77378">
        <ele>187.55337524414</ele>
        <time>2020-08-16T16:00:00.341Z</time>
      </trkpt>
      <trkpt lat="44.59872" lon="0.77341">
        <ele>190.35420227051</ele>
        <time>2020-08-16T15:59:58.768Z</time>
      </trkpt>
      <trkpt lat="44.59876" lon="0.77333">
        <ele>190.79528808594</ele>
        <time>2020-08-16T15:59:57.202Z</time>
      </trkpt>
      <trkpt lat="44.59879" lon="0.77321">
        <ele>191.46466064453</ele>
        <time>2020-08-16T15:59:55.637Z</time>
      </trkpt>
      <trkpt lat="44.59883" lon="0.77306">
        <ele>191.63740539551</ele>
        <time>2020-08-16T15:59:54.075Z</time>
      </trkpt>
      <trkpt lat="44.59884" lon="0.77303">
        <ele>191.63311767578</ele>
        <time>2020-08-16T15:59:52.516Z</time>
      </trkpt>
      <trkpt lat="44.59888" lon="0.77286">
        <ele>191.75570678711</ele>
        <time>2020-08-16T15:59:50.957Z</time>
      </trkpt>
      <trkpt lat="44.59889" lon="0.7728">
        <ele>191.80197143555</ele>
        <time>2020-08-16T15:59:49.401Z</time>
      </trkpt>
      <trkpt lat="44.59889" lon="0.77274">
        <ele>191.85948181152</ele>
        <time>2020-08-16T15:59:47.846Z</time>
      </trkpt>
      <trkpt lat="44.5989" lon="0.77252">
        <ele>192.11653137207</ele>
        <time>2020-08-16T15:59:46.292Z</time>
      </trkpt>
      <trkpt lat="44.59891" lon="0.77238">
        <ele>192.1918182373</ele>
        <time>2020-08-16T15:59:44.742Z</time>
      </trkpt>
      <trkpt lat="44.59893" lon="0.77219">
        <ele>191.89729309082</ele>
        <time>2020-08-16T15:59:43.195Z</time>
      </trkpt>
      <trkpt lat="44.59895" lon="0.77212">
        <ele>191.17512512207</ele>
        <time>2020-08-16T15:59:41.651Z</time>
      </trkpt>
      <trkpt lat="44.59896" lon="0.77205">
        <ele>190.42491149902</ele>
        <time>2020-08-16T15:59:40.108Z</time>
      </trkpt>
      <trkpt lat="44.59897" lon="0.77181">
        <ele>188.1385345459</ele>
        <time>2020-08-16T15:59:38.567Z</time>
      </trkpt>
      <trkpt lat="44.59899" lon="0.77155">
        <ele>186.34736633301</ele>
        <time>2020-08-16T15:59:37.030Z</time>
      </trkpt>
      <trkpt lat="44.59903" lon="0.77132">
        <ele>185.83364868164</ele>
        <time>2020-08-16T15:59:35.497Z</time>
      </trkpt>
      <trkpt lat="44.59916" lon="0.77109">
        <ele>186.13896179199</ele>
        <time>2020-08-16T15:59:33.969Z</time>
      </trkpt>
      <trkpt lat="44.59934" lon="0.77094">
        <ele>187.82341003418</ele>
        <time>2020-08-16T15:59:32.446Z</time>
      </trkpt>
      <trkpt lat="44.59947" lon="0.77082">
        <ele>189.33471679688</ele>
        <time>2020-08-16T15:59:30.928Z</time>
      </trkpt>
      <trkpt lat="44.59966" lon="0.77066">
        <ele>190.26351928711</ele>
        <time>2020-08-16T15:59:29.414Z</time>
      </trkpt>
      <trkpt lat="44.59968" lon="0.77063">
        <ele>190.09838867188</ele>
        <time>2020-08-16T15:59:27.905Z</time>
      </trkpt>
      <trkpt lat="44.59978" lon="0.77055">
        <ele>189.40296936035</ele>
        <time>2020-08-16T15:59:26.397Z</time>
      </trkpt>
      <trkpt lat="44.59984" lon="0.77047">
        <ele>189.20993041992</ele>
        <time>2020-08-16T15:59:24.892Z</time>
      </trkpt>
      <trkpt lat="44.59988" lon="0.77044">
        <ele>189.05848693848</ele>
        <time>2020-08-16T15:59:23.389Z</time>
      </trkpt>
      <trkpt lat="44.6" lon="0.77033">
        <ele>188.58018493652</ele>
        <time>2020-08-16T15:59:21.887Z</time>
      </trkpt>
      <trkpt lat="44.60013" lon="0.77021">
        <ele>188.27412414551</ele>
        <time>2020-08-16T15:59:20.388Z</time>
      </trkpt>
      <trkpt lat="44.60024" lon="0.7701">
        <ele>188.15756225586</ele>
        <time>2020-08-16T15:59:18.893Z</time>
      </trkpt>
      <trkpt lat="44.60035" lon="0.76997">
        <ele>188.06211853027</ele>
        <time>2020-08-16T15:59:17.401Z</time>
      </trkpt>
      <trkpt lat="44.60036" lon="0.76993">
        <ele>188.17277526855</ele>
        <time>2020-08-16T15:59:15.913Z</time>
      </trkpt>
      <trkpt lat="44.60036" lon="0.76991">
        <ele>188.28471374512</ele>
        <time>2020-08-16T15:59:14.426Z</time>
      </trkpt>
      <trkpt lat="44.60044" lon="0.76979">
        <ele>188.36819458008</ele>
        <time>2020-08-16T15:59:12.939Z</time>
      </trkpt>
      <trkpt lat="44.60057" lon="0.76964">
        <ele>187.44786071777</ele>
        <time>2020-08-16T15:59:11.455Z</time>
      </trkpt>
      <trkpt lat="44.60068" lon="0.76954">
        <ele>186.18817138672</ele>
        <time>2020-08-16T15:59:09.975Z</time>
      </trkpt>
      <trkpt lat="44.60081" lon="0.76945">
        <ele>184.90333557129</ele>
        <time>2020-08-16T15:59:08.499Z</time>
      </trkpt>
      <trkpt lat="44.60096" lon="0.7694">
        <ele>183.91307067871</ele>
        <time>2020-08-16T15:59:07.026Z</time>
      </trkpt>
      <trkpt lat="44.60107" lon="0.76938">
        <ele>183.4338684082</ele>
        <time>2020-08-16T15:59:05.557Z</time>
      </trkpt>
      <trkpt lat="44.60118" lon="0.76929">
        <ele>182.49819946289</ele>
        <time>2020-08-16T15:59:04.091Z</time>
      </trkpt>
      <trkpt lat="44.60127" lon="0.76919">
        <ele>181.06965637207</ele>
        <time>2020-08-16T15:59:02.628Z</time>
      </trkpt>
      <trkpt lat="44.60132" lon="0.76909">
        <ele>179.96160888672</ele>
        <time>2020-08-16T15:59:01.168Z</time>
      </trkpt>
      <trkpt lat="44.60138" lon="0.76905">
        <ele>179.25779724121</ele>
        <time>2020-08-16T15:58:59.710Z</time>
      </trkpt>
      <trkpt lat="44.60151" lon="0.76903">
        <ele>178.60241699219</ele>
        <time>2020-08-16T15:58:58.253Z</time>
      </trkpt>
      <trkpt lat="44.60166" lon="0.76904">
        <ele>177.9143371582</ele>
        <time>2020-08-16T15:58:56.800Z</time>
      </trkpt>
      <trkpt lat="44.60185" lon="0.76902">
        <ele>176.9877166748</ele>
        <time>2020-08-16T15:58:55.350Z</time>
      </trkpt>
      <trkpt lat="44.60197" lon="0.76905">
        <ele>176.43168640137</ele>
        <time>2020-08-16T15:58:53.905Z</time>
      </trkpt>
      <trkpt lat="44.60213" lon="0.76909">
        <ele>175.42835998535</ele>
        <time>2020-08-16T15:58:52.463Z</time>
      </trkpt>
      <trkpt lat="44.60241" lon="0.76916">
        <ele>173.53118896484</ele>
        <time>2020-08-16T15:58:51.025Z</time>
      </trkpt>
      <trkpt lat="44.6026" lon="0.76918">
        <ele>172.13883972168</ele>
        <time>2020-08-16T15:58:49.594Z</time>
      </trkpt>
      <trkpt lat="44.60281" lon="0.76916">
        <ele>170.63236999512</ele>
        <time>2020-08-16T15:58:48.168Z</time>
      </trkpt>
      <trkpt lat="44.60296" lon="0.7691">
        <ele>169.60952758789</ele>
        <time>2020-08-16T15:58:46.747Z</time>
      </trkpt>
      <trkpt lat="44.60318" lon="0.76898">
        <ele>168.16841125488</ele>
        <time>2020-08-16T15:58:45.329Z</time>
      </trkpt>
      <trkpt lat="44.60337" lon="0.7689">
        <ele>166.92953491211</ele>
        <time>2020-08-16T15:58:43.917Z</time>
      </trkpt>
      <trkpt lat="44.60356" lon="0.76881">
        <ele>165.58851623535</ele>
        <time>2020-08-16T15:58:42.510Z</time>
      </trkpt>
      <trkpt lat="44.60375" lon="0.76869">
        <ele>164.78509521484</ele>
        <time>2020-08-16T15:58:41.108Z</time>
      </trkpt>
      <trkpt lat="44.60392" lon="0.76856">
        <ele>165.07662963867</ele>
        <time>2020-08-16T15:58:39.711Z</time>
      </trkpt>
      <trkpt lat="44.60401" lon="0.76842">
        <ele>165.0883026123</ele>
        <time>2020-08-16T15:58:38.319Z</time>
      </trkpt>
      <trkpt lat="44.60413" lon="0.76828">
        <ele>164.39433288574</ele>
        <time>2020-08-16T15:58:36.930Z</time>
      </trkpt>
      <trkpt lat="44.60427" lon="0.76806">
        <ele>163.10005187988</ele>
        <time>2020-08-16T15:58:35.545Z</time>
      </trkpt>
      <trkpt lat="44.60449" lon="0.76778">
        <ele>161.09910583496</ele>
        <time>2020-08-16T15:58:34.165Z</time>
      </trkpt>
      <trkpt lat="44.60466" lon="0.76755">
        <ele>159.60676574707</ele>
        <time>2020-08-16T15:58:32.793Z</time>
      </trkpt>
      <trkpt lat="44.6048" lon="0.76734">
        <ele>159.16371154785</ele>
        <time>2020-08-16T15:58:31.426Z</time>
      </trkpt>
      <trkpt lat="44.60493" lon="0.76713">
        <ele>159.74908447266</ele>
        <time>2020-08-16T15:58:30.064Z</time>
      </trkpt>
      <trkpt lat="44.60494" lon="0.76699">
        <ele>159.50973510742</ele>
        <time>2020-08-16T15:58:28.707Z</time>
      </trkpt>
      <trkpt lat="44.60485" lon="0.76689">
        <ele>158.59759521484</ele>
        <time>2020-08-16T15:58:27.353Z</time>
      </trkpt>
      <trkpt lat="44.60477" lon="0.76681">
        <ele>157.86386108398</ele>
        <time>2020-08-16T15:58:26.002Z</time>
      </trkpt>
      <trkpt lat="44.60467" lon="0.76671">
        <ele>156.87127685547</ele>
        <time>2020-08-16T15:58:24.653Z</time>
      </trkpt>
      <trkpt lat="44.60455" lon="0.76662">
        <ele>155.81030273438</ele>
        <time>2020-08-16T15:58:23.307Z</time>
      </trkpt>
      <trkpt lat="44.60427" lon="0.76638">
        <ele>156.80195617676</ele>
        <time>2020-08-16T15:58:21.964Z</time>
      </trkpt>
      <trkpt lat="44.60406" lon="0.7662">
        <ele>157.44404602051</ele>
        <time>2020-08-16T15:58:20.629Z</time>
      </trkpt>
      <trkpt lat="44.60402" lon="0.76616">
        <ele>157.59107971191</ele>
        <time>2020-08-16T15:58:19.300Z</time>
      </trkpt>
      <trkpt lat="44.60379" lon="0.76599">
        <ele>158.3338470459</ele>
        <time>2020-08-16T15:58:17.973Z</time>
      </trkpt>
      <trkpt lat="44.60362" lon="0.76587">
        <ele>158.43682861328</ele>
        <time>2020-08-16T15:58:16.652Z</time>
      </trkpt>
      <trkpt lat="44.60348" lon="0.76576">
        <ele>157.5574798584</ele>
        <time>2020-08-16T15:58:15.335Z</time>
      </trkpt>
      <trkpt lat="44.60328" lon="0.76562">
        <ele>156.40699768066</ele>
        <time>2020-08-16T15:58:14.022Z</time>
      </trkpt>
      <trkpt lat="44.60309" lon="0.76549">
        <ele>155.36622619629</ele>
        <time>2020-08-16T15:58:12.715Z</time>
      </trkpt>
      <trkpt lat="44.60294" lon="0.76535">
        <ele>154.5196685791</ele>
        <time>2020-08-16T15:58:11.413Z</time>
      </trkpt>
      <trkpt lat="44.60265" lon="0.76516">
        <ele>153.37138366699</ele>
        <time>2020-08-16T15:58:10.116Z</time>
      </trkpt>
      <trkpt lat="44.60243" lon="0.765">
        <ele>152.51847839355</ele>
        <time>2020-08-16T15:58:08.826Z</time>
      </trkpt>
      <trkpt lat="44.60223" lon="0.76487">
        <ele>151.81321716309</ele>
        <time>2020-08-16T15:58:07.543Z</time>
      </trkpt>
      <trkpt lat="44.60204" lon="0.76476">
        <ele>151.21513366699</ele>
        <time>2020-08-16T15:58:06.265Z</time>
      </trkpt>
      <trkpt lat="44.60182" lon="0.76461">
        <ele>150.87557983398</ele>
        <time>2020-08-16T15:58:04.992Z</time>
      </trkpt>
      <trkpt lat="44.60178" lon="0.76458">
        <ele>150.8413848877</ele>
        <time>2020-08-16T15:58:03.725Z</time>
      </trkpt>
      <trkpt lat="44.60171" lon="0.76451">
        <ele>150.75408935547</ele>
        <time>2020-08-16T15:58:02.459Z</time>
      </trkpt>
      <trkpt lat="44.60159" lon="0.76441">
        <ele>150.63342285156</ele>
        <time>2020-08-16T15:58:01.195Z</time>
      </trkpt>
      <trkpt lat="44.60141" lon="0.76427">
        <ele>150.46949768066</ele>
        <time>2020-08-16T15:57:59.935Z</time>
      </trkpt>
      <trkpt lat="44.60128" lon="0.76418">
        <ele>150.35705566406</ele>
        <time>2020-08-16T15:57:58.680Z</time>
      </trkpt>
      <trkpt lat="44.60116" lon="0.76406">
        <ele>150.22160339355</ele>
        <time>2020-08-16T15:57:57.428Z</time>
      </trkpt>
      <trkpt lat="44.60101" lon="0.76394">
        <ele>150.07748413086</ele>
        <time>2020-08-16T15:57:56.180Z</time>
      </trkpt>
      <trkpt lat="44.60084" lon="0.76381">
        <ele>149.77116394043</ele>
        <time>2020-08-16T15:57:54.936Z</time>
      </trkpt>
      <trkpt lat="44.60065" lon="0.76369">
        <ele>149.31831359863</ele>
        <time>2020-08-16T15:57:53.697Z</time>
      </trkpt>
      <trkpt lat="44.60051" lon="0.76351">
        <ele>148.67237854004</ele>
        <time>2020-08-16T15:57:52.463Z</time>
      </trkpt>
      <trkpt lat="44.60048" lon="0.76346">
        <ele>148.50253295898</ele>
        <time>2020-08-16T15:57:51.234Z</time>
      </trkpt>
      <trkpt lat="44.60043" lon="0.7633">
        <ele>147.93202209473</ele>
        <time>2020-08-16T15:57:50.006Z</time>
      </trkpt>
      <trkpt lat="44.60041" lon="0.76325">
        <ele>147.72535705566</ele>
        <time>2020-08-16T15:57:48.781Z</time>
      </trkpt>
      <trkpt lat="44.6004" lon="0.76319">
        <ele>147.5132598877</ele>
        <time>2020-08-16T15:57:47.557Z</time>
      </trkpt>
      <trkpt lat="44.60033" lon="0.76308">
        <ele>147.27005004883</ele>
        <time>2020-08-16T15:57:46.334Z</time>
      </trkpt>
      <trkpt lat="44.60029" lon="0.76305">
        <ele>147.49421691895</ele>
        <time>2020-08-16T15:57:45.113Z</time>
      </trkpt>
      <trkpt lat="44.60021" lon="0.76298">
        <ele>147.93180847168</ele>
        <time>2020-08-16T15:57:43.894Z</time>
      </trkpt>
      <trkpt lat="44.60013" lon="0.76293">
        <ele>148.27534484863</ele>
        <time>2020-08-16T15:57:42.677Z</time>
      </trkpt>
      <trkpt lat="44.60005" lon="0.76288">
        <ele>148.73321533203</ele>
        <time>2020-08-16T15:57:41.462Z</time>
      </trkpt>
      <trkpt lat="44.59995" lon="0.76282">
        <ele>149.31549072266</ele>
        <time>2020-08-16T15:57:40.249Z</time>
      </trkpt>
      <trkpt lat="44.59966" lon="0.7627">
        <ele>151.18663024902</ele>
        <time>2020-08-16T15:57:39.039Z</time>
      </trkpt>
      <trkpt lat="44.59946" lon="0.7627">
        <ele>152.0059967041</ele>
        <time>2020-08-16T15:57:37.836Z</time>
      </trkpt>
      <trkpt lat="44.59938" lon="0.76265">
        <ele>151.28363037109</ele>
        <time>2020-08-16T15:57:36.638Z</time>
      </trkpt>
      <trkpt lat="44.5992" lon="0.76254">
        <ele>149.69618225098</ele>
        <time>2020-08-16T15:57:35.442Z</time>
      </trkpt>
      <trkpt lat="44.59903" lon="0.76244">
        <ele>148.16024780273</ele>
        <time>2020-08-16T15:57:34.251Z</time>
      </trkpt>
      <trkpt lat="44.59888" lon="0.76237">
        <ele>146.96310424805</ele>
        <time>2020-08-16T15:57:33.065Z</time>
      </trkpt>
      <trkpt lat="44.59864" lon="0.76226">
        <ele>145.07897949219</ele>
        <time>2020-08-16T15:57:31.883Z</time>
      </trkpt>
      <trkpt lat="44.59849" lon="0.76216">
        <ele>144.46734619141</ele>
        <time>2020-08-16T15:57:30.707Z</time>
      </trkpt>
      <trkpt lat="44.59842" lon="0.76196">
        <ele>144.05944824219</ele>
        <time>2020-08-16T15:57:29.535Z</time>
      </trkpt>
      <trkpt lat="44.59843" lon="0.76168">
        <ele>143.4323425293</ele>
        <time>2020-08-16T15:57:28.367Z</time>
      </trkpt>
      <trkpt lat="44.59848" lon="0.76139">
        <ele>142.79565429688</ele>
        <time>2020-08-16T15:57:27.204Z</time>
      </trkpt>
      <trkpt lat="44.59853" lon="0.76112">
        <ele>142.06130981445</ele>
        <time>2020-08-16T15:57:26.046Z</time>
      </trkpt>
      <trkpt lat="44.59857" lon="0.76082">
        <ele>140.98063659668</ele>
        <time>2020-08-16T15:57:24.893Z</time>
      </trkpt>
      <trkpt lat="44.59863" lon="0.76033">
        <ele>139.8641204834</ele>
        <time>2020-08-16T15:57:23.745Z</time>
      </trkpt>
      <trkpt lat="44.59864" lon="0.76026">
        <ele>139.76234436035</ele>
        <time>2020-08-16T15:57:22.606Z</time>
      </trkpt>
      <trkpt lat="44.59869" lon="0.75999">
        <ele>139.34593200684</ele>
        <time>2020-08-16T15:57:21.468Z</time>
      </trkpt>
      <trkpt lat="44.5988" lon="0.75953">
        <ele>138.64231872559</ele>
        <time>2020-08-16T15:57:20.335Z</time>
      </trkpt>
      <trkpt lat="44.59894" lon="0.759">
        <ele>137.8335723877</ele>
        <time>2020-08-16T15:57:19.211Z</time>
      </trkpt>
      <trkpt lat="44.59902" lon="0.75871">
        <ele>137.39851379395</ele>
        <time>2020-08-16T15:57:18.097Z</time>
      </trkpt>
      <trkpt lat="44.59904" lon="0.75856">
        <ele>137.18461608887</ele>
        <time>2020-08-16T15:57:16.988Z</time>
      </trkpt>
      <trkpt lat="44.59905" lon="0.75847">
        <ele>137.07681274414</ele>
        <time>2020-08-16T15:57:15.882Z</time>
      </trkpt>
      <trkpt lat="44.59907" lon="0.75813">
        <ele>137</ele>
        <time>2020-08-16T15:57:14.777Z</time>
      </trkpt>
      <trkpt lat="44.59911" lon="0.75797">
        <ele>137.17207336426</ele>
        <time>2020-08-16T15:57:13.678Z</time>
      </trkpt>
      <trkpt lat="44.59915" lon="0.75792">
        <ele>137.29696655273</ele>
        <time>2020-08-16T15:57:12.582Z</time>
      </trkpt>
      <trkpt lat="44.5992" lon="0.75789">
        <ele>137.37420654297</ele>
        <time>2020-08-16T15:57:11.488Z</time>
      </trkpt>
      <trkpt lat="44.5993" lon="0.75791">
        <ele>137.32774353027</ele>
        <time>2020-08-16T15:57:10.395Z</time>
      </trkpt>
      <trkpt lat="44.59966" lon="0.75809">
        <ele>137.75598144531</ele>
        <time>2020-08-16T15:57:09.304Z</time>
      </trkpt>
      <trkpt lat="44.59971" lon="0.75812">
        <ele>137.98164367676</ele>
        <time>2020-08-16T15:57:08.223Z</time>
      </trkpt>
      <trkpt lat="44.59994" lon="0.75823">
        <ele>139.09854125977</ele>
        <time>2020-08-16T15:57:07.143Z</time>
      </trkpt>
      <trkpt lat="44.60002" lon="0.75826">
        <ele>139.50210571289</ele>
        <time>2020-08-16T15:57:06.069Z</time>
      </trkpt>
      <trkpt lat="44.60006" lon="0.75826">
        <ele>139.73812866211</ele>
        <time>2020-08-16T15:57:04.997Z</time>
      </trkpt>
      <trkpt lat="44.60016" lon="0.7581">
        <ele>140.75325012207</ele>
        <time>2020-08-16T15:57:03.926Z</time>
      </trkpt>
      <trkpt lat="44.6005" lon="0.75752">
        <ele>142.87007141113</ele>
        <time>2020-08-16T15:57:02.859Z</time>
      </trkpt>
      <trkpt lat="44.60079" lon="0.757">
        <ele>145.7220916748</ele>
        <time>2020-08-16T15:57:01.805Z</time>
      </trkpt>
      <trkpt lat="44.60098" lon="0.75669">
        <ele>146.55348205566</ele>
        <time>2020-08-16T15:57:00.763Z</time>
      </trkpt>
      <trkpt lat="44.60106" lon="0.75659">
        <ele>146.76124572754</ele>
        <time>2020-08-16T15:56:59.728Z</time>
      </trkpt>
      <trkpt lat="44.60135" lon="0.75619">
        <ele>149.19941711426</ele>
        <time>2020-08-16T15:56:58.695Z</time>
      </trkpt>
      <trkpt lat="44.60153" lon="0.75593">
        <ele>151.70320129395</ele>
        <time>2020-08-16T15:56:57.672Z</time>
      </trkpt>
      <trkpt lat="44.60159" lon="0.75585">
        <ele>152.80862426758</ele>
        <time>2020-08-16T15:56:56.656Z</time>
      </trkpt>
      <trkpt lat="44.60164" lon="0.75575">
        <ele>154.03392028809</ele>
        <time>2020-08-16T15:56:55.642Z</time>
      </trkpt>
      <trkpt lat="44.60182" lon="0.75544">
        <ele>158.37837219238</ele>
        <time>2020-08-16T15:56:54.630Z</time>
      </trkpt>
      <trkpt lat="44.60204" lon="0.75508">
        <ele>163.21932983398</ele>
        <time>2020-08-16T15:56:53.625Z</time>
      </trkpt>
      <trkpt lat="44.60222" lon="0.75475">
        <ele>165.24186706543</ele>
        <time>2020-08-16T15:56:52.628Z</time>
      </trkpt>
      <trkpt lat="44.60231" lon="0.75456">
        <ele>165.53422546387</ele>
        <time>2020-08-16T15:56:51.638Z</time>
      </trkpt>
      <trkpt lat="44.60234" lon="0.7545">
        <ele>165.52044677734</ele>
        <time>2020-08-16T15:56:50.652Z</time>
      </trkpt>
      <trkpt lat="44.60241" lon="0.75429">
        <ele>165.45185852051</ele>
        <time>2020-08-16T15:56:49.668Z</time>
      </trkpt>
      <trkpt lat="44.60252" lon="0.75412">
        <ele>166.1215057373</ele>
        <time>2020-08-16T15:56:48.688Z</time>
      </trkpt>
      <trkpt lat="44.60254" lon="0.75409">
        <ele>166.27143859863</ele>
        <time>2020-08-16T15:56:47.712Z</time>
      </trkpt>
      <trkpt lat="44.60272" lon="0.75407">
        <ele>167.150390625</ele>
        <time>2020-08-16T15:56:46.737Z</time>
      </trkpt>
      <trkpt lat="44.60286" lon="0.75412">
        <ele>167.70460510254</ele>
        <time>2020-08-16T15:56:45.766Z</time>
      </trkpt>
      <trkpt lat="44.60302" lon="0.75416">
        <ele>167.44877624512</ele>
        <time>2020-08-16T15:56:44.798Z</time>
      </trkpt>
      <trkpt lat="44.60316" lon="0.75421">
        <ele>167.22158813477</ele>
        <time>2020-08-16T15:56:43.834Z</time>
      </trkpt>
      <trkpt lat="44.60336" lon="0.75434">
        <ele>166.88349914551</ele>
        <time>2020-08-16T15:56:42.874Z</time>
      </trkpt>
      <trkpt lat="44.60353" lon="0.75442">
        <ele>166.68800354004</ele>
        <time>2020-08-16T15:56:41.919Z</time>
      </trkpt>
      <trkpt lat="44.60375" lon="0.75456">
        <ele>166.42376708984</ele>
        <time>2020-08-16T15:56:40.969Z</time>
      </trkpt>
      <trkpt lat="44.60393" lon="0.75472">
        <ele>166.26205444336</ele>
        <time>2020-08-16T15:56:40.025Z</time>
      </trkpt>
      <trkpt lat="44.60396" lon="0.75476">
        <ele>166.21549987793</ele>
        <time>2020-08-16T15:56:39.086Z</time>
      </trkpt>
      <trkpt lat="44.60407" lon="0.75482">
        <ele>166.18542480469</ele>
        <time>2020-08-16T15:56:38.148Z</time>
      </trkpt>
      <trkpt lat="44.60414" lon="0.75489">
        <ele>166.11210632324</ele>
        <time>2020-08-16T15:56:37.213Z</time>
      </trkpt>
      <trkpt lat="44.60422" lon="0.75494">
        <ele>166.09561157227</ele>
        <time>2020-08-16T15:56:36.280Z</time>
      </trkpt>
      <trkpt lat="44.60435" lon="0.755">
        <ele>166.09552001953</ele>
        <time>2020-08-16T15:56:35.349Z</time>
      </trkpt>
      <trkpt lat="44.60444" lon="0.75505">
        <ele>166.08586120605</ele>
        <time>2020-08-16T15:56:34.421Z</time>
      </trkpt>
      <trkpt lat="44.60448" lon="0.75507">
        <ele>166.10104370117</ele>
        <time>2020-08-16T15:56:33.496Z</time>
      </trkpt>
      <trkpt lat="44.60457" lon="0.7551">
        <ele>166.07211303711</ele>
        <time>2020-08-16T15:56:32.572Z</time>
      </trkpt>
      <trkpt lat="44.60466" lon="0.75513">
        <ele>165.98924255371</ele>
        <time>2020-08-16T15:56:31.650Z</time>
      </trkpt>
      <trkpt lat="44.6047" lon="0.75515">
        <ele>165.94882202148</ele>
        <time>2020-08-16T15:56:30.730Z</time>
      </trkpt>
      <trkpt lat="44.60484" lon="0.75515">
        <ele>165.93090820312</ele>
        <time>2020-08-16T15:56:29.811Z</time>
      </trkpt>
      <trkpt lat="44.60492" lon="0.75516">
        <ele>165.92849731445</ele>
        <time>2020-08-16T15:56:28.896Z</time>
      </trkpt>
      <trkpt lat="44.60501" lon="0.75515">
        <ele>165.8842010498</ele>
        <time>2020-08-16T15:56:27.983Z</time>
      </trkpt>
      <trkpt lat="44.60519" lon="0.75515">
        <ele>165.66195678711</ele>
        <time>2020-08-16T15:56:27.072Z</time>
      </trkpt>
      <trkpt lat="44.6053" lon="0.75511">
        <ele>165.57406616211</ele>
        <time>2020-08-16T15:56:26.165Z</time>
      </trkpt>
      <trkpt lat="44.60539" lon="0.7551">
        <ele>165.57940673828</ele>
        <time>2020-08-16T15:56:25.261Z</time>
      </trkpt>
      <trkpt lat="44.60557" lon="0.75508">
        <ele>165.81604003906</ele>
        <time>2020-08-16T15:56:24.360Z</time>
      </trkpt>
      <trkpt lat="44.60567" lon="0.75508">
        <ele>165.94364929199</ele>
        <time>2020-08-16T15:56:23.463Z</time>
      </trkpt>
      <trkpt lat="44.60578" lon="0.75509">
        <ele>165.90130615234</ele>
        <time>2020-08-16T15:56:22.568Z</time>
      </trkpt>
      <trkpt lat="44.60606" lon="0.75508">
        <ele>165.2025604248</ele>
        <time>2020-08-16T15:56:21.676Z</time>
      </trkpt>
      <trkpt lat="44.60611" lon="0.75508">
        <ele>165.0645904541</ele>
        <time>2020-08-16T15:56:20.791Z</time>
      </trkpt>
      <trkpt lat="44.60647" lon="0.75504">
        <ele>166.15776062012</ele>
        <time>2020-08-16T15:56:19.907Z</time>
      </trkpt>
      <trkpt lat="44.60653" lon="0.75503">
        <ele>166.44215393066</ele>
        <time>2020-08-16T15:56:19.032Z</time>
      </trkpt>
      <trkpt lat="44.60677" lon="0.75502">
        <ele>167.5616607666</ele>
        <time>2020-08-16T15:56:18.159Z</time>
      </trkpt>
      <trkpt lat="44.60683" lon="0.75502">
        <ele>167.85350036621</ele>
        <time>2020-08-16T15:56:17.291Z</time>
      </trkpt>
      <trkpt lat="44.60708" lon="0.75502">
        <ele>168.82669067383</ele>
        <time>2020-08-16T15:56:16.425Z</time>
      </trkpt>
      <trkpt lat="44.6072" lon="0.75503">
        <ele>168.99905395508</ele>
        <time>2020-08-16T15:56:15.565Z</time>
      </trkpt>
      <trkpt lat="44.60746" lon="0.75503">
        <ele>169.29522705078</ele>
        <time>2020-08-16T15:56:14.708Z</time>
      </trkpt>
      <trkpt lat="44.60777" lon="0.75502">
        <ele>169.65182495117</ele>
        <time>2020-08-16T15:56:13.857Z</time>
      </trkpt>
      <trkpt lat="44.60784" lon="0.75502">
        <ele>169.73037719727</ele>
        <time>2020-08-16T15:56:13.014Z</time>
      </trkpt>
      <trkpt lat="44.60796" lon="0.75502">
        <ele>170.28547668457</ele>
        <time>2020-08-16T15:56:12.173Z</time>
      </trkpt>
      <trkpt lat="44.60818" lon="0.75498">
        <ele>171.09512329102</ele>
        <time>2020-08-16T15:56:11.335Z</time>
      </trkpt>
      <trkpt lat="44.60826" lon="0.75496">
        <ele>171.16369628906</ele>
        <time>2020-08-16T15:56:10.502Z</time>
      </trkpt>
      <trkpt lat="44.6086" lon="0.7548">
        <ele>171.2172088623</ele>
        <time>2020-08-16T15:56:09.671Z</time>
      </trkpt>
      <trkpt lat="44.60871" lon="0.75474">
        <ele>171.00759887695</ele>
        <time>2020-08-16T15:56:08.849Z</time>
      </trkpt>
      <trkpt lat="44.60885" lon="0.75464">
        <ele>171.29173278809</ele>
        <time>2020-08-16T15:56:08.030Z</time>
      </trkpt>
      <trkpt lat="44.60889" lon="0.75462">
        <ele>171.31607055664</ele>
        <time>2020-08-16T15:56:07.215Z</time>
      </trkpt>
      <trkpt lat="44.60906" lon="0.75456">
        <ele>171.74328613281</ele>
        <time>2020-08-16T15:56:06.401Z</time>
      </trkpt>
      <trkpt lat="44.60924" lon="0.75445">
        <ele>171.78994750977</ele>
        <time>2020-08-16T15:56:05.591Z</time>
      </trkpt>
      <trkpt lat="44.60937" lon="0.75434">
        <ele>172.9857635498</ele>
        <time>2020-08-16T15:56:04.786Z</time>
      </trkpt>
      <trkpt lat="44.60954" lon="0.75425">
        <ele>174.18594360352</ele>
        <time>2020-08-16T15:56:03.985Z</time>
      </trkpt>
      <trkpt lat="44.60971" lon="0.75416">
        <ele>172.03623962402</ele>
        <time>2020-08-16T15:56:03.188Z</time>
      </trkpt>
      <trkpt lat="44.60982" lon="0.75408">
        <ele>171.57067871094</ele>
        <time>2020-08-16T15:56:02.395Z</time>
      </trkpt>
      <trkpt lat="44.60996" lon="0.75401">
        <ele>171.82008361816</ele>
        <time>2020-08-16T15:56:01.605Z</time>
      </trkpt>
      <trkpt lat="44.61009" lon="0.75396">
        <ele>171.9200592041</ele>
        <time>2020-08-16T15:56:00.819Z</time>
      </trkpt>
      <trkpt lat="44.61027" lon="0.75387">
        <ele>172.14056396484</ele>
        <time>2020-08-16T15:56:00.036Z</time>
      </trkpt>
      <trkpt lat="44.6104" lon="0.75381">
        <ele>171.48127746582</ele>
        <time>2020-08-16T15:55:59.258Z</time>
      </trkpt>
      <trkpt lat="44.61056" lon="0.75374">
        <ele>169.47900390625</ele>
        <time>2020-08-16T15:55:58.483Z</time>
      </trkpt>
      <trkpt lat="44.61071" lon="0.75368">
        <ele>167.73419189453</ele>
        <time>2020-08-16T15:55:57.713Z</time>
      </trkpt>
      <trkpt lat="44.61086" lon="0.75364">
        <ele>165.91897583008</ele>
        <time>2020-08-16T15:55:56.946Z</time>
      </trkpt>
      <trkpt lat="44.61103" lon="0.75359">
        <ele>164.66694641113</ele>
        <time>2020-08-16T15:55:56.183Z</time>
      </trkpt>
      <trkpt lat="44.61116" lon="0.75354">
        <ele>164.20533752441</ele>
        <time>2020-08-16T15:55:55.424Z</time>
      </trkpt>
      <trkpt lat="44.61134" lon="0.75351">
        <ele>162.75997924805</ele>
        <time>2020-08-16T15:55:54.669Z</time>
      </trkpt>
      <trkpt lat="44.61157" lon="0.75347">
        <ele>160.72653198242</ele>
        <time>2020-08-16T15:55:53.918Z</time>
      </trkpt>
      <trkpt lat="44.61175" lon="0.75347">
        <ele>159.08227539062</ele>
        <time>2020-08-16T15:55:53.173Z</time>
      </trkpt>
      <trkpt lat="44.61191" lon="0.75344">
        <ele>157.60334777832</ele>
        <time>2020-08-16T15:55:52.432Z</time>
      </trkpt>
      <trkpt lat="44.61208" lon="0.75342">
        <ele>156.25872802734</ele>
        <time>2020-08-16T15:55:51.695Z</time>
      </trkpt>
      <trkpt lat="44.61221" lon="0.75339">
        <ele>155.28785705566</ele>
        <time>2020-08-16T15:55:50.962Z</time>
      </trkpt>
      <trkpt lat="44.6123" lon="0.75339">
        <ele>154.54154968262</ele>
        <time>2020-08-16T15:55:50.233Z</time>
      </trkpt>
      <trkpt lat="44.61247" lon="0.75336">
        <ele>153.9158782959</ele>
        <time>2020-08-16T15:55:49.506Z</time>
      </trkpt>
      <trkpt lat="44.61261" lon="0.75335">
        <ele>153.60029602051</ele>
        <time>2020-08-16T15:55:48.783Z</time>
      </trkpt>
      <trkpt lat="44.61272" lon="0.75332">
        <ele>153.49531555176</ele>
        <time>2020-08-16T15:55:48.063Z</time>
      </trkpt>
      <trkpt lat="44.61277" lon="0.75331">
        <ele>153.37794494629</ele>
        <time>2020-08-16T15:55:47.346Z</time>
      </trkpt>
      <trkpt lat="44.61281" lon="0.7533">
        <ele>153.34144592285</ele>
        <time>2020-08-16T15:55:46.631Z</time>
      </trkpt>
      <trkpt lat="44.61293" lon="0.7533">
        <ele>152.63345336914</ele>
        <time>2020-08-16T15:55:45.916Z</time>
      </trkpt>
      <trkpt lat="44.61306" lon="0.75338">
        <ele>150.84228515625</ele>
        <time>2020-08-16T15:55:45.204Z</time>
      </trkpt>
      <trkpt lat="44.61316" lon="0.75344">
        <ele>149.48886108398</ele>
        <time>2020-08-16T15:55:44.496Z</time>
      </trkpt>
      <trkpt lat="44.61333" lon="0.75356">
        <ele>146.95066833496</ele>
        <time>2020-08-16T15:55:43.791Z</time>
      </trkpt>
      <trkpt lat="44.61346" lon="0.75365">
        <ele>145.04002380371</ele>
        <time>2020-08-16T15:55:43.090Z</time>
      </trkpt>
      <trkpt lat="44.61361" lon="0.75377">
        <ele>142.67904663086</ele>
        <time>2020-08-16T15:55:42.393Z</time>
      </trkpt>
      <trkpt lat="44.61379" lon="0.7539">
        <ele>140.81123352051</ele>
        <time>2020-08-16T15:55:41.700Z</time>
      </trkpt>
      <trkpt lat="44.61392" lon="0.75402">
        <ele>140.37739562988</ele>
        <time>2020-08-16T15:55:41.012Z</time>
      </trkpt>
      <trkpt lat="44.6141" lon="0.75415">
        <ele>139.82800292969</ele>
        <time>2020-08-16T15:55:40.328Z</time>
      </trkpt>
      <trkpt lat="44.61426" lon="0.75428">
        <ele>139.34588623047</ele>
        <time>2020-08-16T15:55:39.649Z</time>
      </trkpt>
      <trkpt lat="44.61435" lon="0.75433">
        <ele>139.11598205566</ele>
        <time>2020-08-16T15:55:38.974Z</time>
      </trkpt>
      <trkpt lat="44.61439" lon="0.75431">
        <ele>139.1251373291</ele>
        <time>2020-08-16T15:55:38.302Z</time>
      </trkpt>
      <trkpt lat="44.61446" lon="0.75433">
        <ele>138.98022460938</ele>
        <time>2020-08-16T15:55:37.631Z</time>
      </trkpt>
      <trkpt lat="44.61459" lon="0.75439">
        <ele>138.42823791504</ele>
        <time>2020-08-16T15:55:36.961Z</time>
      </trkpt>
      <trkpt lat="44.61469" lon="0.75438">
        <ele>137.99078369141</ele>
        <time>2020-08-16T15:55:36.295Z</time>
      </trkpt>
      <trkpt lat="44.61478" lon="0.75437">
        <ele>137.55714416504</ele>
        <time>2020-08-16T15:55:35.631Z</time>
      </trkpt>
      <trkpt lat="44.61488" lon="0.7544">
        <ele>137.03559875488</ele>
        <time>2020-08-16T15:55:34.970Z</time>
      </trkpt>
      <trkpt lat="44.61499" lon="0.75441">
        <ele>136.47706604004</ele>
        <time>2020-08-16T15:55:34.311Z</time>
      </trkpt>
      <trkpt lat="44.61509" lon="0.75442">
        <ele>135.8581237793</ele>
        <time>2020-08-16T15:55:33.655Z</time>
      </trkpt>
      <trkpt lat="44.6151" lon="0.75442">
        <ele>135.73431396484</ele>
        <time>2020-08-16T15:55:33.001Z</time>
      </trkpt>
      <trkpt lat="44.61517" lon="0.75441">
        <ele>135.15194702148</ele>
        <time>2020-08-16T15:55:32.348Z</time>
      </trkpt>
      <trkpt lat="44.61526" lon="0.7544">
        <ele>134.44093322754</ele>
        <time>2020-08-16T15:55:31.696Z</time>
      </trkpt>
      <trkpt lat="44.61537" lon="0.7544">
        <ele>133.41871643066</ele>
        <time>2020-08-16T15:55:31.046Z</time>
      </trkpt>
      <trkpt lat="44.6155" lon="0.75438">
        <ele>131.07904052734</ele>
        <time>2020-08-16T15:55:30.399Z</time>
      </trkpt>
      <trkpt lat="44.61573" lon="0.75437">
        <ele>127.20231628418</ele>
        <time>2020-08-16T15:55:29.755Z</time>
      </trkpt>
      <trkpt lat="44.61597" lon="0.75435">
        <ele>123.17585754395</ele>
        <time>2020-08-16T15:55:29.117Z</time>
      </trkpt>
      <trkpt lat="44.61622" lon="0.75433">
        <ele>119.37377929688</ele>
        <time>2020-08-16T15:55:28.485Z</time>
      </trkpt>
      <trkpt lat="44.61644" lon="0.75432">
        <ele>118.30908966064</ele>
        <time>2020-08-16T15:55:27.859Z</time>
      </trkpt>
      <trkpt lat="44.61672" lon="0.7543">
        <ele>117.34046173096</ele>
        <time>2020-08-16T15:55:27.238Z</time>
      </trkpt>
      <trkpt lat="44.61694" lon="0.75429">
        <ele>117.11157989502</ele>
        <time>2020-08-16T15:55:26.624Z</time>
      </trkpt>
      <trkpt lat="44.61715" lon="0.75427">
        <ele>117.0629119873</ele>
        <time>2020-08-16T15:55:26.016Z</time>
      </trkpt>
      <trkpt lat="44.61744" lon="0.75424">
        <ele>117.0531539917</ele>
        <time>2020-08-16T15:55:25.413Z</time>
      </trkpt>
      <trkpt lat="44.6177" lon="0.75426">
        <ele>116.71776580811</ele>
        <time>2020-08-16T15:55:24.817Z</time>
      </trkpt>
      <trkpt lat="44.61795" lon="0.75429">
        <ele>116.26829528809</ele>
        <time>2020-08-16T15:55:24.227Z</time>
      </trkpt>
      <trkpt lat="44.6183" lon="0.75434">
        <ele>115.37255096436</ele>
        <time>2020-08-16T15:55:23.644Z</time>
      </trkpt>
      <trkpt lat="44.61859" lon="0.75438">
        <ele>114.35669708252</ele>
        <time>2020-08-16T15:55:23.069Z</time>
      </trkpt>
      <trkpt lat="44.61891" lon="0.75442">
        <ele>113.45378875732</ele>
        <time>2020-08-16T15:55:22.501Z</time>
      </trkpt>
      <trkpt lat="44.61922" lon="0.75443">
        <ele>112.72408294678</ele>
        <time>2020-08-16T15:55:21.941Z</time>
      </trkpt>
      <trkpt lat="44.61947" lon="0.75443">
        <ele>111.54753112793</ele>
        <time>2020-08-16T15:55:21.389Z</time>
      </trkpt>
      <trkpt lat="44.61977" lon="0.75442">
        <ele>111.00949859619</ele>
        <time>2020-08-16T15:55:20.843Z</time>
      </trkpt>
      <trkpt lat="44.62009" lon="0.75441">
        <ele>110.68324279785</ele>
        <time>2020-08-16T15:55:20.304Z</time>
      </trkpt>
      <trkpt lat="44.62038" lon="0.75444">
        <ele>110.92177581787</ele>
        <time>2020-08-16T15:55:19.773Z</time>
      </trkpt>
      <trkpt lat="44.62063" lon="0.75449">
        <ele>109.99375152588</ele>
        <time>2020-08-16T15:55:19.249Z</time>
      </trkpt>
      <trkpt lat="44.62068" lon="0.7545">
        <ele>109.83264923096</ele>
        <time>2020-08-16T15:55:18.732Z</time>
      </trkpt>
      <trkpt lat="44.62085" lon="0.75453">
        <ele>109.19667053223</ele>
        <time>2020-08-16T15:55:18.216Z</time>
      </trkpt>
      <trkpt lat="44.62094" lon="0.75453">
        <ele>108.88018798828</ele>
        <time>2020-08-16T15:55:17.704Z</time>
      </trkpt>
      <trkpt lat="44.62103" lon="0.75455">
        <ele>108.57523345947</ele>
        <time>2020-08-16T15:55:17.194Z</time>
      </trkpt>
      <trkpt lat="44.62112" lon="0.75457">
        <ele>108.51278686523</ele>
        <time>2020-08-16T15:55:16.686Z</time>
      </trkpt>
      <trkpt lat="44.62116" lon="0.75457">
        <ele>108.50584411621</ele>
        <time>2020-08-16T15:55:16.181Z</time>
      </trkpt>
      <trkpt lat="44.62124" lon="0.75456">
        <ele>108.45741271973</ele>
        <time>2020-08-16T15:55:15.677Z</time>
      </trkpt>
      <trkpt lat="44.62132" lon="0.75459">
        <ele>108.26824951172</ele>
        <time>2020-08-16T15:55:15.175Z</time>
      </trkpt>
      <trkpt lat="44.62149" lon="0.75461">
        <ele>108.00114440918</ele>
        <time>2020-08-16T15:55:14.675Z</time>
      </trkpt>
      <trkpt lat="44.62157" lon="0.75462">
        <ele>107.85683441162</ele>
        <time>2020-08-16T15:55:14.179Z</time>
      </trkpt>
      <trkpt lat="44.62185" lon="0.75463">
        <ele>107.47277069092</ele>
        <time>2020-08-16T15:55:13.685Z</time>
      </trkpt>
      <trkpt lat="44.6221" lon="0.75459">
        <ele>107.33037567139</ele>
        <time>2020-08-16T15:55:13.198Z</time>
      </trkpt>
      <trkpt lat="44.62218" lon="0.75456">
        <ele>107.33519744873</ele>
        <time>2020-08-16T15:55:12.717Z</time>
      </trkpt>
      <trkpt lat="44.62237" lon="0.75459">
        <ele>107.00071716309</ele>
        <time>2020-08-16T15:55:12.238Z</time>
      </trkpt>
      <trkpt lat="44.62242" lon="0.7546">
        <ele>106.91292572021</ele>
        <time>2020-08-16T15:55:11.764Z</time>
      </trkpt>
      <trkpt lat="44.62276" lon="0.75456">
        <ele>106.52558135986</ele>
        <time>2020-08-16T15:55:11.291Z</time>
      </trkpt>
      <trkpt lat="44.62317" lon="0.75455">
        <ele>106.19687652588</ele>
        <time>2020-08-16T15:55:10.826Z</time>
      </trkpt>
      <trkpt lat="44.6236" lon="0.7545">
        <ele>105.81741333008</ele>
        <time>2020-08-16T15:55:10.371Z</time>
      </trkpt>
      <trkpt lat="44.62404" lon="0.75432">
        <ele>105.4974822998</ele>
        <time>2020-08-16T15:55:09.927Z</time>
      </trkpt>
      <trkpt lat="44.62414" lon="0.75427">
        <ele>105.61511993408</ele>
        <time>2020-08-16T15:55:09.494Z</time>
      </trkpt>
      <trkpt lat="44.62435" lon="0.75407">
        <ele>106.37268066406</ele>
        <time>2020-08-16T15:55:09.064Z</time>
      </trkpt>
      <trkpt lat="44.62458" lon="0.75376">
        <ele>106.65001678467</ele>
        <time>2020-08-16T15:55:08.640Z</time>
      </trkpt>
      <trkpt lat="44.62472" lon="0.75356">
        <ele>106.1223449707</ele>
        <time>2020-08-16T15:55:08.224Z</time>
      </trkpt>
      <trkpt lat="44.62492" lon="0.75327">
        <ele>105.9158706665</ele>
        <time>2020-08-16T15:55:07.813Z</time>
      </trkpt>
      <trkpt lat="44.62513" lon="0.75298">
        <ele>106.48211669922</ele>
        <time>2020-08-16T15:55:07.409Z</time>
      </trkpt>
      <trkpt lat="44.62533" lon="0.75267">
        <ele>106.05435943604</ele>
        <time>2020-08-16T15:55:07.012Z</time>
      </trkpt>
      <trkpt lat="44.62539" lon="0.75257">
        <ele>105.63368225098</ele>
        <time>2020-08-16T15:55:06.622Z</time>
      </trkpt>
      <trkpt lat="44.62547" lon="0.75244">
        <ele>104.68212890625</ele>
        <time>2020-08-16T15:55:06.234Z</time>
      </trkpt>
      <trkpt lat="44.6255" lon="0.75239">
        <ele>104.34925079346</ele>
        <time>2020-08-16T15:55:05.850Z</time>
      </trkpt>
      <trkpt lat="44.62563" lon="0.75223">
        <ele>104.02921295166</ele>
        <time>2020-08-16T15:55:05.467Z</time>
      </trkpt>
      <trkpt lat="44.6257" lon="0.75215">
        <ele>103.51811981201</ele>
        <time>2020-08-16T15:55:05.088Z</time>
      </trkpt>
      <trkpt lat="44.62583" lon="0.75199">
        <ele>102.17707061768</ele>
        <time>2020-08-16T15:55:04.711Z</time>
      </trkpt>
      <trkpt lat="44.6259" lon="0.75193">
        <ele>101.62445831299</ele>
        <time>2020-08-16T15:55:04.338Z</time>
      </trkpt>
      <trkpt lat="44.62594" lon="0.75189">
        <ele>101.6696395874</ele>
        <time>2020-08-16T15:55:03.967Z</time>
      </trkpt>
      <trkpt lat="44.62622" lon="0.75161">
        <ele>101.70986175537</ele>
        <time>2020-08-16T15:55:03.598Z</time>
      </trkpt>
      <trkpt lat="44.62643" lon="0.75141">
        <ele>101</ele>
        <time>2020-08-16T15:55:03.237Z</time>
      </trkpt>
      <trkpt lat="44.62647" lon="0.75138">
        <ele>101</ele>
        <time>2020-08-16T15:55:02.882Z</time>
      </trkpt>
      <trkpt lat="44.62674" lon="0.75117">
        <ele>99.788269042969</ele>
        <time>2020-08-16T15:55:02.528Z</time>
      </trkpt>
      <trkpt lat="44.62704" lon="0.75096">
        <ele>99.986976623535</ele>
        <time>2020-08-16T15:55:02.182Z</time>
      </trkpt>
      <trkpt lat="44.6274" lon="0.75065">
        <ele>99.134544372559</ele>
        <time>2020-08-16T15:55:01.844Z</time>
      </trkpt>
      <trkpt lat="44.62743" lon="0.75062">
        <ele>99.099647521973</ele>
        <time>2020-08-16T15:55:01.516Z</time>
      </trkpt>
      <trkpt lat="44.62766" lon="0.75037">
        <ele>98.38330078125</ele>
        <time>2020-08-16T15:55:01.189Z</time>
      </trkpt>
      <trkpt lat="44.62791" lon="0.75006">
        <ele>98.241355895996</ele>
        <time>2020-08-16T15:55:00.870Z</time>
      </trkpt>
      <trkpt lat="44.62794" lon="0.75002">
        <ele>98.080757141113</ele>
        <time>2020-08-16T15:55:00.559Z</time>
      </trkpt>
      <trkpt lat="44.62813" lon="0.74979">
        <ele>98.042945861816</ele>
        <time>2020-08-16T15:55:00.249Z</time>
      </trkpt>
      <trkpt lat="44.62842" lon="0.74944">
        <ele>97.399513244629</ele>
        <time>2020-08-16T15:54:59.945Z</time>
      </trkpt>
      <trkpt lat="44.62858" lon="0.74927">
        <ele>97.970024108887</ele>
        <time>2020-08-16T15:54:59.650Z</time>
      </trkpt>
      <trkpt lat="44.62878" lon="0.74906">
        <ele>97.768562316895</ele>
        <time>2020-08-16T15:54:59.360Z</time>
      </trkpt>
      <trkpt lat="44.62897" lon="0.74886">
        <ele>97.275215148926</ele>
        <time>2020-08-16T15:54:59.077Z</time>
      </trkpt>
      <trkpt lat="44.62919" lon="0.7486">
        <ele>95.482322692871</ele>
        <time>2020-08-16T15:54:58.799Z</time>
      </trkpt>
      <trkpt lat="44.62947" lon="0.74829">
        <ele>95.23225402832</ele>
        <time>2020-08-16T15:54:58.528Z</time>
      </trkpt>
      <trkpt lat="44.62966" lon="0.74807">
        <ele>94.512016296387</ele>
        <time>2020-08-16T15:54:58.266Z</time>
      </trkpt>
      <trkpt lat="44.62985" lon="0.74783">
        <ele>93.027671813965</ele>
        <time>2020-08-16T15:54:58.010Z</time>
      </trkpt>
      <trkpt lat="44.63015" lon="0.74743">
        <ele>92</ele>
        <time>2020-08-16T15:54:57.761Z</time>
      </trkpt>
      <trkpt lat="44.63052" lon="0.74689">
        <ele>91.425163269043</ele>
        <time>2020-08-16T15:54:57.522Z</time>
      </trkpt>
      <trkpt lat="44.63079" lon="0.74649">
        <ele>91</ele>
        <time>2020-08-16T15:54:57.296Z</time>
      </trkpt>
      <trkpt lat="44.6309" lon="0.7464">
        <ele>91</ele>
        <time>2020-08-16T15:54:57.079Z</time>
      </trkpt>
      <trkpt lat="44.63102" lon="0.74633">
        <ele>90.899528503418</ele>
        <time>2020-08-16T15:54:56.865Z</time>
      </trkpt>
      <trkpt lat="44.6314" lon="0.74618">
        <ele>90.771255493164</ele>
        <time>2020-08-16T15:54:56.655Z</time>
      </trkpt>
      <trkpt lat="44.63175" lon="0.74611">
        <ele>90.687187194824</ele>
        <time>2020-08-16T15:54:56.454Z</time>
      </trkpt>
      <trkpt lat="44.63185" lon="0.74612">
        <ele>90.789047241211</ele>
        <time>2020-08-16T15:54:56.262Z</time>
      </trkpt>
      <trkpt lat="44.63246" lon="0.74614">
        <ele>94.716438293457</ele>
        <time>2020-08-16T15:54:56.072Z</time>
      </trkpt>
      <trkpt lat="44.63296" lon="0.74613">
        <ele>98.720756530762</ele>
        <time>2020-08-16T15:54:55.898Z</time>
      </trkpt>
      <trkpt lat="44.63327" lon="0.74609">
        <ele>102.33268737793</ele>
        <time>2020-08-16T15:54:55.736Z</time>
      </trkpt>
      <trkpt lat="44.63361" lon="0.74595">
        <ele>106.46991729736</ele>
        <time>2020-08-16T15:54:55.581Z</time>
      </trkpt>
      <trkpt lat="44.6337" lon="0.7459">
        <ele>107.41335296631</ele>
        <time>2020-08-16T15:54:55.435Z</time>
      </trkpt>
      <trkpt lat="44.63377" lon="0.74584">
        <ele>107.26210021973</ele>
        <time>2020-08-16T15:54:55.292Z</time>
      </trkpt>
      <trkpt lat="44.63385" lon="0.74579">
        <ele>107.11457061768</ele>
        <time>2020-08-16T15:54:55.151Z</time>
      </trkpt>
      <trkpt lat="44.63406" lon="0.74563">
        <ele>107.67897033691</ele>
        <time>2020-08-16T15:54:55.011Z</time>
      </trkpt>
      <trkpt lat="44.63438" lon="0.74537">
        <ele>108.29470062256</ele>
        <time>2020-08-16T15:54:54.877Z</time>
      </trkpt>
      <trkpt lat="44.63459" lon="0.74521">
        <ele>108.3503036499</ele>
        <time>2020-08-16T15:54:54.753Z</time>
      </trkpt>
      <trkpt lat="44.63485" lon="0.74507">
        <ele>107.25403594971</ele>
        <time>2020-08-16T15:54:54.634Z</time>
      </trkpt>
      <trkpt lat="44.63511" lon="0.74491">
        <ele>106.58841705322</ele>
        <time>2020-08-16T15:54:54.522Z</time>
      </trkpt>
      <trkpt lat="44.63519" lon="0.74486">
        <ele>106.40216827393</ele>
        <time>2020-08-16T15:54:54.417Z</time>
      </trkpt>
      <trkpt lat="44.63527" lon="0.7448">
        <ele>106.20908355713</ele>
        <time>2020-08-16T15:54:54.314Z</time>
      </trkpt>
      <trkpt lat="44.6353" lon="0.74476">
        <ele>106.12842559814</ele>
        <time>2020-08-16T15:54:54.214Z</time>
      </trkpt>
      <trkpt lat="44.63533" lon="0.74471">
        <ele>106.06225585938</ele>
        <time>2020-08-16T15:54:54.115Z</time>
      </trkpt>
      <trkpt lat="44.63537" lon="0.74458">
        <ele>105.66841125488</ele>
        <time>2020-08-16T15:54:54.017Z</time>
      </trkpt>
      <trkpt lat="44.63538" lon="0.74455">
        <ele>105.56080627441</ele>
        <time>2020-08-16T15:54:53.921Z</time>
      </trkpt>
      <trkpt lat="44.63535" lon="0.74439">
        <ele>105.26212310791</ele>
        <time>2020-08-16T15:54:53.826Z</time>
      </trkpt>
      <trkpt lat="44.63523" lon="0.7441">
        <ele>104.84296417236</ele>
        <time>2020-08-16T15:54:53.734Z</time>
      </trkpt>
      <trkpt lat="44.63514" lon="0.74375">
        <ele>103.58692932129</ele>
        <time>2020-08-16T15:54:53.648Z</time>
      </trkpt>
      <trkpt lat="44.63519" lon="0.74345">
        <ele>102.59812164307</ele>
        <time>2020-08-16T15:54:53.568Z</time>
      </trkpt>
      <trkpt lat="44.6353" lon="0.7432">
        <ele>102.22743225098</ele>
        <time>2020-08-16T15:54:53.493Z</time>
      </trkpt>
      <trkpt lat="44.63541" lon="0.74281">
        <ele>101.16468811035</ele>
        <time>2020-08-16T15:54:53.424Z</time>
      </trkpt>
      <trkpt lat="44.63549" lon="0.74253">
        <ele>100.14615631104</ele>
        <time>2020-08-16T15:54:53.362Z</time>
      </trkpt>
      <trkpt lat="44.63553" lon="0.74239">
        <ele>99.643524169922</ele>
        <time>2020-08-16T15:54:53.305Z</time>
      </trkpt>
      <trkpt lat="44.63562" lon="0.74207">
        <ele>98.977165222168</ele>
        <time>2020-08-16T15:54:53.251Z</time>
      </trkpt>
      <trkpt lat="44.63572" lon="0.74174">
        <ele>97.65633392334</ele>
        <time>2020-08-16T15:54:53.203Z</time>
      </trkpt>
      <trkpt lat="44.63581" lon="0.74142">
        <ele>97.304504394531</ele>
        <time>2020-08-16T15:54:53.161Z</time>
      </trkpt>
      <trkpt lat="44.63589" lon="0.74113">
        <ele>96.062225341797</ele>
        <time>2020-08-16T15:54:53.125Z</time>
      </trkpt>
      <trkpt lat="44.636" lon="0.74078">
        <ele>94.992813110352</ele>
        <time>2020-08-16T15:54:53.095Z</time>
      </trkpt>
      <trkpt lat="44.63604" lon="0.74059">
        <ele>94.341041564941</ele>
        <time>2020-08-16T15:54:53.071Z</time>
      </trkpt>
      <trkpt lat="44.63607" lon="0.74048">
        <ele>94.274803161621</ele>
        <time>2020-08-16T15:54:53.051Z</time>
      </trkpt>
      <trkpt lat="44.63619" lon="0.74006">
        <ele>93.283645629883</ele>
        <time>2020-08-16T15:54:53.033Z</time>
      </trkpt>
      <trkpt lat="44.63622" lon="0.73991">
        <ele>92.76643371582</ele>
        <time>2020-08-16T15:54:53.023Z</time>
      </trkpt>
      <trkpt lat="44.63625" lon="0.73981">
        <ele>92.438888549805</ele>
        <time>2020-08-16T15:54:53.015Z</time>
      </trkpt>
      <trkpt lat="44.6363" lon="0.73973">
        <ele>92.314552307129</ele>
        <time>2020-08-16T15:54:53.009Z</time>
      </trkpt>
      <trkpt lat="44.63634" lon="0.7397">
        <ele>92.334663391113</ele>
        <time>2020-08-16T15:54:53.005Z</time>
      </trkpt>
      <trkpt lat="44.63637" lon="0.73969">
        <ele>92.406471252441</ele>
        <time>2020-08-16T15:54:53.002Z</time>
      </trkpt>
      <trkpt lat="44.63644" lon="0.73973">
        <ele>92.65747833252</ele>
        <time>2020-08-16T15:54:53.000Z</time>
      </trkpt>
      <trkpt lat="44.63654" lon="0.73972">
        <ele>92.851776123047</ele>
        <time>2020-08-16T18:32:52.447Z</time>
      </trkpt>
      <trkpt lat="44.63654" lon="0.73972">
        <ele>92.86988067627</ele>
        <time>2020-08-16T18:32:44.138Z</time>
      </trkpt>
      <trkpt lat="44.63656" lon="0.73975">
        <ele>92.986335754395</ele>
        <time>2020-08-16T18:32:35.829Z</time>
      </trkpt>
      <trkpt lat="44.63663" lon="0.73985">
        <ele>93.407501220703</ele>
        <time>2020-08-16T18:32:27.521Z</time>
      </trkpt>
      <trkpt lat="44.63666" lon="0.73989">
        <ele>93.566596984863</ele>
        <time>2020-08-16T18:32:19.216Z</time>
      </trkpt>
      <trkpt lat="44.637" lon="0.74016">
        <ele>95.03044128418</ele>
        <time>2020-08-16T18:32:10.912Z</time>
      </trkpt>
      <trkpt lat="44.63729" lon="0.74039">
        <ele>94.013580322266</ele>
        <time>2020-08-16T18:32:02.617Z</time>
      </trkpt>
      <trkpt lat="44.63761" lon="0.74065">
        <ele>92.996742248535</ele>
        <time>2020-08-16T18:31:54.330Z</time>
      </trkpt>
      <trkpt lat="44.63807" lon="0.74103">
        <ele>92.312217712402</ele>
        <time>2020-08-16T18:31:46.052Z</time>
      </trkpt>
      <trkpt lat="44.6385" lon="0.74144">
        <ele>92.334114074707</ele>
        <time>2020-08-16T18:31:37.788Z</time>
      </trkpt>
      <trkpt lat="44.63885" lon="0.74181">
        <ele>92.273986816406</ele>
        <time>2020-08-16T18:31:29.536Z</time>
      </trkpt>
      <trkpt lat="44.63891" lon="0.74188">
        <ele>92.212142944336</ele>
        <time>2020-08-16T18:31:21.295Z</time>
      </trkpt>
      <trkpt lat="44.63908" lon="0.74219">
        <ele>92.639442443848</ele>
        <time>2020-08-16T18:31:13.056Z</time>
      </trkpt>
      <trkpt lat="44.63916" lon="0.74247">
        <ele>92.331512451172</ele>
        <time>2020-08-16T18:31:04.824Z</time>
      </trkpt>
      <trkpt lat="44.6392" lon="0.74268">
        <ele>92.323059082031</ele>
        <time>2020-08-16T18:30:56.597Z</time>
      </trkpt>
      <trkpt lat="44.6392" lon="0.74289">
        <ele>92.331573486328</ele>
        <time>2020-08-16T18:30:48.374Z</time>
      </trkpt>
      <trkpt lat="44.63916" lon="0.74311">
        <ele>92.594650268555</ele>
        <time>2020-08-16T18:30:40.155Z</time>
      </trkpt>
      <trkpt lat="44.63914" lon="0.74321">
        <ele>92.741279602051</ele>
        <time>2020-08-16T18:30:31.940Z</time>
      </trkpt>
      <trkpt lat="44.63897" lon="0.74395">
        <ele>92.752082824707</ele>
        <time>2020-08-16T18:30:23.726Z</time>
      </trkpt>
      <trkpt lat="44.63894" lon="0.74406">
        <ele>93.00651550293</ele>
        <time>2020-08-16T18:30:15.526Z</time>
      </trkpt>
      <trkpt lat="44.63875" lon="0.74481">
        <ele>93.050308227539</ele>
        <time>2020-08-16T18:30:07.328Z</time>
      </trkpt>
      <trkpt lat="44.63858" lon="0.74546">
        <ele>94.465057373047</ele>
        <time>2020-08-16T18:29:59.144Z</time>
      </trkpt>
      <trkpt lat="44.63854" lon="0.74568">
        <ele>94.865592956543</ele>
        <time>2020-08-16T18:29:50.972Z</time>
      </trkpt>
      <trkpt lat="44.63855" lon="0.7458">
        <ele>95.271881103516</ele>
        <time>2020-08-16T18:29:42.804Z</time>
      </trkpt>
      <trkpt lat="44.63856" lon="0.74591">
        <ele>95.641464233398</ele>
        <time>2020-08-16T18:29:34.638Z</time>
      </trkpt>
      <trkpt lat="44.63856" lon="0.74613">
        <ele>96.430908203125</ele>
        <time>2020-08-16T18:29:26.474Z</time>
      </trkpt>
      <trkpt lat="44.63852" lon="0.74635">
        <ele>96.793899536133</ele>
        <time>2020-08-16T18:29:18.314Z</time>
      </trkpt>
      <trkpt lat="44.63852" lon="0.74678">
        <ele>97.776023864746</ele>
        <time>2020-08-16T18:29:10.158Z</time>
      </trkpt>
      <trkpt lat="44.63851" lon="0.74751">
        <ele>99.364929199219</ele>
        <time>2020-08-16T18:29:02.010Z</time>
      </trkpt>
      <trkpt lat="44.6385" lon="0.74771">
        <ele>99.605682373047</ele>
        <time>2020-08-16T18:28:53.874Z</time>
      </trkpt>
      <trkpt lat="44.63851" lon="0.74811">
        <ele>100.38782501221</ele>
        <time>2020-08-16T18:28:45.742Z</time>
      </trkpt>
      <trkpt lat="44.6385" lon="0.74877">
        <ele>102.09168243408</ele>
        <time>2020-08-16T18:28:37.617Z</time>
      </trkpt>
      <trkpt lat="44.63846" lon="0.74925">
        <ele>103.43843078613</ele>
        <time>2020-08-16T18:28:29.504Z</time>
      </trkpt>
      <trkpt lat="44.63845" lon="0.74952">
        <ele>104.12911987305</ele>
        <time>2020-08-16T18:28:21.399Z</time>
      </trkpt>
      <trkpt lat="44.63839" lon="0.74961">
        <ele>104.4899520874</ele>
        <time>2020-08-16T18:28:13.299Z</time>
      </trkpt>
      <trkpt lat="44.63835" lon="0.74963">
        <ele>104.62390899658</ele>
        <time>2020-08-16T18:28:05.201Z</time>
      </trkpt>
      <trkpt lat="44.6381" lon="0.74949">
        <ele>104.89744567871</ele>
        <time>2020-08-16T18:27:57.104Z</time>
      </trkpt>
      <trkpt lat="44.63799" lon="0.74938">
        <ele>104.90629577637</ele>
        <time>2020-08-16T18:27:49.014Z</time>
      </trkpt>
      <trkpt lat="44.6379" lon="0.74932">
        <ele>104.94189453125</ele>
        <time>2020-08-16T18:27:40.927Z</time>
      </trkpt>
      <trkpt lat="44.63782" lon="0.74926">
        <ele>104.73191833496</ele>
        <time>2020-08-16T18:27:32.842Z</time>
      </trkpt>
      <trkpt lat="44.63755" lon="0.74907">
        <ele>102.99293518066</ele>
        <time>2020-08-16T18:27:24.760Z</time>
      </trkpt>
      <trkpt lat="44.63723" lon="0.74888">
        <ele>100.98664093018</ele>
        <time>2020-08-16T18:27:16.685Z</time>
      </trkpt>
      <trkpt lat="44.63719" lon="0.74885">
        <ele>100.78684997559</ele>
        <time>2020-08-16T18:27:08.619Z</time>
      </trkpt>
      <trkpt lat="44.63706" lon="0.74877">
        <ele>100.18103790283</ele>
        <time>2020-08-16T18:27:00.554Z</time>
      </trkpt>
      <trkpt lat="44.63698" lon="0.74872">
        <ele>99.900451660156</ele>
        <time>2020-08-16T18:26:52.492Z</time>
      </trkpt>
      <trkpt lat="44.63686" lon="0.74863">
        <ele>99.61302947998</ele>
        <time>2020-08-16T18:26:44.432Z</time>
      </trkpt>
      <trkpt lat="44.63678" lon="0.74859">
        <ele>99.426177978516</ele>
        <time>2020-08-16T18:26:36.376Z</time>
      </trkpt>
      <trkpt lat="44.63662" lon="0.74845">
        <ele>99.03638458252</ele>
        <time>2020-08-16T18:26:28.322Z</time>
      </trkpt>
      <trkpt lat="44.63649" lon="0.74831">
        <ele>98.709945678711</ele>
        <time>2020-08-16T18:26:20.272Z</time>
      </trkpt>
      <trkpt lat="44.63638" lon="0.74829">
        <ele>98.464767456055</ele>
        <time>2020-08-16T18:26:12.226Z</time>
      </trkpt>
      <trkpt lat="44.6363" lon="0.7484">
        <ele>98.274696350098</ele>
        <time>2020-08-16T18:26:04.183Z</time>
      </trkpt>
      <trkpt lat="44.63625" lon="0.74855">
        <ele>98.137329101562</ele>
        <time>2020-08-16T18:25:56.143Z</time>
      </trkpt>
      <trkpt lat="44.63614" lon="0.74886">
        <ele>98.228843688965</ele>
        <time>2020-08-16T18:25:48.106Z</time>
      </trkpt>
      <trkpt lat="44.63606" lon="0.74898">
        <ele>98.740493774414</ele>
        <time>2020-08-16T18:25:40.075Z</time>
      </trkpt>
      <trkpt lat="44.63596" lon="0.74917">
        <ele>99.470001220703</ele>
        <time>2020-08-16T18:25:32.047Z</time>
      </trkpt>
      <trkpt lat="44.63563" lon="0.74984">
        <ele>100.67318725586</ele>
        <time>2020-08-16T18:25:24.023Z</time>
      </trkpt>
      <trkpt lat="44.63541" lon="0.75029">
        <ele>100.37567138672</ele>
        <time>2020-08-16T18:25:16.013Z</time>
      </trkpt>
      <trkpt lat="44.63535" lon="0.75038">
        <ele>100.18117523193</ele>
        <time>2020-08-16T18:25:08.012Z</time>
      </trkpt>
      <trkpt lat="44.63521" lon="0.75047">
        <ele>100</ele>
        <time>2020-08-16T18:25:00.014Z</time>
      </trkpt>
      <trkpt lat="44.63509" lon="0.75062">
        <ele>100</ele>
        <time>2020-08-16T18:24:52.020Z</time>
      </trkpt>
      <trkpt lat="44.63506" lon="0.75077">
        <ele>100</ele>
        <time>2020-08-16T18:24:44.029Z</time>
      </trkpt>
      <trkpt lat="44.63504" lon="0.75091">
        <ele>100</ele>
        <time>2020-08-16T18:24:36.041Z</time>
      </trkpt>
      <trkpt lat="44.63505" lon="0.75105">
        <ele>100</ele>
        <time>2020-08-16T18:24:28.056Z</time>
      </trkpt>
      <trkpt lat="44.63508" lon="0.75111">
        <ele>100</ele>
        <time>2020-08-16T18:24:20.073Z</time>
      </trkpt>
      <trkpt lat="44.63517" lon="0.75127">
        <ele>100</ele>
        <time>2020-08-16T18:24:12.091Z</time>
      </trkpt>
      <trkpt lat="44.63519" lon="0.75134">
        <ele>100</ele>
        <time>2020-08-16T18:24:04.113Z</time>
      </trkpt>
      <trkpt lat="44.63523" lon="0.75147">
        <ele>100.11315917969</ele>
        <time>2020-08-16T18:23:56.136Z</time>
      </trkpt>
      <trkpt lat="44.63522" lon="0.75154">
        <ele>100.19431304932</ele>
        <time>2020-08-16T18:23:48.162Z</time>
      </trkpt>
      <trkpt lat="44.6352" lon="0.7516">
        <ele>100.27275085449</ele>
        <time>2020-08-16T18:23:40.189Z</time>
      </trkpt>
      <trkpt lat="44.63515" lon="0.75172">
        <ele>100.41515350342</ele>
        <time>2020-08-16T18:23:32.217Z</time>
      </trkpt>
      <trkpt lat="44.63509" lon="0.75183">
        <ele>100.5447845459</ele>
        <time>2020-08-16T18:23:24.248Z</time>
      </trkpt>
      <trkpt lat="44.635" lon="0.75193">
        <ele>100.74089050293</ele>
        <time>2020-08-16T18:23:16.281Z</time>
      </trkpt>
      <trkpt lat="44.63493" lon="0.75204">
        <ele>101.10302734375</ele>
        <time>2020-08-16T18:23:08.317Z</time>
      </trkpt>
      <trkpt lat="44.63487" lon="0.75217">
        <ele>101.49020385742</ele>
        <time>2020-08-16T18:23:00.355Z</time>
      </trkpt>
      <trkpt lat="44.63479" lon="0.75241">
        <ele>101.67686462402</ele>
        <time>2020-08-16T18:22:52.396Z</time>
      </trkpt>
      <trkpt lat="44.63474" lon="0.75263">
        <ele>101.73860931396</ele>
        <time>2020-08-16T18:22:44.442Z</time>
      </trkpt>
      <trkpt lat="44.63473" lon="0.75271">
        <ele>101.75630950928</ele>
        <time>2020-08-16T18:22:36.492Z</time>
      </trkpt>
      <trkpt lat="44.63468" lon="0.75294">
        <ele>101.8115234375</ele>
        <time>2020-08-16T18:22:28.543Z</time>
      </trkpt>
      <trkpt lat="44.63466" lon="0.753">
        <ele>101.83545684814</ele>
        <time>2020-08-16T18:22:20.599Z</time>
      </trkpt>
      <trkpt lat="44.63462" lon="0.75308">
        <ele>101.8864440918</ele>
        <time>2020-08-16T18:22:12.656Z</time>
      </trkpt>
      <trkpt lat="44.63459" lon="0.75311">
        <ele>101.92168426514</ele>
        <time>2020-08-16T18:22:04.714Z</time>
      </trkpt>
      <trkpt lat="44.63444" lon="0.75315">
        <ele>101.77558135986</ele>
        <time>2020-08-16T18:21:56.773Z</time>
      </trkpt>
      <trkpt lat="44.63441" lon="0.75324">
        <ele>101.62955474854</ele>
        <time>2020-08-16T18:21:48.836Z</time>
      </trkpt>
      <trkpt lat="44.63443" lon="0.75368">
        <ele>101.1217956543</ele>
        <time>2020-08-16T18:21:40.901Z</time>
      </trkpt>
      <trkpt lat="44.63445" lon="0.75383">
        <ele>101</ele>
        <time>2020-08-16T18:21:32.974Z</time>
      </trkpt>
      <trkpt lat="44.63445" lon="0.75399">
        <ele>101.13808441162</ele>
        <time>2020-08-16T18:21:25.049Z</time>
      </trkpt>
      <trkpt lat="44.63444" lon="0.75407">
        <ele>101.2306060791</ele>
        <time>2020-08-16T18:21:17.127Z</time>
      </trkpt>
      <trkpt lat="44.63441" lon="0.75422">
        <ele>101.40840148926</ele>
        <time>2020-08-16T18:21:09.206Z</time>
      </trkpt>
      <trkpt lat="44.63438" lon="0.75429">
        <ele>101.49197387695</ele>
        <time>2020-08-16T18:21:01.288Z</time>
      </trkpt>
      <trkpt lat="44.63435" lon="0.75435">
        <ele>101.56910705566</ele>
        <time>2020-08-16T18:20:53.371Z</time>
      </trkpt>
      <trkpt lat="44.63429" lon="0.75449">
        <ele>101.73675537109</ele>
        <time>2020-08-16T18:20:45.456Z</time>
      </trkpt>
      <trkpt lat="44.6342" lon="0.7547">
        <ele>101.99018096924</ele>
        <time>2020-08-16T18:20:37.544Z</time>
      </trkpt>
      <trkpt lat="44.63413" lon="0.75492">
        <ele>102.25708007812</ele>
        <time>2020-08-16T18:20:29.636Z</time>
      </trkpt>
      <trkpt lat="44.6341" lon="0.755">
        <ele>102.34688568115</ele>
        <time>2020-08-16T18:20:21.732Z</time>
      </trkpt>
      <trkpt lat="44.6339" lon="0.7554">
        <ele>102.8316116333</ele>
        <time>2020-08-16T18:20:13.830Z</time>
      </trkpt>
      <trkpt lat="44.63358" lon="0.75583">
        <ele>103.34802246094</ele>
        <time>2020-08-16T18:20:05.936Z</time>
      </trkpt>
      <trkpt lat="44.6333" lon="0.75621">
        <ele>103.8021774292</ele>
        <time>2020-08-16T18:19:58.053Z</time>
      </trkpt>
      <trkpt lat="44.63292" lon="0.75659">
        <ele>104.3334274292</ele>
        <time>2020-08-16T18:19:50.180Z</time>
      </trkpt>
      <trkpt lat="44.63256" lon="0.75696">
        <ele>104.69631195068</ele>
        <time>2020-08-16T18:19:42.318Z</time>
      </trkpt>
      <trkpt lat="44.63248" lon="0.75707">
        <ele>104.83479309082</ele>
        <time>2020-08-16T18:19:34.467Z</time>
      </trkpt>
      <trkpt lat="44.63239" lon="0.7572">
        <ele>104.98644256592</ele>
        <time>2020-08-16T18:19:26.619Z</time>
      </trkpt>
      <trkpt lat="44.63235" lon="0.75726">
        <ele>105.13259124756</ele>
        <time>2020-08-16T18:19:18.774Z</time>
      </trkpt>
      <trkpt lat="44.63211" lon="0.75769">
        <ele>106.14931488037</ele>
        <time>2020-08-16T18:19:10.931Z</time>
      </trkpt>
      <trkpt lat="44.63204" lon="0.75785">
        <ele>106.53086090088</ele>
        <time>2020-08-16T18:19:03.097Z</time>
      </trkpt>
      <trkpt lat="44.63188" lon="0.75815">
        <ele>107.16620635986</ele>
        <time>2020-08-16T18:18:55.266Z</time>
      </trkpt>
      <trkpt lat="44.63169" lon="0.75853">
        <ele>107.39277648926</ele>
        <time>2020-08-16T18:18:47.442Z</time>
      </trkpt>
      <trkpt lat="44.63166" lon="0.75861">
        <ele>107.3225402832</ele>
        <time>2020-08-16T18:18:39.626Z</time>
      </trkpt>
      <trkpt lat="44.63163" lon="0.7588">
        <ele>107.09183502197</ele>
        <time>2020-08-16T18:18:31.812Z</time>
      </trkpt>
      <trkpt lat="44.63153" lon="0.75945">
        <ele>108.78963470459</ele>
        <time>2020-08-16T18:18:24.001Z</time>
      </trkpt>
      <trkpt lat="44.63145" lon="0.76002">
        <ele>110.05083465576</ele>
        <time>2020-08-16T18:18:16.202Z</time>
      </trkpt>
      <trkpt lat="44.63144" lon="0.7603">
        <ele>110.72351837158</ele>
        <time>2020-08-16T18:18:08.413Z</time>
      </trkpt>
      <trkpt lat="44.63144" lon="0.7605">
        <ele>111.19577789307</ele>
        <time>2020-08-16T18:18:00.629Z</time>
      </trkpt>
      <trkpt lat="44.63144" lon="0.76056">
        <ele>111.24873352051</ele>
        <time>2020-08-16T18:17:52.848Z</time>
      </trkpt>
      <trkpt lat="44.63143" lon="0.76069">
        <ele>110.94451904297</ele>
        <time>2020-08-16T18:17:45.068Z</time>
      </trkpt>
      <trkpt lat="44.63143" lon="0.76075">
        <ele>110.79396820068</ele>
        <time>2020-08-16T18:17:37.291Z</time>
      </trkpt>
      <trkpt lat="44.63142" lon="0.76087">
        <ele>110.72344207764</ele>
        <time>2020-08-16T18:17:29.515Z</time>
      </trkpt>
      <trkpt lat="44.63138" lon="0.76137">
        <ele>110.76748657227</ele>
        <time>2020-08-16T18:17:21.741Z</time>
      </trkpt>
      <trkpt lat="44.63134" lon="0.76178">
        <ele>109.16879272461</ele>
        <time>2020-08-16T18:17:13.976Z</time>
      </trkpt>
      <trkpt lat="44.63129" lon="0.76228">
        <ele>107.66370391846</ele>
        <time>2020-08-16T18:17:06.218Z</time>
      </trkpt>
      <trkpt lat="44.63129" lon="0.76234">
        <ele>107.64308166504</ele>
        <time>2020-08-16T18:16:58.469Z</time>
      </trkpt>
      <trkpt lat="44.63126" lon="0.76258">
        <ele>107.75742340088</ele>
        <time>2020-08-16T18:16:50.721Z</time>
      </trkpt>
      <trkpt lat="44.63125" lon="0.76299">
        <ele>107.79393005371</ele>
        <time>2020-08-16T18:16:42.977Z</time>
      </trkpt>
      <trkpt lat="44.63124" lon="0.76305">
        <ele>107.77214050293</ele>
        <time>2020-08-16T18:16:35.240Z</time>
      </trkpt>
      <trkpt lat="44.63125" lon="0.7634">
        <ele>106.51435852051</ele>
        <time>2020-08-16T18:16:27.504Z</time>
      </trkpt>
      <trkpt lat="44.63126" lon="0.76395">
        <ele>104.75858306885</ele>
        <time>2020-08-16T18:16:19.774Z</time>
      </trkpt>
      <trkpt lat="44.63124" lon="0.76436">
        <ele>104.28652954102</ele>
        <time>2020-08-16T18:16:12.054Z</time>
      </trkpt>
      <trkpt lat="44.63124" lon="0.76479">
        <ele>103.58491516113</ele>
        <time>2020-08-16T18:16:04.341Z</time>
      </trkpt>
      <trkpt lat="44.63123" lon="0.76492">
        <ele>103.13689422607</ele>
        <time>2020-08-16T18:15:56.636Z</time>
      </trkpt>
      <trkpt lat="44.63122" lon="0.7652">
        <ele>102.19066619873</ele>
        <time>2020-08-16T18:15:48.933Z</time>
      </trkpt>
      <trkpt lat="44.63119" lon="0.76575">
        <ele>100.75430297852</ele>
        <time>2020-08-16T18:15:41.235Z</time>
      </trkpt>
      <trkpt lat="44.63121" lon="0.76648">
        <ele>99.976669311523</ele>
        <time>2020-08-16T18:15:33.547Z</time>
      </trkpt>
      <trkpt lat="44.6312" lon="0.76695">
        <ele>99.983505249023</ele>
        <time>2020-08-16T18:15:25.871Z</time>
      </trkpt>
      <trkpt lat="44.63098" lon="0.76771">
        <ele>101.1976776123</ele>
        <time>2020-08-16T18:15:18.204Z</time>
      </trkpt>
      <trkpt lat="44.63076" lon="0.76826">
        <ele>101.74305725098</ele>
        <time>2020-08-16T18:15:10.551Z</time>
      </trkpt>
      <trkpt lat="44.63046" lon="0.76888">
        <ele>103.63170623779</ele>
        <time>2020-08-16T18:15:02.909Z</time>
      </trkpt>
      <trkpt lat="44.63037" lon="0.76906">
        <ele>103.95211029053</ele>
        <time>2020-08-16T18:14:55.280Z</time>
      </trkpt>
      <trkpt lat="44.63005" lon="0.76968">
        <ele>105.70167541504</ele>
        <time>2020-08-16T18:14:47.655Z</time>
      </trkpt>
      <trkpt lat="44.63001" lon="0.76977">
        <ele>105.99520874023</ele>
        <time>2020-08-16T18:14:40.044Z</time>
      </trkpt>
      <trkpt lat="44.62984" lon="0.77014">
        <ele>106.41877746582</ele>
        <time>2020-08-16T18:14:32.434Z</time>
      </trkpt>
      <trkpt lat="44.62956" lon="0.77081">
        <ele>107.3872756958</ele>
        <time>2020-08-16T18:14:24.832Z</time>
      </trkpt>
      <trkpt lat="44.62952" lon="0.77091">
        <ele>107.88719940186</ele>
        <time>2020-08-16T18:14:17.244Z</time>
      </trkpt>
      <trkpt lat="44.62947" lon="0.77112">
        <ele>108.8463973999</ele>
        <time>2020-08-16T18:14:09.658Z</time>
      </trkpt>
      <trkpt lat="44.62946" lon="0.77122">
        <ele>109.25228118896</ele>
        <time>2020-08-16T18:14:02.076Z</time>
      </trkpt>
      <trkpt lat="44.62945" lon="0.77144">
        <ele>109.4462890625</ele>
        <time>2020-08-16T18:13:54.495Z</time>
      </trkpt>
      <trkpt lat="44.62941" lon="0.77173">
        <ele>109.67809295654</ele>
        <time>2020-08-16T18:13:46.918Z</time>
      </trkpt>
      <trkpt lat="44.62939" lon="0.77183">
        <ele>109.78469085693</ele>
        <time>2020-08-16T18:13:39.346Z</time>
      </trkpt>
      <trkpt lat="44.6293" lon="0.7721">
        <ele>110.20114135742</ele>
        <time>2020-08-16T18:13:31.776Z</time>
      </trkpt>
      <trkpt lat="44.62906" lon="0.77268">
        <ele>110.08142089844</ele>
        <time>2020-08-16T18:13:24.211Z</time>
      </trkpt>
      <trkpt lat="44.62901" lon="0.77291">
        <ele>109.76444244385</ele>
        <time>2020-08-16T18:13:16.658Z</time>
      </trkpt>
      <trkpt lat="44.62901" lon="0.77315">
        <ele>109.59479522705</ele>
        <time>2020-08-16T18:13:09.109Z</time>
      </trkpt>
      <trkpt lat="44.62896" lon="0.77337">
        <ele>109.94314575195</ele>
        <time>2020-08-16T18:13:01.565Z</time>
      </trkpt>
      <trkpt lat="44.62884" lon="0.77351">
        <ele>110.09278869629</ele>
        <time>2020-08-16T18:12:54.025Z</time>
      </trkpt>
      <trkpt lat="44.62876" lon="0.77353">
        <ele>110.25872802734</ele>
        <time>2020-08-16T18:12:46.489Z</time>
      </trkpt>
      <trkpt lat="44.62868" lon="0.77353">
        <ele>110.43201446533</ele>
        <time>2020-08-16T18:12:38.955Z</time>
      </trkpt>
      <trkpt lat="44.6283" lon="0.77359">
        <ele>110.8062210083</ele>
        <time>2020-08-16T18:12:31.422Z</time>
      </trkpt>
      <trkpt lat="44.62777" lon="0.77368">
        <ele>111.42793273926</ele>
        <time>2020-08-16T18:12:23.899Z</time>
      </trkpt>
      <trkpt lat="44.62754" lon="0.77374">
        <ele>112.3212890625</ele>
        <time>2020-08-16T18:12:16.389Z</time>
      </trkpt>
      <trkpt lat="44.62732" lon="0.7738">
        <ele>113.49117279053</ele>
        <time>2020-08-16T18:12:08.885Z</time>
      </trkpt>
      <trkpt lat="44.62684" lon="0.77393">
        <ele>115.21444702148</ele>
        <time>2020-08-16T18:12:01.386Z</time>
      </trkpt>
      <trkpt lat="44.62644" lon="0.77409">
        <ele>115.69706726074</ele>
        <time>2020-08-16T18:11:53.899Z</time>
      </trkpt>
      <trkpt lat="44.62606" lon="0.77431">
        <ele>116.46723937988</ele>
        <time>2020-08-16T18:11:46.422Z</time>
      </trkpt>
      <trkpt lat="44.62589" lon="0.77437">
        <ele>117.08089447021</ele>
        <time>2020-08-16T18:11:38.956Z</time>
      </trkpt>
      <trkpt lat="44.62571" lon="0.77439">
        <ele>117.53063201904</ele>
        <time>2020-08-16T18:11:31.494Z</time>
      </trkpt>
      <trkpt lat="44.62553" lon="0.77437">
        <ele>117.99826049805</ele>
        <time>2020-08-16T18:11:24.036Z</time>
      </trkpt>
      <trkpt lat="44.62534" lon="0.77436">
        <ele>118.65827178955</ele>
        <time>2020-08-16T18:11:16.583Z</time>
      </trkpt>
      <trkpt lat="44.62524" lon="0.77437">
        <ele>119.92972564697</ele>
        <time>2020-08-16T18:11:09.134Z</time>
      </trkpt>
      <trkpt lat="44.62505" lon="0.77445">
        <ele>122.11904144287</ele>
        <time>2020-08-16T18:11:01.688Z</time>
      </trkpt>
      <trkpt lat="44.62488" lon="0.77458">
        <ele>122.81636810303</ele>
        <time>2020-08-16T18:10:54.247Z</time>
      </trkpt>
      <trkpt lat="44.6248" lon="0.77466">
        <ele>122.94579315186</ele>
        <time>2020-08-16T18:10:46.810Z</time>
      </trkpt>
      <trkpt lat="44.62473" lon="0.77475">
        <ele>123.21072387695</ele>
        <time>2020-08-16T18:10:39.376Z</time>
      </trkpt>
      <trkpt lat="44.62431" lon="0.77537">
        <ele>126.72472381592</ele>
        <time>2020-08-16T18:10:31.944Z</time>
      </trkpt>
      <trkpt lat="44.62408" lon="0.77569">
        <ele>130.00143432617</ele>
        <time>2020-08-16T18:10:24.527Z</time>
      </trkpt>
      <trkpt lat="44.624" lon="0.77579">
        <ele>131.43913269043</ele>
        <time>2020-08-16T18:10:17.118Z</time>
      </trkpt>
      <trkpt lat="44.62391" lon="0.77588">
        <ele>132.04473876953</ele>
        <time>2020-08-16T18:10:09.712Z</time>
      </trkpt>
      <trkpt lat="44.6237" lon="0.77599">
        <ele>132.67890930176</ele>
        <time>2020-08-16T18:10:02.308Z</time>
      </trkpt>
      <trkpt lat="44.6236" lon="0.77603">
        <ele>133.0740814209</ele>
        <time>2020-08-16T18:09:54.910Z</time>
      </trkpt>
      <trkpt lat="44.62338" lon="0.77604">
        <ele>134.32884216309</ele>
        <time>2020-08-16T18:09:47.515Z</time>
      </trkpt>
      <trkpt lat="44.62305" lon="0.77601">
        <ele>138.08027648926</ele>
        <time>2020-08-16T18:09:40.125Z</time>
      </trkpt>
      <trkpt lat="44.62295" lon="0.77603">
        <ele>139.33000183105</ele>
        <time>2020-08-16T18:09:32.743Z</time>
      </trkpt>
      <trkpt lat="44.62284" lon="0.77606">
        <ele>140.42465209961</ele>
        <time>2020-08-16T18:09:25.364Z</time>
      </trkpt>
      <trkpt lat="44.62256" lon="0.77624">
        <ele>141.56256103516</ele>
        <time>2020-08-16T18:09:17.987Z</time>
      </trkpt>
      <trkpt lat="44.62247" lon="0.77629">
        <ele>141.93344116211</ele>
        <time>2020-08-16T18:09:10.618Z</time>
      </trkpt>
      <trkpt lat="44.62238" lon="0.77631">
        <ele>142.3387298584</ele>
        <time>2020-08-16T18:09:03.251Z</time>
      </trkpt>
      <trkpt lat="44.6223" lon="0.7763">
        <ele>142.77388000488</ele>
        <time>2020-08-16T18:08:55.886Z</time>
      </trkpt>
      <trkpt lat="44.62222" lon="0.77624">
        <ele>143.20831298828</ele>
        <time>2020-08-16T18:08:48.523Z</time>
      </trkpt>
      <trkpt lat="44.62215" lon="0.77617">
        <ele>143.61833190918</ele>
        <time>2020-08-16T18:08:41.163Z</time>
      </trkpt>
      <trkpt lat="44.62194" lon="0.7758">
        <ele>144.79278564453</ele>
        <time>2020-08-16T18:08:33.805Z</time>
      </trkpt>
      <trkpt lat="44.6216" lon="0.77525">
        <ele>146.22972106934</ele>
        <time>2020-08-16T18:08:26.455Z</time>
      </trkpt>
      <trkpt lat="44.62136" lon="0.7749">
        <ele>147.35304260254</ele>
        <time>2020-08-16T18:08:19.118Z</time>
      </trkpt>
      <trkpt lat="44.62128" lon="0.77476">
        <ele>147.77754211426</ele>
        <time>2020-08-16T18:08:11.789Z</time>
      </trkpt>
      <trkpt lat="44.62101" lon="0.77434">
        <ele>147.78796386719</ele>
        <time>2020-08-16T18:08:04.463Z</time>
      </trkpt>
      <trkpt lat="44.62081" lon="0.77404">
        <ele>147.55284118652</ele>
        <time>2020-08-16T18:07:57.147Z</time>
      </trkpt>
      <trkpt lat="44.6206" lon="0.77371">
        <ele>147.29296875</ele>
        <time>2020-08-16T18:07:49.838Z</time>
      </trkpt>
      <trkpt lat="44.62039" lon="0.7734">
        <ele>147.0422668457</ele>
        <time>2020-08-16T18:07:42.537Z</time>
      </trkpt>
      <trkpt lat="44.62015" lon="0.773">
        <ele>147.24736022949</ele>
        <time>2020-08-16T18:07:35.244Z</time>
      </trkpt>
      <trkpt lat="44.62001" lon="0.77272">
        <ele>147.41360473633</ele>
        <time>2020-08-16T18:07:27.960Z</time>
      </trkpt>
      <trkpt lat="44.61993" lon="0.77267">
        <ele>147.50973510742</ele>
        <time>2020-08-16T18:07:20.682Z</time>
      </trkpt>
      <trkpt lat="44.61985" lon="0.77275">
        <ele>147.60095214844</ele>
        <time>2020-08-16T18:07:13.406Z</time>
      </trkpt>
      <trkpt lat="44.61974" lon="0.77295">
        <ele>147.73138427734</ele>
        <time>2020-08-16T18:07:06.132Z</time>
      </trkpt>
      <trkpt lat="44.61958" lon="0.77325">
        <ele>148.26132202148</ele>
        <time>2020-08-16T18:06:58.863Z</time>
      </trkpt>
      <trkpt lat="44.61954" lon="0.77333">
        <ele>148.59046936035</ele>
        <time>2020-08-16T18:06:51.600Z</time>
      </trkpt>
      <trkpt lat="44.61948" lon="0.7735">
        <ele>149.19204711914</ele>
        <time>2020-08-16T18:06:44.339Z</time>
      </trkpt>
      <trkpt lat="44.61947" lon="0.77359">
        <ele>149.44668579102</ele>
        <time>2020-08-16T18:06:37.082Z</time>
      </trkpt>
      <trkpt lat="44.61947" lon="0.77369">
        <ele>149.68362426758</ele>
        <time>2020-08-16T18:06:29.826Z</time>
      </trkpt>
      <trkpt lat="44.61948" lon="0.77389">
        <ele>149.98602294922</ele>
        <time>2020-08-16T18:06:22.572Z</time>
      </trkpt>
      <trkpt lat="44.61949" lon="0.77399">
        <ele>149.86393737793</ele>
        <time>2020-08-16T18:06:15.321Z</time>
      </trkpt>
      <trkpt lat="44.61942" lon="0.77476">
        <ele>149.17552185059</ele>
        <time>2020-08-16T18:06:08.072Z</time>
      </trkpt>
      <trkpt lat="44.61932" lon="0.77527">
        <ele>149.91116333008</ele>
        <time>2020-08-16T18:06:00.837Z</time>
      </trkpt>
      <trkpt lat="44.61928" lon="0.77546">
        <ele>150.38368225098</ele>
        <time>2020-08-16T18:05:53.611Z</time>
      </trkpt>
      <trkpt lat="44.61927" lon="0.77575">
        <ele>151.34494018555</ele>
        <time>2020-08-16T18:05:46.389Z</time>
      </trkpt>
      <trkpt lat="44.6192" lon="0.77645">
        <ele>153</ele>
        <time>2020-08-16T18:05:39.172Z</time>
      </trkpt>
      <trkpt lat="44.61917" lon="0.77702">
        <ele>153.18304443359</ele>
        <time>2020-08-16T18:05:31.967Z</time>
      </trkpt>
      <trkpt lat="44.61916" lon="0.77717">
        <ele>153.38940429688</ele>
        <time>2020-08-16T18:05:24.772Z</time>
      </trkpt>
      <trkpt lat="44.61912" lon="0.77743">
        <ele>153.21197509766</ele>
        <time>2020-08-16T18:05:17.580Z</time>
      </trkpt>
      <trkpt lat="44.61903" lon="0.77807">
        <ele>154.90818786621</ele>
        <time>2020-08-16T18:05:10.392Z</time>
      </trkpt>
      <trkpt lat="44.61896" lon="0.77843">
        <ele>154.17381286621</ele>
        <time>2020-08-16T18:05:03.216Z</time>
      </trkpt>
      <trkpt lat="44.61895" lon="0.77861">
        <ele>153.36546325684</ele>
        <time>2020-08-16T18:04:56.046Z</time>
      </trkpt>
      <trkpt lat="44.61889" lon="0.77894">
        <ele>151.96969604492</ele>
        <time>2020-08-16T18:04:48.879Z</time>
      </trkpt>
      <trkpt lat="44.61885" lon="0.77909">
        <ele>151.40643310547</ele>
        <time>2020-08-16T18:04:41.718Z</time>
      </trkpt>
      <trkpt lat="44.6188" lon="0.77925">
        <ele>150.84507751465</ele>
        <time>2020-08-16T18:04:34.560Z</time>
      </trkpt>
      <trkpt lat="44.61867" lon="0.77954">
        <ele>149.89958190918</ele>
        <time>2020-08-16T18:04:27.405Z</time>
      </trkpt>
      <trkpt lat="44.61848" lon="0.78002">
        <ele>149.53094482422</ele>
        <time>2020-08-16T18:04:20.256Z</time>
      </trkpt>
      <trkpt lat="44.6183" lon="0.78057">
        <ele>148.99983215332</ele>
        <time>2020-08-16T18:04:13.117Z</time>
      </trkpt>
      <trkpt lat="44.61827" lon="0.78078">
        <ele>150.41468811035</ele>
        <time>2020-08-16T18:04:05.988Z</time>
      </trkpt>
      <trkpt lat="44.61828" lon="0.7809">
        <ele>151.04162597656</ele>
        <time>2020-08-16T18:03:58.863Z</time>
      </trkpt>
      <trkpt lat="44.6183" lon="0.781">
        <ele>151.54830932617</ele>
        <time>2020-08-16T18:03:51.740Z</time>
      </trkpt>
      <trkpt lat="44.61842" lon="0.78127">
        <ele>152.04168701172</ele>
        <time>2020-08-16T18:03:44.619Z</time>
      </trkpt>
      <trkpt lat="44.6186" lon="0.78172">
        <ele>153.72738647461</ele>
        <time>2020-08-16T18:03:37.504Z</time>
      </trkpt>
      <trkpt lat="44.61872" lon="0.78227">
        <ele>155.98114013672</ele>
        <time>2020-08-16T18:03:30.398Z</time>
      </trkpt>
      <trkpt lat="44.61885" lon="0.78276">
        <ele>156.26463317871</ele>
        <time>2020-08-16T18:03:23.302Z</time>
      </trkpt>
      <trkpt lat="44.61887" lon="0.78284">
        <ele>156.31571960449</ele>
        <time>2020-08-16T18:03:16.215Z</time>
      </trkpt>
      <trkpt lat="44.61888" lon="0.78301">
        <ele>156.49291992188</ele>
        <time>2020-08-16T18:03:09.129Z</time>
      </trkpt>
      <trkpt lat="44.61877" lon="0.7836">
        <ele>157.66787719727</ele>
        <time>2020-08-16T18:03:02.046Z</time>
      </trkpt>
      <trkpt lat="44.61863" lon="0.78429">
        <ele>159.61608886719</ele>
        <time>2020-08-16T18:02:54.974Z</time>
      </trkpt>
      <trkpt lat="44.61846" lon="0.7849">
        <ele>161.45552062988</ele>
        <time>2020-08-16T18:02:47.915Z</time>
      </trkpt>
      <trkpt lat="44.61835" lon="0.78544">
        <ele>163.02568054199</ele>
        <time>2020-08-16T18:02:40.867Z</time>
      </trkpt>
      <trkpt lat="44.61824" lon="0.78584">
        <ele>163.8809967041</ele>
        <time>2020-08-16T18:02:33.829Z</time>
      </trkpt>
      <trkpt lat="44.61811" lon="0.78632">
        <ele>166.4842376709</ele>
        <time>2020-08-16T18:02:26.798Z</time>
      </trkpt>
      <trkpt lat="44.61807" lon="0.78647">
        <ele>166.7638092041</ele>
        <time>2020-08-16T18:02:19.777Z</time>
      </trkpt>
      <trkpt lat="44.61798" lon="0.78665">
        <ele>166.38389587402</ele>
        <time>2020-08-16T18:02:12.758Z</time>
      </trkpt>
      <trkpt lat="44.61777" lon="0.78696">
        <ele>165.94009399414</ele>
        <time>2020-08-16T18:02:05.743Z</time>
      </trkpt>
      <trkpt lat="44.61762" lon="0.78717">
        <ele>164.34323120117</ele>
        <time>2020-08-16T18:01:58.736Z</time>
      </trkpt>
      <trkpt lat="44.61758" lon="0.78723">
        <ele>163.54153442383</ele>
        <time>2020-08-16T18:01:51.734Z</time>
      </trkpt>
      <trkpt lat="44.61753" lon="0.7873">
        <ele>162.85757446289</ele>
        <time>2020-08-16T18:01:44.733Z</time>
      </trkpt>
      <trkpt lat="44.61745" lon="0.78746">
        <ele>161.44995117188</ele>
        <time>2020-08-16T18:01:37.734Z</time>
      </trkpt>
      <trkpt lat="44.61743" lon="0.78751">
        <ele>160.98262023926</ele>
        <time>2020-08-16T18:01:30.739Z</time>
      </trkpt>
      <trkpt lat="44.61744" lon="0.78757">
        <ele>160.50926208496</ele>
        <time>2020-08-16T18:01:23.745Z</time>
      </trkpt>
      <trkpt lat="44.6175" lon="0.78771">
        <ele>159.46548461914</ele>
        <time>2020-08-16T18:01:16.752Z</time>
      </trkpt>
      <trkpt lat="44.61756" lon="0.78782">
        <ele>158.71154785156</ele>
        <time>2020-08-16T18:01:09.761Z</time>
      </trkpt>
      <trkpt lat="44.61761" lon="0.78795">
        <ele>157.85079956055</ele>
        <time>2020-08-16T18:01:02.773Z</time>
      </trkpt>
      <trkpt lat="44.61769" lon="0.78808">
        <ele>157.08959960938</ele>
        <time>2020-08-16T18:00:55.788Z</time>
      </trkpt>
      <trkpt lat="44.61774" lon="0.78822">
        <ele>156.51858520508</ele>
        <time>2020-08-16T18:00:48.805Z</time>
      </trkpt>
      <trkpt lat="44.61784" lon="0.78841">
        <ele>155.69886779785</ele>
        <time>2020-08-16T18:00:41.825Z</time>
      </trkpt>
      <trkpt lat="44.61793" lon="0.78862">
        <ele>154.57080078125</ele>
        <time>2020-08-16T18:00:34.849Z</time>
      </trkpt>
      <trkpt lat="44.618" lon="0.78878">
        <ele>153.66348266602</ele>
        <time>2020-08-16T18:00:27.878Z</time>
      </trkpt>
      <trkpt lat="44.61802" lon="0.78882">
        <ele>153.40422058105</ele>
        <time>2020-08-16T18:00:20.910Z</time>
      </trkpt>
      <trkpt lat="44.61805" lon="0.78891">
        <ele>152.9718170166</ele>
        <time>2020-08-16T18:00:13.943Z</time>
      </trkpt>
      <trkpt lat="44.61812" lon="0.78906">
        <ele>152.29319763184</ele>
        <time>2020-08-16T18:00:06.978Z</time>
      </trkpt>
      <trkpt lat="44.61817" lon="0.7892">
        <ele>151.7278137207</ele>
        <time>2020-08-16T18:00:00.016Z</time>
      </trkpt>
      <trkpt lat="44.61822" lon="0.78934">
        <ele>151.37921142578</ele>
        <time>2020-08-16T17:59:53.056Z</time>
      </trkpt>
      <trkpt lat="44.61824" lon="0.78944">
        <ele>151.23377990723</ele>
        <time>2020-08-16T17:59:46.099Z</time>
      </trkpt>
      <trkpt lat="44.61828" lon="0.78966">
        <ele>150.91580200195</ele>
        <time>2020-08-16T17:59:39.144Z</time>
      </trkpt>
      <trkpt lat="44.61839" lon="0.78997">
        <ele>151.33193969727</ele>
        <time>2020-08-16T17:59:32.193Z</time>
      </trkpt>
      <trkpt lat="44.61857" lon="0.79026">
        <ele>151.47856140137</ele>
        <time>2020-08-16T17:59:25.248Z</time>
      </trkpt>
      <trkpt lat="44.6187" lon="0.79046">
        <ele>151.65921020508</ele>
        <time>2020-08-16T17:59:18.310Z</time>
      </trkpt>
      <trkpt lat="44.61874" lon="0.79055">
        <ele>152.42695617676</ele>
        <time>2020-08-16T17:59:11.376Z</time>
      </trkpt>
      <trkpt lat="44.61877" lon="0.79064">
        <ele>152.96751403809</ele>
        <time>2020-08-16T17:59:04.444Z</time>
      </trkpt>
      <trkpt lat="44.6188" lon="0.79077">
        <ele>153.9031829834</ele>
        <time>2020-08-16T17:58:57.514Z</time>
      </trkpt>
      <trkpt lat="44.61877" lon="0.79091">
        <ele>154.55192565918</ele>
        <time>2020-08-16T17:58:50.587Z</time>
      </trkpt>
      <trkpt lat="44.61873" lon="0.79098">
        <ele>154.78695678711</ele>
        <time>2020-08-16T17:58:43.662Z</time>
      </trkpt>
      <trkpt lat="44.61868" lon="0.79106">
        <ele>155.10237121582</ele>
        <time>2020-08-16T17:58:36.739Z</time>
      </trkpt>
      <trkpt lat="44.61861" lon="0.79125">
        <ele>156.58712768555</ele>
        <time>2020-08-16T17:58:29.817Z</time>
      </trkpt>
      <trkpt lat="44.61863" lon="0.79147">
        <ele>157.60649108887</ele>
        <time>2020-08-16T17:58:22.899Z</time>
      </trkpt>
      <trkpt lat="44.61866" lon="0.79157">
        <ele>158.48886108398</ele>
        <time>2020-08-16T17:58:15.985Z</time>
      </trkpt>
      <trkpt lat="44.61877" lon="0.79181">
        <ele>160.48307800293</ele>
        <time>2020-08-16T17:58:09.073Z</time>
      </trkpt>
      <trkpt lat="44.61882" lon="0.79198">
        <ele>161.8786315918</ele>
        <time>2020-08-16T17:58:02.166Z</time>
      </trkpt>
      <trkpt lat="44.61895" lon="0.79252">
        <ele>163.80023193359</ele>
        <time>2020-08-16T17:57:55.262Z</time>
      </trkpt>
      <trkpt lat="44.61916" lon="0.79323">
        <ele>163.85177612305</ele>
        <time>2020-08-16T17:57:48.368Z</time>
      </trkpt>
      <trkpt lat="44.61919" lon="0.79332">
        <ele>163.52282714844</ele>
        <time>2020-08-16T17:57:41.488Z</time>
      </trkpt>
      <trkpt lat="44.61932" lon="0.7937">
        <ele>162.19523620605</ele>
        <time>2020-08-16T17:57:34.609Z</time>
      </trkpt>
      <trkpt lat="44.6196" lon="0.79427">
        <ele>161.6700592041</ele>
        <time>2020-08-16T17:57:27.738Z</time>
      </trkpt>
      <trkpt lat="44.61998" lon="0.79484">
        <ele>163.68637084961</ele>
        <time>2020-08-16T17:57:20.879Z</time>
      </trkpt>
      <trkpt lat="44.62033" lon="0.79535">
        <ele>167.00062561035</ele>
        <time>2020-08-16T17:57:14.034Z</time>
      </trkpt>
      <trkpt lat="44.62042" lon="0.79548">
        <ele>167.84237670898</ele>
        <time>2020-08-16T17:57:07.201Z</time>
      </trkpt>
      <trkpt lat="44.62057" lon="0.79571">
        <ele>168.11781311035</ele>
        <time>2020-08-16T17:57:00.371Z</time>
      </trkpt>
      <trkpt lat="44.62072" lon="0.79601">
        <ele>168.23959350586</ele>
        <time>2020-08-16T17:56:53.547Z</time>
      </trkpt>
      <trkpt lat="44.62079" lon="0.79613">
        <ele>168.33654785156</ele>
        <time>2020-08-16T17:56:46.729Z</time>
      </trkpt>
      <trkpt lat="44.62096" lon="0.79639">
        <ele>168.51805114746</ele>
        <time>2020-08-16T17:56:39.914Z</time>
      </trkpt>
      <trkpt lat="44.621" lon="0.79646">
        <ele>168.24974060059</ele>
        <time>2020-08-16T17:56:33.105Z</time>
      </trkpt>
      <trkpt lat="44.62126" lon="0.7969">
        <ele>166.83836364746</ele>
        <time>2020-08-16T17:56:26.298Z</time>
      </trkpt>
      <trkpt lat="44.62147" lon="0.79718">
        <ele>166.41879272461</ele>
        <time>2020-08-16T17:56:19.501Z</time>
      </trkpt>
      <trkpt lat="44.62174" lon="0.79746">
        <ele>166.36500549316</ele>
        <time>2020-08-16T17:56:12.711Z</time>
      </trkpt>
      <trkpt lat="44.62209" lon="0.79777">
        <ele>166.25682067871</ele>
        <time>2020-08-16T17:56:05.929Z</time>
      </trkpt>
      <trkpt lat="44.62241" lon="0.79819">
        <ele>164.51715087891</ele>
        <time>2020-08-16T17:55:59.157Z</time>
      </trkpt>
      <trkpt lat="44.62269" lon="0.7986">
        <ele>161.20309448242</ele>
        <time>2020-08-16T17:55:52.396Z</time>
      </trkpt>
      <trkpt lat="44.62297" lon="0.79906">
        <ele>159.26774597168</ele>
        <time>2020-08-16T17:55:45.645Z</time>
      </trkpt>
      <trkpt lat="44.62306" lon="0.79922">
        <ele>159.41024780273</ele>
        <time>2020-08-16T17:55:38.904Z</time>
      </trkpt>
      <trkpt lat="44.62314" lon="0.7994">
        <ele>159.45449829102</ele>
        <time>2020-08-16T17:55:32.167Z</time>
      </trkpt>
      <trkpt lat="44.62327" lon="0.7999">
        <ele>159.71394348145</ele>
        <time>2020-08-16T17:55:25.434Z</time>
      </trkpt>
      <trkpt lat="44.62329" lon="0.79999">
        <ele>159.96385192871</ele>
        <time>2020-08-16T17:55:18.710Z</time>
      </trkpt>
      <trkpt lat="44.62339" lon="0.80023">
        <ele>160.80648803711</ele>
        <time>2020-08-16T17:55:11.988Z</time>
      </trkpt>
      <trkpt lat="44.62341" lon="0.8003">
        <ele>161.04925537109</ele>
        <time>2020-08-16T17:55:05.270Z</time>
      </trkpt>
      <trkpt lat="44.62343" lon="0.80038">
        <ele>161.26567077637</ele>
        <time>2020-08-16T17:54:58.554Z</time>
      </trkpt>
      <trkpt lat="44.62351" lon="0.80075">
        <ele>161.93371582031</ele>
        <time>2020-08-16T17:54:51.839Z</time>
      </trkpt>
      <trkpt lat="44.62361" lon="0.80117">
        <ele>162.54565429688</ele>
        <time>2020-08-16T17:54:45.131Z</time>
      </trkpt>
      <trkpt lat="44.62375" lon="0.80161">
        <ele>162.87713623047</ele>
        <time>2020-08-16T17:54:38.431Z</time>
      </trkpt>
      <trkpt lat="44.62384" lon="0.80193">
        <ele>162.71180725098</ele>
        <time>2020-08-16T17:54:31.739Z</time>
      </trkpt>
      <trkpt lat="44.62386" lon="0.80199">
        <ele>162.70153808594</ele>
        <time>2020-08-16T17:54:25.053Z</time>
      </trkpt>
      <trkpt lat="44.624" lon="0.80242">
        <ele>162.92468261719</ele>
        <time>2020-08-16T17:54:18.368Z</time>
      </trkpt>
      <trkpt lat="44.62406" lon="0.80261">
        <ele>163.03227233887</ele>
        <time>2020-08-16T17:54:11.692Z</time>
      </trkpt>
      <trkpt lat="44.62415" lon="0.80287">
        <ele>162.67002868652</ele>
        <time>2020-08-16T17:54:05.019Z</time>
      </trkpt>
      <trkpt lat="44.62417" lon="0.80294">
        <ele>162.60697937012</ele>
        <time>2020-08-16T17:53:58.351Z</time>
      </trkpt>
      <trkpt lat="44.62421" lon="0.80308">
        <ele>162.33897399902</ele>
        <time>2020-08-16T17:53:51.685Z</time>
      </trkpt>
      <trkpt lat="44.62424" lon="0.8032">
        <ele>162.31443786621</ele>
        <time>2020-08-16T17:53:45.021Z</time>
      </trkpt>
      <trkpt lat="44.62436" lon="0.80367">
        <ele>161.74523925781</ele>
        <time>2020-08-16T17:53:38.360Z</time>
      </trkpt>
      <trkpt lat="44.62439" lon="0.80379">
        <ele>161.7059173584</ele>
        <time>2020-08-16T17:53:31.707Z</time>
      </trkpt>
      <trkpt lat="44.62441" lon="0.80399">
        <ele>162.18316650391</ele>
        <time>2020-08-16T17:53:25.057Z</time>
      </trkpt>
      <trkpt lat="44.62439" lon="0.8045">
        <ele>163.76950073242</ele>
        <time>2020-08-16T17:53:18.410Z</time>
      </trkpt>
      <trkpt lat="44.62435" lon="0.80493">
        <ele>164.65927124023</ele>
        <time>2020-08-16T17:53:11.772Z</time>
      </trkpt>
      <trkpt lat="44.62428" lon="0.80532">
        <ele>165.30104064941</ele>
        <time>2020-08-16T17:53:05.142Z</time>
      </trkpt>
      <trkpt lat="44.62427" lon="0.80538">
        <ele>165.57327270508</ele>
        <time>2020-08-16T17:52:58.519Z</time>
      </trkpt>
      <trkpt lat="44.62426" lon="0.80551">
        <ele>166.25701904297</ele>
        <time>2020-08-16T17:52:51.897Z</time>
      </trkpt>
      <trkpt lat="44.62427" lon="0.80563">
        <ele>167.17367553711</ele>
        <time>2020-08-16T17:52:45.277Z</time>
      </trkpt>
      <trkpt lat="44.62434" lon="0.80605">
        <ele>170.83207702637</ele>
        <time>2020-08-16T17:52:38.659Z</time>
      </trkpt>
      <trkpt lat="44.62435" lon="0.80612">
        <ele>171.4694519043</ele>
        <time>2020-08-16T17:52:32.049Z</time>
      </trkpt>
      <trkpt lat="44.62438" lon="0.80651">
        <ele>173.94871520996</ele>
        <time>2020-08-16T17:52:25.440Z</time>
      </trkpt>
      <trkpt lat="44.6244" lon="0.80696">
        <ele>174.67892456055</ele>
        <time>2020-08-16T17:52:18.838Z</time>
      </trkpt>
      <trkpt lat="44.62442" lon="0.80723">
        <ele>175.3271484375</ele>
        <time>2020-08-16T17:52:12.244Z</time>
      </trkpt>
      <trkpt lat="44.62446" lon="0.80744">
        <ele>174.57400512695</ele>
        <time>2020-08-16T17:52:05.655Z</time>
      </trkpt>
      <trkpt lat="44.6245" lon="0.80765">
        <ele>173.77049255371</ele>
        <time>2020-08-16T17:51:59.069Z</time>
      </trkpt>
      <trkpt lat="44.62453" lon="0.80787">
        <ele>172.88946533203</ele>
        <time>2020-08-16T17:51:52.487Z</time>
      </trkpt>
      <trkpt lat="44.62458" lon="0.8081">
        <ele>171.93615722656</ele>
        <time>2020-08-16T17:51:45.909Z</time>
      </trkpt>
      <trkpt lat="44.6246" lon="0.8083">
        <ele>171.27893066406</ele>
        <time>2020-08-16T17:51:39.335Z</time>
      </trkpt>
      <trkpt lat="44.62457" lon="0.80864">
        <ele>169.9965057373</ele>
        <time>2020-08-16T17:51:32.765Z</time>
      </trkpt>
      <trkpt lat="44.62453" lon="0.809">
        <ele>169.2505645752</ele>
        <time>2020-08-16T17:51:26.201Z</time>
      </trkpt>
      <trkpt lat="44.62451" lon="0.80936">
        <ele>170.06771850586</ele>
        <time>2020-08-16T17:51:19.643Z</time>
      </trkpt>
      <trkpt lat="44.62449" lon="0.80963">
        <ele>170.64376831055</ele>
        <time>2020-08-16T17:51:13.092Z</time>
      </trkpt>
      <trkpt lat="44.62449" lon="0.80968">
        <ele>170.75518798828</ele>
        <time>2020-08-16T17:51:06.545Z</time>
      </trkpt>
      <trkpt lat="44.62446" lon="0.80985">
        <ele>170.72151184082</ele>
        <time>2020-08-16T17:50:59.999Z</time>
      </trkpt>
      <trkpt lat="44.62447" lon="0.80997">
        <ele>170.76496887207</ele>
        <time>2020-08-16T17:50:53.456Z</time>
      </trkpt>
      <trkpt lat="44.62448" lon="0.81007">
        <ele>170.79995727539</ele>
        <time>2020-08-16T17:50:46.915Z</time>
      </trkpt>
      <trkpt lat="44.62447" lon="0.81027">
        <ele>170.77783203125</ele>
        <time>2020-08-16T17:50:40.376Z</time>
      </trkpt>
      <trkpt lat="44.62449" lon="0.81061">
        <ele>170.89974975586</ele>
        <time>2020-08-16T17:50:33.841Z</time>
      </trkpt>
      <trkpt lat="44.62452" lon="0.81088">
        <ele>170.99147033691</ele>
        <time>2020-08-16T17:50:27.312Z</time>
      </trkpt>
      <trkpt lat="44.62455" lon="0.81115">
        <ele>170.90927124023</ele>
        <time>2020-08-16T17:50:20.787Z</time>
      </trkpt>
      <trkpt lat="44.62453" lon="0.81137">
        <ele>170.96990966797</ele>
        <time>2020-08-16T17:50:14.267Z</time>
      </trkpt>
      <trkpt lat="44.62452" lon="0.8114">
        <ele>170.96672058105</ele>
        <time>2020-08-16T17:50:07.751Z</time>
      </trkpt>
      <trkpt lat="44.62447" lon="0.81145">
        <ele>170.75343322754</ele>
        <time>2020-08-16T17:50:01.236Z</time>
      </trkpt>
      <trkpt lat="44.62444" lon="0.81154">
        <ele>170.53057861328</ele>
        <time>2020-08-16T17:49:54.722Z</time>
      </trkpt>
      <trkpt lat="44.62444" lon="0.81157">
        <ele>170.46842956543</ele>
        <time>2020-08-16T17:49:48.210Z</time>
      </trkpt>
      <trkpt lat="44.62436" lon="0.81186">
        <ele>169.85667419434</ele>
        <time>2020-08-16T17:49:41.698Z</time>
      </trkpt>
      <trkpt lat="44.62434" lon="0.81196">
        <ele>169.65534973145</ele>
        <time>2020-08-16T17:49:35.192Z</time>
      </trkpt>
      <trkpt lat="44.62433" lon="0.812">
        <ele>169.56875610352</ele>
        <time>2020-08-16T17:49:28.688Z</time>
      </trkpt>
      <trkpt lat="44.62429" lon="0.81209">
        <ele>169.45668029785</ele>
        <time>2020-08-16T17:49:22.184Z</time>
      </trkpt>
      <trkpt lat="44.62424" lon="0.81225">
        <ele>169.31649780273</ele>
        <time>2020-08-16T17:49:15.682Z</time>
      </trkpt>
      <trkpt lat="44.62416" lon="0.81248">
        <ele>169.1236114502</ele>
        <time>2020-08-16T17:49:09.183Z</time>
      </trkpt>
      <trkpt lat="44.6241" lon="0.81259">
        <ele>168.99327087402</ele>
        <time>2020-08-16T17:49:02.689Z</time>
      </trkpt>
      <trkpt lat="44.62406" lon="0.81269">
        <ele>169.0061340332</ele>
        <time>2020-08-16T17:48:56.197Z</time>
      </trkpt>
      <trkpt lat="44.62403" lon="0.81275">
        <ele>169.04455566406</ele>
        <time>2020-08-16T17:48:49.707Z</time>
      </trkpt>
      <trkpt lat="44.62399" lon="0.81286">
        <ele>169.14190673828</ele>
        <time>2020-08-16T17:48:43.218Z</time>
      </trkpt>
      <trkpt lat="44.62395" lon="0.81302">
        <ele>169.2691192627</ele>
        <time>2020-08-16T17:48:36.732Z</time>
      </trkpt>
      <trkpt lat="44.62387" lon="0.81316">
        <ele>169.08879089355</ele>
        <time>2020-08-16T17:48:30.249Z</time>
      </trkpt>
      <trkpt lat="44.62379" lon="0.81324">
        <ele>168.89770507812</ele>
        <time>2020-08-16T17:48:23.769Z</time>
      </trkpt>
      <trkpt lat="44.62373" lon="0.81339">
        <ele>168.64619445801</ele>
        <time>2020-08-16T17:48:17.291Z</time>
      </trkpt>
      <trkpt lat="44.62371" lon="0.81344">
        <ele>168.55467224121</ele>
        <time>2020-08-16T17:48:10.816Z</time>
      </trkpt>
      <trkpt lat="44.62367" lon="0.81349">
        <ele>168.4453125</ele>
        <time>2020-08-16T17:48:04.342Z</time>
      </trkpt>
      <trkpt lat="44.6236" lon="0.81361">
        <ele>168.11685180664</ele>
        <time>2020-08-16T17:47:57.869Z</time>
      </trkpt>
      <trkpt lat="44.6235" lon="0.8138">
        <ele>167.64559936523</ele>
        <time>2020-08-16T17:47:51.399Z</time>
      </trkpt>
      <trkpt lat="44.62341" lon="0.814">
        <ele>167.20231628418</ele>
        <time>2020-08-16T17:47:44.933Z</time>
      </trkpt>
      <trkpt lat="44.62337" lon="0.81418">
        <ele>166.88903808594</ele>
        <time>2020-08-16T17:47:38.471Z</time>
      </trkpt>
      <trkpt lat="44.62332" lon="0.81442">
        <ele>166.72473144531</ele>
        <time>2020-08-16T17:47:32.013Z</time>
      </trkpt>
      <trkpt lat="44.62337" lon="0.81452">
        <ele>166.89640808105</ele>
        <time>2020-08-16T17:47:25.559Z</time>
      </trkpt>
      <trkpt lat="44.62347" lon="0.81463">
        <ele>167.05871582031</ele>
        <time>2020-08-16T17:47:19.107Z</time>
      </trkpt>
      <trkpt lat="44.62352" lon="0.81469">
        <ele>167.11985778809</ele>
        <time>2020-08-16T17:47:12.658Z</time>
      </trkpt>
      <trkpt lat="44.62356" lon="0.81472">
        <ele>167.14721679688</ele>
        <time>2020-08-16T17:47:06.211Z</time>
      </trkpt>
      <trkpt lat="44.62355" lon="0.81472">
        <ele>167.15927124023</ele>
        <time>2020-08-16T17:46:59.765Z</time>
      </trkpt>
      <trkpt lat="44.62347" lon="0.81472">
        <ele>167.24787902832</ele>
        <time>2020-08-16T17:46:53.319Z</time>
      </trkpt>
      <trkpt lat="44.62341" lon="0.81472">
        <ele>167.32884216309</ele>
        <time>2020-08-16T17:46:46.875Z</time>
      </trkpt>
      <trkpt lat="44.6234" lon="0.81471">
        <ele>167.3238067627</ele>
        <time>2020-08-16T17:46:40.433Z</time>
      </trkpt>
      <trkpt lat="44.62339" lon="0.8147">
        <ele>167.31666564941</ele>
        <time>2020-08-16T17:46:33.991Z</time>
      </trkpt>
      <trkpt lat="44.62338" lon="0.81472">
        <ele>167.36122131348</ele>
        <time>2020-08-16T17:46:27.549Z</time>
      </trkpt>
      <trkpt lat="44.62335" lon="0.81479">
        <ele>167.50028991699</ele>
        <time>2020-08-16T17:46:21.108Z</time>
      </trkpt>
      <trkpt lat="44.62325" lon="0.81506">
        <ele>167.93553161621</ele>
        <time>2020-08-16T17:46:14.668Z</time>
      </trkpt>
      <trkpt lat="44.62315" lon="0.81529">
        <ele>167.33787536621</ele>
        <time>2020-08-16T17:46:08.234Z</time>
      </trkpt>
      <trkpt lat="44.62304" lon="0.81549">
        <ele>166.59448242188</ele>
        <time>2020-08-16T17:46:01.804Z</time>
      </trkpt>
      <trkpt lat="44.623" lon="0.81558">
        <ele>166.34275817871</ele>
        <time>2020-08-16T17:45:55.379Z</time>
      </trkpt>
      <trkpt lat="44.62297" lon="0.81562">
        <ele>166.28201293945</ele>
        <time>2020-08-16T17:45:48.956Z</time>
      </trkpt>
      <trkpt lat="44.62287" lon="0.81581">
        <ele>165.44242858887</ele>
        <time>2020-08-16T17:45:42.534Z</time>
      </trkpt>
      <trkpt lat="44.62279" lon="0.81588">
        <ele>165.06648254395</ele>
        <time>2020-08-16T17:45:36.116Z</time>
      </trkpt>
      <trkpt lat="44.62274" lon="0.81587">
        <ele>164.96772766113</ele>
        <time>2020-08-16T17:45:29.700Z</time>
      </trkpt>
      <trkpt lat="44.62265" lon="0.81578">
        <ele>164.95263671875</ele>
        <time>2020-08-16T17:45:23.285Z</time>
      </trkpt>
      <trkpt lat="44.62261" lon="0.81575">
        <ele>164.95204162598</ele>
        <time>2020-08-16T17:45:16.873Z</time>
      </trkpt>
      <trkpt lat="44.62246" lon="0.81563">
        <ele>164.86393737793</ele>
        <time>2020-08-16T17:45:10.462Z</time>
      </trkpt>
      <trkpt lat="44.62238" lon="0.81558">
        <ele>164.81607055664</ele>
        <time>2020-08-16T17:45:04.055Z</time>
      </trkpt>
      <trkpt lat="44.62231" lon="0.81552">
        <ele>164.87370300293</ele>
        <time>2020-08-16T17:44:57.650Z</time>
      </trkpt>
      <trkpt lat="44.62217" lon="0.81542">
        <ele>165.00303649902</ele>
        <time>2020-08-16T17:44:51.247Z</time>
      </trkpt>
      <trkpt lat="44.62213" lon="0.81541">
        <ele>164.9434967041</ele>
        <time>2020-08-16T17:44:44.848Z</time>
      </trkpt>
      <trkpt lat="44.62202" lon="0.81543">
        <ele>164.5897064209</ele>
        <time>2020-08-16T17:44:38.450Z</time>
      </trkpt>
      <trkpt lat="44.62196" lon="0.81548">
        <ele>164.22988891602</ele>
        <time>2020-08-16T17:44:32.055Z</time>
      </trkpt>
      <trkpt lat="44.62195" lon="0.81551">
        <ele>164.10670471191</ele>
        <time>2020-08-16T17:44:25.662Z</time>
      </trkpt>
      <trkpt lat="44.62192" lon="0.81554">
        <ele>164.04013061523</ele>
        <time>2020-08-16T17:44:19.269Z</time>
      </trkpt>
      <trkpt lat="44.62186" lon="0.81555">
        <ele>164.01399230957</ele>
        <time>2020-08-16T17:44:12.877Z</time>
      </trkpt>
      <trkpt lat="44.62184" lon="0.81553">
        <ele>164.05642700195</ele>
        <time>2020-08-16T17:44:06.487Z</time>
      </trkpt>
      <trkpt lat="44.62182" lon="0.81549">
        <ele>164.14251708984</ele>
        <time>2020-08-16T17:44:00.097Z</time>
      </trkpt>
      <trkpt lat="44.62174" lon="0.81541">
        <ele>164.34484863281</ele>
        <time>2020-08-16T17:43:53.708Z</time>
      </trkpt>
      <trkpt lat="44.62168" lon="0.81535">
        <ele>164.49067687988</ele>
        <time>2020-08-16T17:43:47.322Z</time>
      </trkpt>
      <trkpt lat="44.62156" lon="0.81528">
        <ele>164.6618347168</ele>
        <time>2020-08-16T17:43:40.937Z</time>
      </trkpt>
      <trkpt lat="44.62148" lon="0.81533">
        <ele>164.52767944336</ele>
        <time>2020-08-16T17:43:34.555Z</time>
      </trkpt>
      <trkpt lat="44.62141" lon="0.81551">
        <ele>164.11073303223</ele>
        <time>2020-08-16T17:43:28.176Z</time>
      </trkpt>
      <trkpt lat="44.62132" lon="0.8157">
        <ele>162.92477416992</ele>
        <time>2020-08-16T17:43:21.800Z</time>
      </trkpt>
      <trkpt lat="44.62125" lon="0.81588">
        <ele>161.98919677734</ele>
        <time>2020-08-16T17:43:15.428Z</time>
      </trkpt>
      <trkpt lat="44.62118" lon="0.81608">
        <ele>160.80068969727</ele>
        <time>2020-08-16T17:43:09.060Z</time>
      </trkpt>
      <trkpt lat="44.62117" lon="0.81612">
        <ele>160.49728393555</ele>
        <time>2020-08-16T17:43:02.696Z</time>
      </trkpt>
      <trkpt lat="44.62109" lon="0.81622">
        <ele>159.52239990234</ele>
        <time>2020-08-16T17:42:56.333Z</time>
      </trkpt>
      <trkpt lat="44.62107" lon="0.81624">
        <ele>159.28405761719</ele>
        <time>2020-08-16T17:42:49.972Z</time>
      </trkpt>
      <trkpt lat="44.62101" lon="0.81637">
        <ele>158.21171569824</ele>
        <time>2020-08-16T17:42:43.612Z</time>
      </trkpt>
      <trkpt lat="44.62088" lon="0.81666">
        <ele>155.24758911133</ele>
        <time>2020-08-16T17:42:37.254Z</time>
      </trkpt>
      <trkpt lat="44.62086" lon="0.81669">
        <ele>154.8955078125</ele>
        <time>2020-08-16T17:42:30.902Z</time>
      </trkpt>
      <trkpt lat="44.62079" lon="0.81677">
        <ele>153.85595703125</ele>
        <time>2020-08-16T17:42:24.551Z</time>
      </trkpt>
      <trkpt lat="44.62075" lon="0.81679">
        <ele>153.53216552734</ele>
        <time>2020-08-16T17:42:18.202Z</time>
      </trkpt>
      <trkpt lat="44.62064" lon="0.81676">
        <ele>153.53680419922</ele>
        <time>2020-08-16T17:42:11.854Z</time>
      </trkpt>
      <trkpt lat="44.62049" lon="0.81688">
        <ele>152.81301879883</ele>
        <time>2020-08-16T17:42:05.509Z</time>
      </trkpt>
      <trkpt lat="44.62036" lon="0.81699">
        <ele>152.11227416992</ele>
        <time>2020-08-16T17:41:59.168Z</time>
      </trkpt>
      <trkpt lat="44.62026" lon="0.81707">
        <ele>152.15196228027</ele>
        <time>2020-08-16T17:41:52.831Z</time>
      </trkpt>
      <trkpt lat="44.62025" lon="0.8171">
        <ele>152.0767364502</ele>
        <time>2020-08-16T17:41:46.497Z</time>
      </trkpt>
      <trkpt lat="44.62019" lon="0.8172">
        <ele>150.9794921875</ele>
        <time>2020-08-16T17:41:40.163Z</time>
      </trkpt>
      <trkpt lat="44.62013" lon="0.81728">
        <ele>150.1436920166</ele>
        <time>2020-08-16T17:41:33.832Z</time>
      </trkpt>
      <trkpt lat="44.62012" lon="0.8173">
        <ele>149.9877166748</ele>
        <time>2020-08-16T17:41:27.503Z</time>
      </trkpt>
      <trkpt lat="44.62013" lon="0.81738">
        <ele>149.22441101074</ele>
        <time>2020-08-16T17:41:21.174Z</time>
      </trkpt>
      <trkpt lat="44.62021" lon="0.81745">
        <ele>148.58923339844</ele>
        <time>2020-08-16T17:41:14.847Z</time>
      </trkpt>
      <trkpt lat="44.62026" lon="0.81761">
        <ele>147.11654663086</ele>
        <time>2020-08-16T17:41:08.522Z</time>
      </trkpt>
      <trkpt lat="44.62031" lon="0.81777">
        <ele>145.6576385498</ele>
        <time>2020-08-16T17:41:02.200Z</time>
      </trkpt>
      <trkpt lat="44.62037" lon="0.81798">
        <ele>143.77502441406</ele>
        <time>2020-08-16T17:40:55.881Z</time>
      </trkpt>
      <trkpt lat="44.62045" lon="0.81828">
        <ele>142.31617736816</ele>
        <time>2020-08-16T17:40:49.566Z</time>
      </trkpt>
      <trkpt lat="44.62053" lon="0.81858">
        <ele>140.92616271973</ele>
        <time>2020-08-16T17:40:43.257Z</time>
      </trkpt>
      <trkpt lat="44.62057" lon="0.81884">
        <ele>139.45768737793</ele>
        <time>2020-08-16T17:40:36.953Z</time>
      </trkpt>
      <trkpt lat="44.62067" lon="0.81919">
        <ele>138.19917297363</ele>
        <time>2020-08-16T17:40:30.654Z</time>
      </trkpt>
      <trkpt lat="44.62069" lon="0.81924">
        <ele>138.11177062988</ele>
        <time>2020-08-16T17:40:24.361Z</time>
      </trkpt>
      <trkpt lat="44.62085" lon="0.81947">
        <ele>138.2098236084</ele>
        <time>2020-08-16T17:40:18.070Z</time>
      </trkpt>
      <trkpt lat="44.62101" lon="0.81971">
        <ele>138.35464477539</ele>
        <time>2020-08-16T17:40:11.784Z</time>
      </trkpt>
      <trkpt lat="44.62114" lon="0.82003">
        <ele>138.42974853516</ele>
        <time>2020-08-16T17:40:05.504Z</time>
      </trkpt>
      <trkpt lat="44.62126" lon="0.82035">
        <ele>138.41586303711</ele>
        <time>2020-08-16T17:39:59.230Z</time>
      </trkpt>
      <trkpt lat="44.62137" lon="0.82069">
        <ele>138.05108642578</ele>
        <time>2020-08-16T17:39:52.963Z</time>
      </trkpt>
      <trkpt lat="44.62147" lon="0.82106">
        <ele>138.61990356445</ele>
        <time>2020-08-16T17:39:46.702Z</time>
      </trkpt>
      <trkpt lat="44.62154" lon="0.82134">
        <ele>139.22340393066</ele>
        <time>2020-08-16T17:39:40.448Z</time>
      </trkpt>
      <trkpt lat="44.62152" lon="0.82156">
        <ele>137.38729858398</ele>
        <time>2020-08-16T17:39:34.199Z</time>
      </trkpt>
      <trkpt lat="44.62144" lon="0.82171">
        <ele>135.70922851562</ele>
        <time>2020-08-16T17:39:27.954Z</time>
      </trkpt>
      <trkpt lat="44.62136" lon="0.82184">
        <ele>134.77215576172</ele>
        <time>2020-08-16T17:39:21.712Z</time>
      </trkpt>
      <trkpt lat="44.62134" lon="0.82185">
        <ele>134.66534423828</ele>
        <time>2020-08-16T17:39:15.474Z</time>
      </trkpt>
      <trkpt lat="44.6213" lon="0.82186">
        <ele>134.56156921387</ele>
        <time>2020-08-16T17:39:09.236Z</time>
      </trkpt>
      <trkpt lat="44.62125" lon="0.82187">
        <ele>134.51329040527</ele>
        <time>2020-08-16T17:39:02.999Z</time>
      </trkpt>
      <trkpt lat="44.62108" lon="0.82188">
        <ele>133.16787719727</ele>
        <time>2020-08-16T17:38:56.763Z</time>
      </trkpt>
      <trkpt lat="44.62096" lon="0.82194">
        <ele>131.32711791992</ele>
        <time>2020-08-16T17:38:50.531Z</time>
      </trkpt>
      <trkpt lat="44.62085" lon="0.82201">
        <ele>129.94288635254</ele>
        <time>2020-08-16T17:38:44.303Z</time>
      </trkpt>
      <trkpt lat="44.62078" lon="0.82214">
        <ele>128.91137695312</ele>
        <time>2020-08-16T17:38:38.078Z</time>
      </trkpt>
      <trkpt lat="44.62078" lon="0.82217">
        <ele>128.75500488281</ele>
        <time>2020-08-16T17:38:31.855Z</time>
      </trkpt>
      <trkpt lat="44.62076" lon="0.82227">
        <ele>127.99783325195</ele>
        <time>2020-08-16T17:38:25.633Z</time>
      </trkpt>
      <trkpt lat="44.62073" lon="0.82242">
        <ele>126.43081665039</ele>
        <time>2020-08-16T17:38:19.413Z</time>
      </trkpt>
      <trkpt lat="44.62067" lon="0.82274">
        <ele>124.75144958496</ele>
        <time>2020-08-16T17:38:13.196Z</time>
      </trkpt>
      <trkpt lat="44.62059" lon="0.82316">
        <ele>123.9088973999</ele>
        <time>2020-08-16T17:38:06.984Z</time>
      </trkpt>
      <trkpt lat="44.62053" lon="0.82346">
        <ele>123.03153991699</ele>
        <time>2020-08-16T17:38:00.780Z</time>
      </trkpt>
      <trkpt lat="44.62048" lon="0.82373">
        <ele>122.37665557861</ele>
        <time>2020-08-16T17:37:54.581Z</time>
      </trkpt>
      <trkpt lat="44.62039" lon="0.82416">
        <ele>122.278175354</ele>
        <time>2020-08-16T17:37:48.387Z</time>
      </trkpt>
      <trkpt lat="44.62035" lon="0.82452">
        <ele>122.7456817627</ele>
        <time>2020-08-16T17:37:42.201Z</time>
      </trkpt>
      <trkpt lat="44.62025" lon="0.82505">
        <ele>122.47957611084</ele>
        <time>2020-08-16T17:37:36.021Z</time>
      </trkpt>
      <trkpt lat="44.62018" lon="0.82534">
        <ele>122.17023468018</ele>
        <time>2020-08-16T17:37:29.851Z</time>
      </trkpt>
      <trkpt lat="44.62012" lon="0.82559">
        <ele>121.88382720947</ele>
        <time>2020-08-16T17:37:23.686Z</time>
      </trkpt>
      <trkpt lat="44.62008" lon="0.82579">
        <ele>121.70683288574</ele>
        <time>2020-08-16T17:37:17.526Z</time>
      </trkpt>
      <trkpt lat="44.62005" lon="0.82596">
        <ele>121.52983093262</ele>
        <time>2020-08-16T17:37:11.370Z</time>
      </trkpt>
      <trkpt lat="44.62004" lon="0.82599">
        <ele>121.49885559082</ele>
        <time>2020-08-16T17:37:05.217Z</time>
      </trkpt>
      <trkpt lat="44.62002" lon="0.82619">
        <ele>121.87384796143</ele>
        <time>2020-08-16T17:36:59.064Z</time>
      </trkpt>
      <trkpt lat="44.61998" lon="0.82637">
        <ele>122.49645233154</ele>
        <time>2020-08-16T17:36:52.915Z</time>
      </trkpt>
      <trkpt lat="44.62002" lon="0.82648">
        <ele>122.59595489502</ele>
        <time>2020-08-16T17:36:46.769Z</time>
      </trkpt>
      <trkpt lat="44.62024" lon="0.82665">
        <ele>122.85963439941</ele>
        <time>2020-08-16T17:36:40.625Z</time>
      </trkpt>
      <trkpt lat="44.62028" lon="0.82669">
        <ele>122.91203308105</ele>
        <time>2020-08-16T17:36:34.488Z</time>
      </trkpt>
      <trkpt lat="44.62041" lon="0.82684">
        <ele>123.19588470459</ele>
        <time>2020-08-16T17:36:28.352Z</time>
      </trkpt>
      <trkpt lat="44.62045" lon="0.82689">
        <ele>123.33285522461</ele>
        <time>2020-08-16T17:36:22.220Z</time>
      </trkpt>
      <trkpt lat="44.62048" lon="0.82694">
        <ele>123.45503997803</ele>
        <time>2020-08-16T17:36:16.089Z</time>
      </trkpt>
      <trkpt lat="44.6206" lon="0.82717">
        <ele>123.90336608887</ele>
        <time>2020-08-16T17:36:09.959Z</time>
      </trkpt>
      <trkpt lat="44.62063" lon="0.82724">
        <ele>123.99211883545</ele>
        <time>2020-08-16T17:36:03.835Z</time>
      </trkpt>
      <trkpt lat="44.62077" lon="0.82759">
        <ele>124.05235290527</ele>
        <time>2020-08-16T17:35:57.712Z</time>
      </trkpt>
      <trkpt lat="44.62097" lon="0.82813">
        <ele>125.2599105835</ele>
        <time>2020-08-16T17:35:51.596Z</time>
      </trkpt>
      <trkpt lat="44.62111" lon="0.82846">
        <ele>125.09749603271</ele>
        <time>2020-08-16T17:35:45.491Z</time>
      </trkpt>
      <trkpt lat="44.62117" lon="0.82859">
        <ele>125.02297210693</ele>
        <time>2020-08-16T17:35:39.392Z</time>
      </trkpt>
      <trkpt lat="44.62125" lon="0.8287">
        <ele>124.85708618164</ele>
        <time>2020-08-16T17:35:33.296Z</time>
      </trkpt>
      <trkpt lat="44.62129" lon="0.82876">
        <ele>124.75169372559</ele>
        <time>2020-08-16T17:35:27.203Z</time>
      </trkpt>
      <trkpt lat="44.62138" lon="0.82886">
        <ele>124.52581787109</ele>
        <time>2020-08-16T17:35:21.111Z</time>
      </trkpt>
      <trkpt lat="44.62149" lon="0.82894">
        <ele>124.51197052002</ele>
        <time>2020-08-16T17:35:15.022Z</time>
      </trkpt>
      <trkpt lat="44.62171" lon="0.82906">
        <ele>124.56003570557</ele>
        <time>2020-08-16T17:35:08.936Z</time>
      </trkpt>
      <trkpt lat="44.62176" lon="0.82909">
        <ele>124.59101104736</ele>
        <time>2020-08-16T17:35:02.856Z</time>
      </trkpt>
      <trkpt lat="44.62211" lon="0.82937">
        <ele>125.10189056396</ele>
        <time>2020-08-16T17:34:56.777Z</time>
      </trkpt>
      <trkpt lat="44.62234" lon="0.8297">
        <ele>126.1021194458</ele>
        <time>2020-08-16T17:34:50.708Z</time>
      </trkpt>
      <trkpt lat="44.62254" lon="0.83007">
        <ele>126.16345977783</ele>
        <time>2020-08-16T17:34:44.647Z</time>
      </trkpt>
      <trkpt lat="44.62274" lon="0.83047">
        <ele>126.27946472168</ele>
        <time>2020-08-16T17:34:38.594Z</time>
      </trkpt>
      <trkpt lat="44.62287" lon="0.8308">
        <ele>126.60906982422</ele>
        <time>2020-08-16T17:34:32.550Z</time>
      </trkpt>
      <trkpt lat="44.62299" lon="0.83124">
        <ele>127.79132843018</ele>
        <time>2020-08-16T17:34:26.512Z</time>
      </trkpt>
      <trkpt lat="44.62301" lon="0.83147">
        <ele>128.19119262695</ele>
        <time>2020-08-16T17:34:20.483Z</time>
      </trkpt>
      <trkpt lat="44.62303" lon="0.83169">
        <ele>128.68319702148</ele>
        <time>2020-08-16T17:34:14.458Z</time>
      </trkpt>
      <trkpt lat="44.62302" lon="0.8321">
        <ele>130.1805267334</ele>
        <time>2020-08-16T17:32:56.509Z</time>
      </trkpt>
      <trkpt lat="44.62301" lon="0.83207">
        <ele>130.07202148438</ele>
        <time>2020-08-16T17:32:50.535Z</time>
        <extensions>
          <visugpx:TrkExtension xmlns:visugpx="https://www.visugpx.com/editgpx/">
            <visugpx:node>1</visugpx:node>
            </visugpx:TrkExtension>
        </extensions>
      </trkpt>
      <trkpt lat="44.62301" lon="0.83207">
        <ele>130.07202148438</ele>
        <time>2020-08-16T17:32:50.535Z</time>
        <extensions>
          <visugpx:TrkExtension xmlns:visugpx="https://www.visugpx.com/editgpx/">
            <visugpx:node>2</visugpx:node>
            </visugpx:TrkExtension>
        </extensions>
      </trkpt>
      <trkpt lat="44.62294" lon="0.83216">
        <ele>130.56428527832</ele>
        <time>2020-08-16T17:32:44.562Z</time>
      </trkpt>
      <trkpt lat="44.62292" lon="0.83223">
        <ele>130.86968994141</ele>
        <time>2020-08-16T17:32:38.591Z</time>
      </trkpt>
      <trkpt lat="44.62289" lon="0.83226">
        <ele>131.0033416748</ele>
        <time>2020-08-16T17:32:32.621Z</time>
      </trkpt>
      <trkpt lat="44.62282" lon="0.83234">
        <ele>131.42153930664</ele>
        <time>2020-08-16T17:32:26.652Z</time>
      </trkpt>
      <trkpt lat="44.62278" lon="0.83238">
        <ele>131.56787109375</ele>
        <time>2020-08-16T17:32:20.685Z</time>
      </trkpt>
      <trkpt lat="44.62271" lon="0.8325">
        <ele>131.98873901367</ele>
        <time>2020-08-16T17:32:14.720Z</time>
      </trkpt>
      <trkpt lat="44.62267" lon="0.83256">
        <ele>132.22164916992</ele>
        <time>2020-08-16T17:32:08.757Z</time>
      </trkpt>
      <trkpt lat="44.62263" lon="0.83262">
        <ele>132.43887329102</ele>
        <time>2020-08-16T17:32:02.796Z</time>
      </trkpt>
      <trkpt lat="44.62249" lon="0.8328">
        <ele>133.19384765625</ele>
        <time>2020-08-16T17:31:56.836Z</time>
      </trkpt>
      <trkpt lat="44.62227" lon="0.83305">
        <ele>134.68856811523</ele>
        <time>2020-08-16T17:31:50.881Z</time>
      </trkpt>
      <trkpt lat="44.62217" lon="0.83314">
        <ele>135.12588500977</ele>
        <time>2020-08-16T17:31:44.933Z</time>
      </trkpt>
      <trkpt lat="44.62208" lon="0.83324">
        <ele>135.89051818848</ele>
        <time>2020-08-16T17:31:38.988Z</time>
      </trkpt>
      <trkpt lat="44.62205" lon="0.83329">
        <ele>136.32496643066</ele>
        <time>2020-08-16T17:31:33.046Z</time>
      </trkpt>
      <trkpt lat="44.62201" lon="0.83341">
        <ele>137.15374755859</ele>
        <time>2020-08-16T17:31:27.105Z</time>
      </trkpt>
      <trkpt lat="44.622" lon="0.83347">
        <ele>137.56475830078</ele>
        <time>2020-08-16T17:31:21.166Z</time>
      </trkpt>
      <trkpt lat="44.62196" lon="0.83368">
        <ele>139.04055786133</ele>
        <time>2020-08-16T17:31:15.228Z</time>
      </trkpt>
      <trkpt lat="44.62197" lon="0.83383">
        <ele>139.92051696777</ele>
        <time>2020-08-16T17:31:09.294Z</time>
      </trkpt>
      <trkpt lat="44.62198" lon="0.83395">
        <ele>140.33587646484</ele>
        <time>2020-08-16T17:31:03.363Z</time>
      </trkpt>
      <trkpt lat="44.62196" lon="0.83414">
        <ele>141.42269897461</ele>
        <time>2020-08-16T17:30:57.434Z</time>
      </trkpt>
      <trkpt lat="44.6218" lon="0.83458">
        <ele>143.94410705566</ele>
        <time>2020-08-16T17:30:51.508Z</time>
      </trkpt>
      <trkpt lat="44.62162" lon="0.8351">
        <ele>146.81182861328</ele>
        <time>2020-08-16T17:30:45.591Z</time>
      </trkpt>
      <trkpt lat="44.62153" lon="0.83555">
        <ele>150.1091003418</ele>
        <time>2020-08-16T17:30:39.684Z</time>
      </trkpt>
      <trkpt lat="44.62148" lon="0.83566">
        <ele>150.41181945801</ele>
        <time>2020-08-16T17:30:33.785Z</time>
      </trkpt>
      <trkpt lat="44.62144" lon="0.83578">
        <ele>150.65730285645</ele>
        <time>2020-08-16T17:30:27.888Z</time>
      </trkpt>
      <trkpt lat="44.62143" lon="0.83583">
        <ele>150.85618591309</ele>
        <time>2020-08-16T17:30:21.994Z</time>
      </trkpt>
      <trkpt lat="44.62133" lon="0.83612">
        <ele>152.32565307617</ele>
        <time>2020-08-16T17:30:16.101Z</time>
      </trkpt>
      <trkpt lat="44.62126" lon="0.83625">
        <ele>153.14999389648</ele>
        <time>2020-08-16T17:30:10.213Z</time>
      </trkpt>
      <trkpt lat="44.62123" lon="0.83628">
        <ele>153.38088989258</ele>
        <time>2020-08-16T17:30:04.328Z</time>
      </trkpt>
      <trkpt lat="44.62123" lon="0.8363">
        <ele>153.45742797852</ele>
        <time>2020-08-16T17:29:58.444Z</time>
      </trkpt>
      <trkpt lat="44.62123" lon="0.83643">
        <ele>153.79985046387</ele>
        <time>2020-08-16T17:29:52.560Z</time>
      </trkpt>
      <trkpt lat="44.6213" lon="0.8366">
        <ele>153.20547485352</ele>
        <time>2020-08-16T17:29:46.679Z</time>
      </trkpt>
      <trkpt lat="44.62144" lon="0.83674">
        <ele>152.55583190918</ele>
        <time>2020-08-16T17:29:40.801Z</time>
      </trkpt>
      <trkpt lat="44.62151" lon="0.83683">
        <ele>152.16583251953</ele>
        <time>2020-08-16T17:29:34.927Z</time>
      </trkpt>
      <trkpt lat="44.62153" lon="0.83684">
        <ele>152.10749816895</ele>
        <time>2020-08-16T17:29:29.056Z</time>
      </trkpt>
      <trkpt lat="44.62154" lon="0.83685">
        <ele>152.06144714355</ele>
        <time>2020-08-16T17:29:23.185Z</time>
      </trkpt>
      <trkpt lat="44.62168" lon="0.83695">
        <ele>151.47494506836</ele>
        <time>2020-08-16T17:29:17.314Z</time>
      </trkpt>
      <trkpt lat="44.62176" lon="0.837">
        <ele>151.14205932617</ele>
        <time>2020-08-16T17:29:11.447Z</time>
      </trkpt>
      <trkpt lat="44.62195" lon="0.83713">
        <ele>150.34600830078</ele>
        <time>2020-08-16T17:29:05.583Z</time>
      </trkpt>
      <trkpt lat="44.6222" lon="0.83746">
        <ele>150.71398925781</ele>
        <time>2020-08-16T17:28:59.724Z</time>
      </trkpt>
      <trkpt lat="44.62225" lon="0.83757">
        <ele>150.97213745117</ele>
        <time>2020-08-16T17:28:53.873Z</time>
      </trkpt>
      <trkpt lat="44.62236" lon="0.83777">
        <ele>151.46932983398</ele>
        <time>2020-08-16T17:28:48.024Z</time>
      </trkpt>
      <trkpt lat="44.62239" lon="0.83782">
        <ele>151.60037231445</ele>
        <time>2020-08-16T17:28:42.180Z</time>
      </trkpt>
      <trkpt lat="44.62246" lon="0.83789">
        <ele>151.8617401123</ele>
        <time>2020-08-16T17:28:36.337Z</time>
      </trkpt>
      <trkpt lat="44.62255" lon="0.83794">
        <ele>152.1171875</ele>
        <time>2020-08-16T17:28:30.496Z</time>
      </trkpt>
      <trkpt lat="44.62281" lon="0.83808">
        <ele>152.75193786621</ele>
        <time>2020-08-16T17:28:24.657Z</time>
      </trkpt>
      <trkpt lat="44.62296" lon="0.83823">
        <ele>152.57293701172</ele>
        <time>2020-08-16T17:28:18.825Z</time>
      </trkpt>
      <trkpt lat="44.62303" lon="0.83832">
        <ele>152.38487243652</ele>
        <time>2020-08-16T17:28:12.998Z</time>
      </trkpt>
      <trkpt lat="44.62324" lon="0.83862">
        <ele>151.68614196777</ele>
        <time>2020-08-16T17:28:07.173Z</time>
      </trkpt>
      <trkpt lat="44.62349" lon="0.83885">
        <ele>151.46389770508</ele>
        <time>2020-08-16T17:28:01.356Z</time>
      </trkpt>
      <trkpt lat="44.62379" lon="0.83898">
        <ele>152.28576660156</ele>
        <time>2020-08-16T17:27:55.546Z</time>
      </trkpt>
      <trkpt lat="44.62391" lon="0.83901">
        <ele>152.9055480957</ele>
        <time>2020-08-16T17:27:49.743Z</time>
      </trkpt>
      <trkpt lat="44.62409" lon="0.83903">
        <ele>153.88426208496</ele>
        <time>2020-08-16T17:27:43.943Z</time>
      </trkpt>
      <trkpt lat="44.62442" lon="0.83906">
        <ele>155.80204772949</ele>
        <time>2020-08-16T17:27:38.148Z</time>
      </trkpt>
      <trkpt lat="44.62468" lon="0.83913">
        <ele>156.32420349121</ele>
        <time>2020-08-16T17:27:32.361Z</time>
      </trkpt>
      <trkpt lat="44.62483" lon="0.83919">
        <ele>156.29150390625</ele>
        <time>2020-08-16T17:27:26.581Z</time>
      </trkpt>
      <trkpt lat="44.62501" lon="0.83924">
        <ele>156.1537322998</ele>
        <time>2020-08-16T17:27:20.804Z</time>
      </trkpt>
      <trkpt lat="44.62515" lon="0.83941">
        <ele>155.74743652344</ele>
        <time>2020-08-16T17:27:15.032Z</time>
      </trkpt>
      <trkpt lat="44.62526" lon="0.83953">
        <ele>155.45780944824</ele>
        <time>2020-08-16T17:27:09.264Z</time>
      </trkpt>
      <trkpt lat="44.62533" lon="0.84003">
        <ele>153.86254882812</ele>
        <time>2020-08-16T17:27:03.500Z</time>
      </trkpt>
      <trkpt lat="44.62538" lon="0.84037">
        <ele>152.70835876465</ele>
        <time>2020-08-16T17:26:57.745Z</time>
      </trkpt>
      <trkpt lat="44.62542" lon="0.84062">
        <ele>152.07270812988</ele>
        <time>2020-08-16T17:26:51.996Z</time>
      </trkpt>
      <trkpt lat="44.62547" lon="0.84096">
        <ele>151.43379211426</ele>
        <time>2020-08-16T17:26:46.251Z</time>
      </trkpt>
      <trkpt lat="44.6255" lon="0.84123">
        <ele>150.92070007324</ele>
        <time>2020-08-16T17:26:40.512Z</time>
      </trkpt>
      <trkpt lat="44.6255" lon="0.84127">
        <ele>150.81057739258</ele>
        <time>2020-08-16T17:26:34.778Z</time>
      </trkpt>
      <trkpt lat="44.62541" lon="0.84139">
        <ele>150.22700500488</ele>
        <time>2020-08-16T17:26:29.045Z</time>
      </trkpt>
      <trkpt lat="44.62522" lon="0.84161">
        <ele>149.4140625</ele>
        <time>2020-08-16T17:26:23.315Z</time>
      </trkpt>
      <trkpt lat="44.62506" lon="0.84183">
        <ele>148.75524902344</ele>
        <time>2020-08-16T17:26:17.591Z</time>
      </trkpt>
      <trkpt lat="44.62492" lon="0.842">
        <ele>147.98434448242</ele>
        <time>2020-08-16T17:26:11.873Z</time>
      </trkpt>
      <trkpt lat="44.62473" lon="0.84219">
        <ele>146.8231048584</ele>
        <time>2020-08-16T17:26:06.159Z</time>
      </trkpt>
      <trkpt lat="44.62455" lon="0.84242">
        <ele>145.89823913574</ele>
        <time>2020-08-16T17:26:00.451Z</time>
      </trkpt>
      <trkpt lat="44.62429" lon="0.84273">
        <ele>144.84617614746</ele>
        <time>2020-08-16T17:25:54.749Z</time>
      </trkpt>
      <trkpt lat="44.62426" lon="0.84277">
        <ele>144.72991943359</ele>
        <time>2020-08-16T17:25:49.055Z</time>
      </trkpt>
      <trkpt lat="44.62408" lon="0.84299">
        <ele>143.5824432373</ele>
        <time>2020-08-16T17:25:43.362Z</time>
      </trkpt>
      <trkpt lat="44.62394" lon="0.84311">
        <ele>142.98466491699</ele>
        <time>2020-08-16T17:25:37.675Z</time>
      </trkpt>
      <trkpt lat="44.62378" lon="0.84323">
        <ele>142.81578063965</ele>
        <time>2020-08-16T17:25:31.992Z</time>
      </trkpt>
      <trkpt lat="44.62363" lon="0.84335">
        <ele>143.17272949219</ele>
        <time>2020-08-16T17:25:26.313Z</time>
      </trkpt>
      <trkpt lat="44.62346" lon="0.84343">
        <ele>140.1</ele>
        <time>2020-08-16T17:25:20.639Z</time>
        <extensions>
          <visugpx:TrkExtension xmlns:visugpx="https://www.visugpx.com/editgpx/">
            <visugpx:node>3</visugpx:node>
            </visugpx:TrkExtension>
        </extensions>
      </trkpt>
    </trkseg>
  </trk>
</gpx>